<?xml version="1.0" encoding="UTF-8" standalone="no" ?><gpx xmlns="http://www.topografix.com/GPX/1/1" xmlns:gpxx="http://www.garmin.com/xmlschemas/GpxExtensions/v3" xmlns:wptx1="http://www.garmin.com/xmlschemas/WaypointExtension/v1" xmlns:gpxtpx="http://www.garmin.com/xmlschemas/TrackPointExtension/v1" creator="GuideVTT.com" version="1.1" xmlns:xsi="http://www.w3.org/2001/XMLSchema-instance" xsi:schemaLocation="http://www.topografix.com/GPX/1/1 http://www.topografix.com/GPX/1/1/gpx.xsd http://www.garmin.com/xmlschemas/GpxExtensions/v3 http://www8.garmin.com/xmlschemas/GpxExtensionsv3.xsd http://www.garmin.com/xmlschemas/WaypointExtension/v1 http://www8.garmin.com/xmlschemas/WaypointExtensionv1.xsd http://www.garmin.com/xmlschemas/TrackPointExtension/v1 http://www.garmin.com/xmlschemas/TrackPointExtensionv1.xsd">
<metadata><link href="http://www.garmin.com"><text>Garmin International</text></link><time>2013-06-22T15:13:50Z</time></metadata>
<trk><name>00000_20110416.gpx</name><extensions><gpxx:TrackExtension><gpxx:DisplayColor>Cyan</gpxx:DisplayColor></gpxx:TrackExtension></extensions><trkseg>
<trkpt lat="42.289008" lon="3.279247"><ele>-3.4</ele><time>2011-04-16T09:00:34Z</time></trkpt>
<trkpt lat="42.288972" lon="3.279143"><ele>8.3</ele><time>2011-04-16T09:00:38Z</time></trkpt>
<trkpt lat="42.288975" lon="3.278983"><ele>9.5</ele><time>2011-04-16T09:00:43Z</time></trkpt>
<trkpt lat="42.289035" lon="3.278833"><ele>9.8</ele><time>2011-04-16T09:00:48Z</time></trkpt>
<trkpt lat="42.289143" lon="3.278730"><ele>9.8</ele><time>2011-04-16T09:00:53Z</time></trkpt>
<trkpt lat="42.289138" lon="3.278547"><ele>10.8</ele><time>2011-04-16T09:00:58Z</time></trkpt>
<trkpt lat="42.289097" lon="3.278357"><ele>11.8</ele><time>2011-04-16T09:01:03Z</time></trkpt>
<trkpt lat="42.289043" lon="3.278150"><ele>14.7</ele><time>2011-04-16T09:01:08Z</time></trkpt>
<trkpt lat="42.288960" lon="3.277965"><ele>17.7</ele><time>2011-04-16T09:01:13Z</time></trkpt>
<trkpt lat="42.288945" lon="3.277877"><ele>16.7</ele><time>2011-04-16T09:01:18Z</time></trkpt>
<trkpt lat="42.288857" lon="3.277858"><ele>16.6</ele><time>2011-04-16T09:01:23Z</time></trkpt>
<trkpt lat="42.288727" lon="3.277890"><ele>18.3</ele><time>2011-04-16T09:01:28Z</time></trkpt>
<trkpt lat="42.288620" lon="3.277785"><ele>19.4</ele><time>2011-04-16T09:01:33Z</time></trkpt>
<trkpt lat="42.288525" lon="3.277592"><ele>18.6</ele><time>2011-04-16T09:01:38Z</time></trkpt>
<trkpt lat="42.288413" lon="3.277380"><ele>17.8</ele><time>2011-04-16T09:01:43Z</time></trkpt>
<trkpt lat="42.288285" lon="3.277227"><ele>17.8</ele><time>2011-04-16T09:01:48Z</time></trkpt>
<trkpt lat="42.288128" lon="3.277137"><ele>17.1</ele><time>2011-04-16T09:01:53Z</time></trkpt>
<trkpt lat="42.287930" lon="3.277167"><ele>15.5</ele><time>2011-04-16T09:01:58Z</time></trkpt>
<trkpt lat="42.287723" lon="3.277258"><ele>14.3</ele><time>2011-04-16T09:02:03Z</time></trkpt>
<trkpt lat="42.287528" lon="3.277333"><ele>13.3</ele><time>2011-04-16T09:02:08Z</time></trkpt>
<trkpt lat="42.287395" lon="3.277222"><ele>12.4</ele><time>2011-04-16T09:02:13Z</time></trkpt>
<trkpt lat="42.287407" lon="3.276953"><ele>12</ele><time>2011-04-16T09:02:18Z</time></trkpt>
<trkpt lat="42.287460" lon="3.276675"><ele>11.3</ele><time>2011-04-16T09:02:23Z</time></trkpt>
<trkpt lat="42.287502" lon="3.276437"><ele>10.5</ele><time>2011-04-16T09:02:28Z</time></trkpt>
<trkpt lat="42.287480" lon="3.276213"><ele>9.9</ele><time>2011-04-16T09:02:33Z</time></trkpt>
<trkpt lat="42.287373" lon="3.276018"><ele>10.5</ele><time>2011-04-16T09:02:38Z</time></trkpt>
<trkpt lat="42.287167" lon="3.275947"><ele>11.8</ele><time>2011-04-16T09:02:43Z</time></trkpt>
<trkpt lat="42.286977" lon="3.276037"><ele>11.9</ele><time>2011-04-16T09:02:48Z</time></trkpt>
<trkpt lat="42.286808" lon="3.276297"><ele>13</ele><time>2011-04-16T09:02:53Z</time></trkpt>
<trkpt lat="42.286598" lon="3.276377"><ele>13.7</ele><time>2011-04-16T09:02:58Z</time></trkpt>
<trkpt lat="42.286407" lon="3.276475"><ele>12.6</ele><time>2011-04-16T09:03:03Z</time></trkpt>
<trkpt lat="42.286217" lon="3.276552"><ele>11.6</ele><time>2011-04-16T09:03:08Z</time></trkpt>
<trkpt lat="42.286027" lon="3.276612"><ele>12.1</ele><time>2011-04-16T09:03:13Z</time></trkpt>
<trkpt lat="42.285888" lon="3.276482"><ele>14.1</ele><time>2011-04-16T09:03:18Z</time></trkpt>
<trkpt lat="42.285805" lon="3.276262"><ele>15.4</ele><time>2011-04-16T09:03:23Z</time></trkpt>
<trkpt lat="42.285652" lon="3.276070"><ele>14.9</ele><time>2011-04-16T09:03:28Z</time></trkpt>
<trkpt lat="42.285503" lon="3.275825"><ele>16.1</ele><time>2011-04-16T09:03:33Z</time></trkpt>
<trkpt lat="42.285332" lon="3.275640"><ele>14.8</ele><time>2011-04-16T09:03:38Z</time></trkpt>
<trkpt lat="42.285160" lon="3.275657"><ele>18.4</ele><time>2011-04-16T09:03:43Z</time></trkpt>
<trkpt lat="42.284943" lon="3.275668"><ele>20.8</ele><time>2011-04-16T09:03:48Z</time></trkpt>
<trkpt lat="42.284782" lon="3.275427"><ele>21.6</ele><time>2011-04-16T09:03:53Z</time></trkpt>
<trkpt lat="42.284520" lon="3.275250"><ele>20.2</ele><time>2011-04-16T09:03:58Z</time></trkpt>
<trkpt lat="42.284237" lon="3.275220"><ele>17.6</ele><time>2011-04-16T09:04:03Z</time></trkpt>
<trkpt lat="42.283962" lon="3.275367"><ele>16.3</ele><time>2011-04-16T09:04:08Z</time></trkpt>
<trkpt lat="42.283725" lon="3.275565"><ele>15.9</ele><time>2011-04-16T09:04:13Z</time></trkpt>
<trkpt lat="42.283517" lon="3.275705"><ele>15.4</ele><time>2011-04-16T09:04:18Z</time></trkpt>
<trkpt lat="42.283325" lon="3.275797"><ele>14.6</ele><time>2011-04-16T09:04:23Z</time></trkpt>
<trkpt lat="42.283115" lon="3.275790"><ele>13.7</ele><time>2011-04-16T09:04:28Z</time></trkpt>
<trkpt lat="42.282932" lon="3.275588"><ele>13.6</ele><time>2011-04-16T09:04:33Z</time></trkpt>
<trkpt lat="42.282722" lon="3.275487"><ele>13.5</ele><time>2011-04-16T09:04:38Z</time></trkpt>
<trkpt lat="42.282508" lon="3.275485"><ele>15.2</ele><time>2011-04-16T09:04:43Z</time></trkpt>
<trkpt lat="42.282345" lon="3.275520"><ele>16.2</ele><time>2011-04-16T09:04:48Z</time></trkpt>
<trkpt lat="42.282203" lon="3.275602"><ele>17</ele><time>2011-04-16T09:04:53Z</time></trkpt>
<trkpt lat="42.282070" lon="3.275605"><ele>17.8</ele><time>2011-04-16T09:04:58Z</time></trkpt>
<trkpt lat="42.281960" lon="3.275588"><ele>18.7</ele><time>2011-04-16T09:05:03Z</time></trkpt>
<trkpt lat="42.281853" lon="3.275573"><ele>19.1</ele><time>2011-04-16T09:05:08Z</time></trkpt>
<trkpt lat="42.281750" lon="3.275537"><ele>20</ele><time>2011-04-16T09:05:13Z</time></trkpt>
<trkpt lat="42.281647" lon="3.275497"><ele>20.5</ele><time>2011-04-16T09:05:18Z</time></trkpt>
<trkpt lat="42.281567" lon="3.275462"><ele>20.9</ele><time>2011-04-16T09:05:23Z</time></trkpt>
<trkpt lat="42.281493" lon="3.275438"><ele>21.1</ele><time>2011-04-16T09:05:28Z</time></trkpt>
<trkpt lat="42.281425" lon="3.275405"><ele>21.4</ele><time>2011-04-16T09:05:33Z</time></trkpt>
<trkpt lat="42.281360" lon="3.275372"><ele>21.6</ele><time>2011-04-16T09:05:38Z</time></trkpt>
<trkpt lat="42.281307" lon="3.275320"><ele>22.2</ele><time>2011-04-16T09:05:43Z</time></trkpt>
<trkpt lat="42.281268" lon="3.275248"><ele>22.9</ele><time>2011-04-16T09:05:48Z</time></trkpt>
<trkpt lat="42.281227" lon="3.275160"><ele>26.3</ele><time>2011-04-16T09:05:53Z</time></trkpt>
<trkpt lat="42.281200" lon="3.275067"><ele>26.8</ele><time>2011-04-16T09:05:58Z</time></trkpt>
<trkpt lat="42.281185" lon="3.274975"><ele>28.5</ele><time>2011-04-16T09:06:03Z</time></trkpt>
<trkpt lat="42.281167" lon="3.274887"><ele>31.1</ele><time>2011-04-16T09:06:08Z</time></trkpt>
<trkpt lat="42.281155" lon="3.274785"><ele>33.3</ele><time>2011-04-16T09:06:13Z</time></trkpt>
<trkpt lat="42.281178" lon="3.274685"><ele>34.2</ele><time>2011-04-16T09:06:18Z</time></trkpt>
<trkpt lat="42.281173" lon="3.274580"><ele>35.5</ele><time>2011-04-16T09:06:23Z</time></trkpt>
<trkpt lat="42.281173" lon="3.274475"><ele>36.5</ele><time>2011-04-16T09:06:28Z</time></trkpt>
<trkpt lat="42.281173" lon="3.274372"><ele>37.5</ele><time>2011-04-16T09:06:33Z</time></trkpt>
<trkpt lat="42.281147" lon="3.274280"><ele>37.9</ele><time>2011-04-16T09:06:38Z</time></trkpt>
<trkpt lat="42.281123" lon="3.274187"><ele>38.4</ele><time>2011-04-16T09:06:43Z</time></trkpt>
<trkpt lat="42.281087" lon="3.274107"><ele>39.2</ele><time>2011-04-16T09:06:48Z</time></trkpt>
<trkpt lat="42.281033" lon="3.274043"><ele>40</ele><time>2011-04-16T09:06:53Z</time></trkpt>
<trkpt lat="42.280963" lon="3.274018"><ele>40.9</ele><time>2011-04-16T09:06:58Z</time></trkpt>
<trkpt lat="42.280892" lon="3.273992"><ele>41.5</ele><time>2011-04-16T09:07:03Z</time></trkpt>
<trkpt lat="42.280818" lon="3.273955"><ele>42.3</ele><time>2011-04-16T09:07:08Z</time></trkpt>
<trkpt lat="42.280762" lon="3.273912"><ele>43.2</ele><time>2011-04-16T09:07:13Z</time></trkpt>
<trkpt lat="42.280708" lon="3.273863"><ele>44.2</ele><time>2011-04-16T09:07:18Z</time></trkpt>
<trkpt lat="42.280652" lon="3.273832"><ele>45.2</ele><time>2011-04-16T09:07:23Z</time></trkpt>
<trkpt lat="42.280598" lon="3.273875"><ele>46.1</ele><time>2011-04-16T09:07:28Z</time></trkpt>
<trkpt lat="42.280578" lon="3.273968"><ele>49.3</ele><time>2011-04-16T09:07:33Z</time></trkpt>
<trkpt lat="42.280572" lon="3.274062"><ele>54.2</ele><time>2011-04-16T09:07:38Z</time></trkpt>
<trkpt lat="42.280567" lon="3.274150"><ele>58.1</ele><time>2011-04-16T09:07:43Z</time></trkpt>
<trkpt lat="42.280560" lon="3.274237"><ele>61.4</ele><time>2011-04-16T09:07:48Z</time></trkpt>
<trkpt lat="42.280528" lon="3.274330"><ele>60.4</ele><time>2011-04-16T09:07:53Z</time></trkpt>
<trkpt lat="42.280480" lon="3.274420"><ele>59.7</ele><time>2011-04-16T09:07:58Z</time></trkpt>
<trkpt lat="42.280407" lon="3.274458"><ele>58.8</ele><time>2011-04-16T09:08:03Z</time></trkpt>
<trkpt lat="42.280327" lon="3.274507"><ele>57.7</ele><time>2011-04-16T09:08:08Z</time></trkpt>
<trkpt lat="42.280258" lon="3.274555"><ele>57.1</ele><time>2011-04-16T09:08:13Z</time></trkpt>
<trkpt lat="42.280193" lon="3.274598"><ele>56.8</ele><time>2011-04-16T09:08:18Z</time></trkpt>
<trkpt lat="42.280125" lon="3.274642"><ele>56.7</ele><time>2011-04-16T09:08:23Z</time></trkpt>
<trkpt lat="42.280057" lon="3.274687"><ele>57</ele><time>2011-04-16T09:08:28Z</time></trkpt>
<trkpt lat="42.279992" lon="3.274747"><ele>57.1</ele><time>2011-04-16T09:08:33Z</time></trkpt>
<trkpt lat="42.279922" lon="3.274797"><ele>57.2</ele><time>2011-04-16T09:08:38Z</time></trkpt>
<trkpt lat="42.279850" lon="3.274838"><ele>57.3</ele><time>2011-04-16T09:08:43Z</time></trkpt>
<trkpt lat="42.279770" lon="3.274863"><ele>57.6</ele><time>2011-04-16T09:08:48Z</time></trkpt>
<trkpt lat="42.279705" lon="3.274815"><ele>57.9</ele><time>2011-04-16T09:08:53Z</time></trkpt>
<trkpt lat="42.279670" lon="3.274717"><ele>58.1</ele><time>2011-04-16T09:08:58Z</time></trkpt>
<trkpt lat="42.279687" lon="3.274612"><ele>58.7</ele><time>2011-04-16T09:09:03Z</time></trkpt>
<trkpt lat="42.279747" lon="3.274538"><ele>59.7</ele><time>2011-04-16T09:09:08Z</time></trkpt>
<trkpt lat="42.279785" lon="3.274448"><ele>60.7</ele><time>2011-04-16T09:09:13Z</time></trkpt>
<trkpt lat="42.279820" lon="3.274352"><ele>61.6</ele><time>2011-04-16T09:09:18Z</time></trkpt>
<trkpt lat="42.279850" lon="3.274252"><ele>62.2</ele><time>2011-04-16T09:09:23Z</time></trkpt>
<trkpt lat="42.279880" lon="3.274143"><ele>62.8</ele><time>2011-04-16T09:09:28Z</time></trkpt>
<trkpt lat="42.279915" lon="3.274042"><ele>63.4</ele><time>2011-04-16T09:09:33Z</time></trkpt>
<trkpt lat="42.279938" lon="3.273938"><ele>64.2</ele><time>2011-04-16T09:09:38Z</time></trkpt>
<trkpt lat="42.279945" lon="3.273827"><ele>64.8</ele><time>2011-04-16T09:09:43Z</time></trkpt>
<trkpt lat="42.279945" lon="3.273718"><ele>65.7</ele><time>2011-04-16T09:09:48Z</time></trkpt>
<trkpt lat="42.279933" lon="3.273608"><ele>66.5</ele><time>2011-04-16T09:09:53Z</time></trkpt>
<trkpt lat="42.279907" lon="3.273503"><ele>67.4</ele><time>2011-04-16T09:09:58Z</time></trkpt>
<trkpt lat="42.279853" lon="3.273408"><ele>68.1</ele><time>2011-04-16T09:10:03Z</time></trkpt>
<trkpt lat="42.279815" lon="3.273305"><ele>68.9</ele><time>2011-04-16T09:10:08Z</time></trkpt>
<trkpt lat="42.279785" lon="3.273205"><ele>69.8</ele><time>2011-04-16T09:10:13Z</time></trkpt>
<trkpt lat="42.279747" lon="3.273110"><ele>70.7</ele><time>2011-04-16T09:10:18Z</time></trkpt>
<trkpt lat="42.279708" lon="3.273012"><ele>71.9</ele><time>2011-04-16T09:10:23Z</time></trkpt>
<trkpt lat="42.279652" lon="3.272927"><ele>72.8</ele><time>2011-04-16T09:10:28Z</time></trkpt>
<trkpt lat="42.279568" lon="3.272890"><ele>73.4</ele><time>2011-04-16T09:10:33Z</time></trkpt>
<trkpt lat="42.279480" lon="3.272852"><ele>73.9</ele><time>2011-04-16T09:10:38Z</time></trkpt>
<trkpt lat="42.279408" lon="3.272773"><ele>74.6</ele><time>2011-04-16T09:10:43Z</time></trkpt>
<trkpt lat="42.279373" lon="3.272668"><ele>75.4</ele><time>2011-04-16T09:10:48Z</time></trkpt>
<trkpt lat="42.279365" lon="3.272548"><ele>76.6</ele><time>2011-04-16T09:10:53Z</time></trkpt>
<trkpt lat="42.279338" lon="3.272442"><ele>77.9</ele><time>2011-04-16T09:10:58Z</time></trkpt>
<trkpt lat="42.279308" lon="3.272337"><ele>79.5</ele><time>2011-04-16T09:11:03Z</time></trkpt>
<trkpt lat="42.279273" lon="3.272233"><ele>80.8</ele><time>2011-04-16T09:11:08Z</time></trkpt>
<trkpt lat="42.279237" lon="3.272132"><ele>82</ele><time>2011-04-16T09:11:12Z</time></trkpt>
<trkpt lat="42.279187" lon="3.272038"><ele>82.8</ele><time>2011-04-16T09:11:17Z</time></trkpt>
<trkpt lat="42.279145" lon="3.271932"><ele>82.7</ele><time>2011-04-16T09:11:22Z</time></trkpt>
<trkpt lat="42.279098" lon="3.271833"><ele>82.4</ele><time>2011-04-16T09:11:27Z</time></trkpt>
<trkpt lat="42.279057" lon="3.271723"><ele>82.2</ele><time>2011-04-16T09:11:32Z</time></trkpt>
<trkpt lat="42.279030" lon="3.271620"><ele>82.7</ele><time>2011-04-16T09:11:37Z</time></trkpt>
<trkpt lat="42.278965" lon="3.271543"><ele>82.9</ele><time>2011-04-16T09:11:42Z</time></trkpt>
<trkpt lat="42.278888" lon="3.271482"><ele>82.9</ele><time>2011-04-16T09:11:47Z</time></trkpt>
<trkpt lat="42.278828" lon="3.271408"><ele>83.3</ele><time>2011-04-16T09:11:52Z</time></trkpt>
<trkpt lat="42.278828" lon="3.271293"><ele>83.4</ele><time>2011-04-16T09:11:57Z</time></trkpt>
<trkpt lat="42.278865" lon="3.271190"><ele>83.7</ele><time>2011-04-16T09:12:02Z</time></trkpt>
<trkpt lat="42.278923" lon="3.271103"><ele>84.3</ele><time>2011-04-16T09:12:07Z</time></trkpt>
<trkpt lat="42.278957" lon="3.271000"><ele>85</ele><time>2011-04-16T09:12:12Z</time></trkpt>
<trkpt lat="42.278977" lon="3.270890"><ele>85.5</ele><time>2011-04-16T09:12:17Z</time></trkpt>
<trkpt lat="42.278988" lon="3.270775"><ele>86.1</ele><time>2011-04-16T09:12:22Z</time></trkpt>
<trkpt lat="42.278995" lon="3.270660"><ele>86.7</ele><time>2011-04-16T09:12:27Z</time></trkpt>
<trkpt lat="42.279000" lon="3.270547"><ele>87.5</ele><time>2011-04-16T09:12:32Z</time></trkpt>
<trkpt lat="42.278988" lon="3.270435"><ele>88.5</ele><time>2011-04-16T09:12:37Z</time></trkpt>
<trkpt lat="42.278935" lon="3.270352"><ele>89.7</ele><time>2011-04-16T09:12:42Z</time></trkpt>
<trkpt lat="42.278847" lon="3.270370"><ele>90.3</ele><time>2011-04-16T09:12:47Z</time></trkpt>
<trkpt lat="42.278775" lon="3.270438"><ele>90.4</ele><time>2011-04-16T09:12:52Z</time></trkpt>
<trkpt lat="42.278672" lon="3.270473"><ele>90.4</ele><time>2011-04-16T09:12:57Z</time></trkpt>
<trkpt lat="42.278577" lon="3.270437"><ele>90.7</ele><time>2011-04-16T09:13:02Z</time></trkpt>
<trkpt lat="42.278545" lon="3.270330"><ele>91.3</ele><time>2011-04-16T09:13:07Z</time></trkpt>
<trkpt lat="42.278515" lon="3.270227"><ele>90.5</ele><time>2011-04-16T09:13:12Z</time></trkpt>
<trkpt lat="42.278447" lon="3.270178"><ele>91.7</ele><time>2011-04-16T09:13:17Z</time></trkpt>
<trkpt lat="42.278367" lon="3.270228"><ele>92.3</ele><time>2011-04-16T09:13:22Z</time></trkpt>
<trkpt lat="42.278293" lon="3.270303"><ele>93.1</ele><time>2011-04-16T09:13:27Z</time></trkpt>
<trkpt lat="42.278228" lon="3.270380"><ele>93.8</ele><time>2011-04-16T09:13:32Z</time></trkpt>
<trkpt lat="42.278163" lon="3.270447"><ele>94.6</ele><time>2011-04-16T09:13:37Z</time></trkpt>
<trkpt lat="42.278092" lon="3.270517"><ele>95.4</ele><time>2011-04-16T09:13:42Z</time></trkpt>
<trkpt lat="42.278042" lon="3.270612"><ele>96.1</ele><time>2011-04-16T09:13:47Z</time></trkpt>
<trkpt lat="42.278045" lon="3.270730"><ele>97.1</ele><time>2011-04-16T09:13:52Z</time></trkpt>
<trkpt lat="42.278027" lon="3.270842"><ele>98.1</ele><time>2011-04-16T09:13:57Z</time></trkpt>
<trkpt lat="42.277980" lon="3.270923"><ele>99</ele><time>2011-04-16T09:14:02Z</time></trkpt>
<trkpt lat="42.277905" lon="3.270900"><ele>99.9</ele><time>2011-04-16T09:14:07Z</time></trkpt>
<trkpt lat="42.277858" lon="3.270810"><ele>100.4</ele><time>2011-04-16T09:14:12Z</time></trkpt>
<trkpt lat="42.277852" lon="3.270692"><ele>100.8</ele><time>2011-04-16T09:14:17Z</time></trkpt>
<trkpt lat="42.277890" lon="3.270585"><ele>101.9</ele><time>2011-04-16T09:14:22Z</time></trkpt>
<trkpt lat="42.277897" lon="3.270465"><ele>102.9</ele><time>2011-04-16T09:14:27Z</time></trkpt>
<trkpt lat="42.277893" lon="3.270328"><ele>103.5</ele><time>2011-04-16T09:14:32Z</time></trkpt>
<trkpt lat="42.277870" lon="3.270215"><ele>104.6</ele><time>2011-04-16T09:14:37Z</time></trkpt>
<trkpt lat="42.277813" lon="3.270125"><ele>105.5</ele><time>2011-04-16T09:14:42Z</time></trkpt>
<trkpt lat="42.277725" lon="3.270077"><ele>106</ele><time>2011-04-16T09:14:47Z</time></trkpt>
<trkpt lat="42.277645" lon="3.270012"><ele>106.6</ele><time>2011-04-16T09:14:52Z</time></trkpt>
<trkpt lat="42.277600" lon="3.269907"><ele>107.1</ele><time>2011-04-16T09:14:57Z</time></trkpt>
<trkpt lat="42.277530" lon="3.269813"><ele>107.4</ele><time>2011-04-16T09:15:02Z</time></trkpt>
<trkpt lat="42.277473" lon="3.269695"><ele>107.9</ele><time>2011-04-16T09:15:07Z</time></trkpt>
<trkpt lat="42.277435" lon="3.269562"><ele>108.6</ele><time>2011-04-16T09:15:12Z</time></trkpt>
<trkpt lat="42.277370" lon="3.269453"><ele>109.4</ele><time>2011-04-16T09:15:17Z</time></trkpt>
<trkpt lat="42.277257" lon="3.269428"><ele>109.7</ele><time>2011-04-16T09:15:22Z</time></trkpt>
<trkpt lat="42.277150" lon="3.269435"><ele>110.1</ele><time>2011-04-16T09:15:27Z</time></trkpt>
<trkpt lat="42.277050" lon="3.269375"><ele>110.5</ele><time>2011-04-16T09:15:32Z</time></trkpt>
<trkpt lat="42.276988" lon="3.269263"><ele>111.1</ele><time>2011-04-16T09:15:37Z</time></trkpt>
<trkpt lat="42.276928" lon="3.269165"><ele>112.1</ele><time>2011-04-16T09:15:42Z</time></trkpt>
<trkpt lat="42.276863" lon="3.269097"><ele>113.2</ele><time>2011-04-16T09:15:47Z</time></trkpt>
<trkpt lat="42.276840" lon="3.269012"><ele>114.2</ele><time>2011-04-16T09:15:52Z</time></trkpt>
<trkpt lat="42.276843" lon="3.268905"><ele>115.5</ele><time>2011-04-16T09:15:57Z</time></trkpt>
<trkpt lat="42.276837" lon="3.268813"><ele>116.5</ele><time>2011-04-16T09:16:02Z</time></trkpt>
<trkpt lat="42.276848" lon="3.268722"><ele>117.4</ele><time>2011-04-16T09:16:07Z</time></trkpt>
<trkpt lat="42.276887" lon="3.268635"><ele>118.4</ele><time>2011-04-16T09:16:12Z</time></trkpt>
<trkpt lat="42.276943" lon="3.268567"><ele>119.3</ele><time>2011-04-16T09:16:17Z</time></trkpt>
<trkpt lat="42.276988" lon="3.268483"><ele>120.3</ele><time>2011-04-16T09:16:22Z</time></trkpt>
<trkpt lat="42.277032" lon="3.268398"><ele>121.1</ele><time>2011-04-16T09:16:27Z</time></trkpt>
<trkpt lat="42.277068" lon="3.268312"><ele>121.8</ele><time>2011-04-16T09:16:32Z</time></trkpt>
<trkpt lat="42.277103" lon="3.268215"><ele>122.4</ele><time>2011-04-16T09:16:37Z</time></trkpt>
<trkpt lat="42.277127" lon="3.268117"><ele>122.9</ele><time>2011-04-16T09:16:42Z</time></trkpt>
<trkpt lat="42.277157" lon="3.268005"><ele>123.4</ele><time>2011-04-16T09:16:47Z</time></trkpt>
<trkpt lat="42.277177" lon="3.267887"><ele>123.9</ele><time>2011-04-16T09:16:52Z</time></trkpt>
<trkpt lat="42.277187" lon="3.267770"><ele>124.4</ele><time>2011-04-16T09:16:57Z</time></trkpt>
<trkpt lat="42.277203" lon="3.267658"><ele>125.1</ele><time>2011-04-16T09:17:02Z</time></trkpt>
<trkpt lat="42.277218" lon="3.267543"><ele>125.8</ele><time>2011-04-16T09:17:07Z</time></trkpt>
<trkpt lat="42.277240" lon="3.267433"><ele>126.6</ele><time>2011-04-16T09:17:12Z</time></trkpt>
<trkpt lat="42.277275" lon="3.267312"><ele>127.1</ele><time>2011-04-16T09:17:17Z</time></trkpt>
<trkpt lat="42.277290" lon="3.267200"><ele>128.3</ele><time>2011-04-16T09:17:22Z</time></trkpt>
<trkpt lat="42.277293" lon="3.267085"><ele>129.4</ele><time>2011-04-16T09:17:27Z</time></trkpt>
<trkpt lat="42.277278" lon="3.266972"><ele>130.6</ele><time>2011-04-16T09:17:32Z</time></trkpt>
<trkpt lat="42.277218" lon="3.266882"><ele>131.4</ele><time>2011-04-16T09:17:37Z</time></trkpt>
<trkpt lat="42.277142" lon="3.266833"><ele>132.1</ele><time>2011-04-16T09:17:42Z</time></trkpt>
<trkpt lat="42.277050" lon="3.266823"><ele>133.2</ele><time>2011-04-16T09:17:47Z</time></trkpt>
<trkpt lat="42.276978" lon="3.266880"><ele>134.2</ele><time>2011-04-16T09:17:52Z</time></trkpt>
<trkpt lat="42.276935" lon="3.266998"><ele>134.8</ele><time>2011-04-16T09:17:57Z</time></trkpt>
<trkpt lat="42.276893" lon="3.267115"><ele>135.2</ele><time>2011-04-16T09:18:02Z</time></trkpt>
<trkpt lat="42.276848" lon="3.267223"><ele>135.6</ele><time>2011-04-16T09:18:07Z</time></trkpt>
<trkpt lat="42.276775" lon="3.267302"><ele>136.2</ele><time>2011-04-16T09:18:12Z</time></trkpt>
<trkpt lat="42.276707" lon="3.267385"><ele>136.8</ele><time>2011-04-16T09:18:17Z</time></trkpt>
<trkpt lat="42.276638" lon="3.267473"><ele>137.3</ele><time>2011-04-16T09:18:22Z</time></trkpt>
<trkpt lat="42.276565" lon="3.267560"><ele>137.7</ele><time>2011-04-16T09:18:27Z</time></trkpt>
<trkpt lat="42.276493" lon="3.267632"><ele>138.7</ele><time>2011-04-16T09:18:32Z</time></trkpt>
<trkpt lat="42.276413" lon="3.267595"><ele>139.6</ele><time>2011-04-16T09:18:37Z</time></trkpt>
<trkpt lat="42.276393" lon="3.267475"><ele>140.3</ele><time>2011-04-16T09:18:42Z</time></trkpt>
<trkpt lat="42.276425" lon="3.267355"><ele>141.1</ele><time>2011-04-16T09:18:47Z</time></trkpt>
<trkpt lat="42.276443" lon="3.267235"><ele>142.1</ele><time>2011-04-16T09:18:52Z</time></trkpt>
<trkpt lat="42.276425" lon="3.267115"><ele>143</ele><time>2011-04-16T09:18:57Z</time></trkpt>
<trkpt lat="42.276408" lon="3.266995"><ele>143.9</ele><time>2011-04-16T09:19:02Z</time></trkpt>
<trkpt lat="42.276405" lon="3.266872"><ele>144.8</ele><time>2011-04-16T09:19:07Z</time></trkpt>
<trkpt lat="42.276393" lon="3.266753"><ele>145.9</ele><time>2011-04-16T09:19:12Z</time></trkpt>
<trkpt lat="42.276355" lon="3.266652"><ele>146.7</ele><time>2011-04-16T09:19:17Z</time></trkpt>
<trkpt lat="42.276302" lon="3.266558"><ele>147.6</ele><time>2011-04-16T09:19:22Z</time></trkpt>
<trkpt lat="42.276245" lon="3.266472"><ele>148.3</ele><time>2011-04-16T09:19:27Z</time></trkpt>
<trkpt lat="42.276180" lon="3.266398"><ele>149.1</ele><time>2011-04-16T09:19:32Z</time></trkpt>
<trkpt lat="42.276100" lon="3.266368"><ele>149.9</ele><time>2011-04-16T09:19:37Z</time></trkpt>
<trkpt lat="42.276020" lon="3.266410"><ele>150.9</ele><time>2011-04-16T09:19:42Z</time></trkpt>
<trkpt lat="42.276002" lon="3.266532"><ele>151.7</ele><time>2011-04-16T09:19:47Z</time></trkpt>
<trkpt lat="42.276020" lon="3.266653"><ele>152.2</ele><time>2011-04-16T09:19:52Z</time></trkpt>
<trkpt lat="42.276035" lon="3.266773"><ele>152.7</ele><time>2011-04-16T09:19:57Z</time></trkpt>
<trkpt lat="42.276028" lon="3.266892"><ele>153.5</ele><time>2011-04-16T09:20:02Z</time></trkpt>
<trkpt lat="42.275978" lon="3.266992"><ele>154.2</ele><time>2011-04-16T09:20:07Z</time></trkpt>
<trkpt lat="42.275905" lon="3.267048"><ele>155.2</ele><time>2011-04-16T09:20:12Z</time></trkpt>
<trkpt lat="42.275822" lon="3.267068"><ele>156</ele><time>2011-04-16T09:20:17Z</time></trkpt>
<trkpt lat="42.275738" lon="3.267067"><ele>156.7</ele><time>2011-04-16T09:20:22Z</time></trkpt>
<trkpt lat="42.275650" lon="3.267087"><ele>157.4</ele><time>2011-04-16T09:20:27Z</time></trkpt>
<trkpt lat="42.275593" lon="3.267170"><ele>157.9</ele><time>2011-04-16T09:20:32Z</time></trkpt>
<trkpt lat="42.275528" lon="3.267245"><ele>158.8</ele><time>2011-04-16T09:20:37Z</time></trkpt>
<trkpt lat="42.275452" lon="3.267312"><ele>159.3</ele><time>2011-04-16T09:20:42Z</time></trkpt>
<trkpt lat="42.275390" lon="3.267390"><ele>160</ele><time>2011-04-16T09:20:47Z</time></trkpt>
<trkpt lat="42.275330" lon="3.267467"><ele>160.6</ele><time>2011-04-16T09:20:52Z</time></trkpt>
<trkpt lat="42.275272" lon="3.267550"><ele>161.3</ele><time>2011-04-16T09:20:57Z</time></trkpt>
<trkpt lat="42.275212" lon="3.267628"><ele>162</ele><time>2011-04-16T09:21:02Z</time></trkpt>
<trkpt lat="42.275127" lon="3.267668"><ele>162.9</ele><time>2011-04-16T09:21:07Z</time></trkpt>
<trkpt lat="42.275052" lon="3.267640"><ele>163.8</ele><time>2011-04-16T09:21:12Z</time></trkpt>
<trkpt lat="42.274990" lon="3.267560"><ele>164.6</ele><time>2011-04-16T09:21:17Z</time></trkpt>
<trkpt lat="42.274963" lon="3.267453"><ele>165.3</ele><time>2011-04-16T09:21:22Z</time></trkpt>
<trkpt lat="42.274963" lon="3.267333"><ele>166.4</ele><time>2011-04-16T09:21:27Z</time></trkpt>
<trkpt lat="42.275017" lon="3.267220"><ele>166.7</ele><time>2011-04-16T09:21:32Z</time></trkpt>
<trkpt lat="42.275058" lon="3.267115"><ele>167.6</ele><time>2011-04-16T09:21:37Z</time></trkpt>
<trkpt lat="42.275090" lon="3.267012"><ele>168.5</ele><time>2011-04-16T09:21:42Z</time></trkpt>
<trkpt lat="42.275112" lon="3.266903"><ele>169.6</ele><time>2011-04-16T09:21:47Z</time></trkpt>
<trkpt lat="42.275135" lon="3.266803"><ele>170.6</ele><time>2011-04-16T09:21:52Z</time></trkpt>
<trkpt lat="42.275153" lon="3.266702"><ele>171.6</ele><time>2011-04-16T09:21:57Z</time></trkpt>
<trkpt lat="42.275135" lon="3.266597"><ele>172.4</ele><time>2011-04-16T09:22:02Z</time></trkpt>
<trkpt lat="42.275082" lon="3.266517"><ele>173.1</ele><time>2011-04-16T09:22:07Z</time></trkpt>
<trkpt lat="42.275008" lon="3.266497"><ele>173.6</ele><time>2011-04-16T09:22:12Z</time></trkpt>
<trkpt lat="42.274928" lon="3.266458"><ele>174.7</ele><time>2011-04-16T09:22:17Z</time></trkpt>
<trkpt lat="42.274853" lon="3.266413"><ele>175.9</ele><time>2011-04-16T09:22:22Z</time></trkpt>
<trkpt lat="42.274783" lon="3.266360"><ele>176.9</ele><time>2011-04-16T09:22:27Z</time></trkpt>
<trkpt lat="42.274708" lon="3.266317"><ele>177.8</ele><time>2011-04-16T09:22:32Z</time></trkpt>
<trkpt lat="42.274620" lon="3.266282"><ele>178.1</ele><time>2011-04-16T09:22:37Z</time></trkpt>
<trkpt lat="42.274540" lon="3.266238"><ele>178.6</ele><time>2011-04-16T09:22:42Z</time></trkpt>
<trkpt lat="42.274460" lon="3.266190"><ele>179.1</ele><time>2011-04-16T09:22:47Z</time></trkpt>
<trkpt lat="42.274377" lon="3.266153"><ele>179.8</ele><time>2011-04-16T09:22:52Z</time></trkpt>
<trkpt lat="42.274300" lon="3.266095"><ele>180.4</ele><time>2011-04-16T09:22:57Z</time></trkpt>
<trkpt lat="42.274242" lon="3.266003"><ele>181.2</ele><time>2011-04-16T09:23:02Z</time></trkpt>
<trkpt lat="42.274197" lon="3.265875"><ele>181.5</ele><time>2011-04-16T09:23:07Z</time></trkpt>
<trkpt lat="42.274113" lon="3.265830"><ele>182.3</ele><time>2011-04-16T09:23:12Z</time></trkpt>
<trkpt lat="42.274022" lon="3.265903"><ele>183</ele><time>2011-04-16T09:23:17Z</time></trkpt>
<trkpt lat="42.273937" lon="3.266030"><ele>183.1</ele><time>2011-04-16T09:23:22Z</time></trkpt>
<trkpt lat="42.273818" lon="3.266138"><ele>183</ele><time>2011-04-16T09:23:27Z</time></trkpt>
<trkpt lat="42.273690" lon="3.266185"><ele>182.9</ele><time>2011-04-16T09:23:32Z</time></trkpt>
<trkpt lat="42.273533" lon="3.266157"><ele>182.7</ele><time>2011-04-16T09:23:37Z</time></trkpt>
<trkpt lat="42.273395" lon="3.266022"><ele>182.7</ele><time>2011-04-16T09:23:42Z</time></trkpt>
<trkpt lat="42.273267" lon="3.265870"><ele>183.1</ele><time>2011-04-16T09:23:47Z</time></trkpt>
<trkpt lat="42.273132" lon="3.265758"><ele>184</ele><time>2011-04-16T09:23:52Z</time></trkpt>
<trkpt lat="42.272992" lon="3.265678"><ele>185</ele><time>2011-04-16T09:23:57Z</time></trkpt>
<trkpt lat="42.272900" lon="3.265493"><ele>185.7</ele><time>2011-04-16T09:24:02Z</time></trkpt>
<trkpt lat="42.272808" lon="3.265338"><ele>185.6</ele><time>2011-04-16T09:24:07Z</time></trkpt>
<trkpt lat="42.272678" lon="3.265328"><ele>185.3</ele><time>2011-04-16T09:24:12Z</time></trkpt>
<trkpt lat="42.272640" lon="3.265535"><ele>185.2</ele><time>2011-04-16T09:24:17Z</time></trkpt>
<trkpt lat="42.272643" lon="3.265730"><ele>186</ele><time>2011-04-16T09:24:22Z</time></trkpt>
<trkpt lat="42.272607" lon="3.265893"><ele>186.8</ele><time>2011-04-16T09:24:27Z</time></trkpt>
<trkpt lat="42.272537" lon="3.266040"><ele>187.4</ele><time>2011-04-16T09:24:32Z</time></trkpt>
<trkpt lat="42.272503" lon="3.266213"><ele>187.9</ele><time>2011-04-16T09:24:37Z</time></trkpt>
<trkpt lat="42.272483" lon="3.266410"><ele>188</ele><time>2011-04-16T09:24:42Z</time></trkpt>
<trkpt lat="42.272462" lon="3.266592"><ele>188.6</ele><time>2011-04-16T09:24:47Z</time></trkpt>
<trkpt lat="42.272423" lon="3.266758"><ele>189.5</ele><time>2011-04-16T09:24:52Z</time></trkpt>
<trkpt lat="42.272347" lon="3.266888"><ele>190.4</ele><time>2011-04-16T09:24:57Z</time></trkpt>
<trkpt lat="42.272232" lon="3.266968"><ele>191.2</ele><time>2011-04-16T09:25:02Z</time></trkpt>
<trkpt lat="42.272110" lon="3.267045"><ele>191.7</ele><time>2011-04-16T09:25:07Z</time></trkpt>
<trkpt lat="42.271992" lon="3.267125"><ele>192.5</ele><time>2011-04-16T09:25:12Z</time></trkpt>
<trkpt lat="42.271882" lon="3.267238"><ele>192.8</ele><time>2011-04-16T09:25:17Z</time></trkpt>
<trkpt lat="42.271805" lon="3.267412"><ele>192.9</ele><time>2011-04-16T09:25:22Z</time></trkpt>
<trkpt lat="42.271710" lon="3.267562"><ele>193.1</ele><time>2011-04-16T09:25:27Z</time></trkpt>
<trkpt lat="42.271603" lon="3.267687"><ele>193.7</ele><time>2011-04-16T09:25:32Z</time></trkpt>
<trkpt lat="42.271492" lon="3.267772"><ele>194.4</ele><time>2011-04-16T09:25:37Z</time></trkpt>
<trkpt lat="42.271370" lon="3.267862"><ele>195.3</ele><time>2011-04-16T09:25:42Z</time></trkpt>
<trkpt lat="42.271248" lon="3.267942"><ele>196.2</ele><time>2011-04-16T09:25:47Z</time></trkpt>
<trkpt lat="42.271133" lon="3.268013"><ele>197.1</ele><time>2011-04-16T09:25:52Z</time></trkpt>
<trkpt lat="42.270992" lon="3.268055"><ele>197.4</ele><time>2011-04-16T09:25:57Z</time></trkpt>
<trkpt lat="42.270837" lon="3.268102"><ele>197.8</ele><time>2011-04-16T09:26:02Z</time></trkpt>
<trkpt lat="42.270680" lon="3.268147"><ele>197.9</ele><time>2011-04-16T09:26:07Z</time></trkpt>
<trkpt lat="42.270538" lon="3.268197"><ele>198.2</ele><time>2011-04-16T09:26:12Z</time></trkpt>
<trkpt lat="42.270405" lon="3.268265"><ele>198.6</ele><time>2011-04-16T09:26:17Z</time></trkpt>
<trkpt lat="42.270272" lon="3.268335"><ele>198.9</ele><time>2011-04-16T09:26:22Z</time></trkpt>
<trkpt lat="42.270112" lon="3.268372"><ele>198.9</ele><time>2011-04-16T09:26:27Z</time></trkpt>
<trkpt lat="42.269973" lon="3.268297"><ele>199</ele><time>2011-04-16T09:26:32Z</time></trkpt>
<trkpt lat="42.269970" lon="3.268085"><ele>198.6</ele><time>2011-04-16T09:26:37Z</time></trkpt>
<trkpt lat="42.270058" lon="3.267888"><ele>198.2</ele><time>2011-04-16T09:26:42Z</time></trkpt>
<trkpt lat="42.270027" lon="3.267687"><ele>198.2</ele><time>2011-04-16T09:26:47Z</time></trkpt>
<trkpt lat="42.269902" lon="3.267607"><ele>199.2</ele><time>2011-04-16T09:26:52Z</time></trkpt>
<trkpt lat="42.269775" lon="3.267580"><ele>200.1</ele><time>2011-04-16T09:26:57Z</time></trkpt>
<trkpt lat="42.269642" lon="3.267580"><ele>201</ele><time>2011-04-16T09:27:02Z</time></trkpt>
<trkpt lat="42.269508" lon="3.267595"><ele>202.2</ele><time>2011-04-16T09:27:07Z</time></trkpt>
<trkpt lat="42.269382" lon="3.267620"><ele>203.3</ele><time>2011-04-16T09:27:12Z</time></trkpt>
<trkpt lat="42.269268" lon="3.267648"><ele>204.3</ele><time>2011-04-16T09:27:17Z</time></trkpt>
<trkpt lat="42.269150" lon="3.267687"><ele>205.3</ele><time>2011-04-16T09:27:22Z</time></trkpt>
<trkpt lat="42.269043" lon="3.267725"><ele>206.3</ele><time>2011-04-16T09:27:27Z</time></trkpt>
<trkpt lat="42.268943" lon="3.267763"><ele>207.2</ele><time>2011-04-16T09:27:32Z</time></trkpt>
<trkpt lat="42.268857" lon="3.267802"><ele>208.1</ele><time>2011-04-16T09:27:37Z</time></trkpt>
<trkpt lat="42.268780" lon="3.267828"><ele>209</ele><time>2011-04-16T09:27:42Z</time></trkpt>
<trkpt lat="42.268700" lon="3.267830"><ele>209.8</ele><time>2011-04-16T09:27:47Z</time></trkpt>
<trkpt lat="42.268605" lon="3.267805"><ele>209.9</ele><time>2011-04-16T09:27:52Z</time></trkpt>
<trkpt lat="42.268528" lon="3.267787"><ele>210.8</ele><time>2011-04-16T09:27:57Z</time></trkpt>
<trkpt lat="42.268448" lon="3.267772"><ele>211.5</ele><time>2011-04-16T09:28:02Z</time></trkpt>
<trkpt lat="42.268375" lon="3.267743"><ele>212.3</ele><time>2011-04-16T09:28:07Z</time></trkpt>
<trkpt lat="42.268322" lon="3.267673"><ele>212.8</ele><time>2011-04-16T09:28:12Z</time></trkpt>
<trkpt lat="42.268315" lon="3.267565"><ele>213.2</ele><time>2011-04-16T09:28:17Z</time></trkpt>
<trkpt lat="42.268348" lon="3.267467"><ele>214</ele><time>2011-04-16T09:28:22Z</time></trkpt>
<trkpt lat="42.268375" lon="3.267367"><ele>214.9</ele><time>2011-04-16T09:28:27Z</time></trkpt>
<trkpt lat="42.268410" lon="3.267265"><ele>215.7</ele><time>2011-04-16T09:28:32Z</time></trkpt>
<trkpt lat="42.268443" lon="3.267157"><ele>216.6</ele><time>2011-04-16T09:28:37Z</time></trkpt>
<trkpt lat="42.268482" lon="3.267048"><ele>217.5</ele><time>2011-04-16T09:28:42Z</time></trkpt>
<trkpt lat="42.268520" lon="3.266942"><ele>218.5</ele><time>2011-04-16T09:28:47Z</time></trkpt>
<trkpt lat="42.268555" lon="3.266832"><ele>219.5</ele><time>2011-04-16T09:28:52Z</time></trkpt>
<trkpt lat="42.268588" lon="3.266718"><ele>220.5</ele><time>2011-04-16T09:28:57Z</time></trkpt>
<trkpt lat="42.268627" lon="3.266600"><ele>221.4</ele><time>2011-04-16T09:29:02Z</time></trkpt>
<trkpt lat="42.268665" lon="3.266475"><ele>222.3</ele><time>2011-04-16T09:29:07Z</time></trkpt>
<trkpt lat="42.268712" lon="3.266347"><ele>223.1</ele><time>2011-04-16T09:29:12Z</time></trkpt>
<trkpt lat="42.268783" lon="3.266205"><ele>223.5</ele><time>2011-04-16T09:29:17Z</time></trkpt>
<trkpt lat="42.268845" lon="3.266022"><ele>223.1</ele><time>2011-04-16T09:29:22Z</time></trkpt>
<trkpt lat="42.268765" lon="3.265808"><ele>222.6</ele><time>2011-04-16T09:29:27Z</time></trkpt>
<trkpt lat="42.268570" lon="3.265800"><ele>222.2</ele><time>2011-04-16T09:29:32Z</time></trkpt>
<trkpt lat="42.268372" lon="3.265847"><ele>222.6</ele><time>2011-04-16T09:29:37Z</time></trkpt>
<trkpt lat="42.268218" lon="3.265783"><ele>223.3</ele><time>2011-04-16T09:29:42Z</time></trkpt>
<trkpt lat="42.268117" lon="3.265577"><ele>223.1</ele><time>2011-04-16T09:29:47Z</time></trkpt>
<trkpt lat="42.268082" lon="3.265300"><ele>222.2</ele><time>2011-04-16T09:29:52Z</time></trkpt>
<trkpt lat="42.268127" lon="3.264998"><ele>221.2</ele><time>2011-04-16T09:29:57Z</time></trkpt>
<trkpt lat="42.268138" lon="3.264692"><ele>220.3</ele><time>2011-04-16T09:30:02Z</time></trkpt>
<trkpt lat="42.268093" lon="3.264403"><ele>219.8</ele><time>2011-04-16T09:30:07Z</time></trkpt>
<trkpt lat="42.268032" lon="3.264157"><ele>219.4</ele><time>2011-04-16T09:30:12Z</time></trkpt>
<trkpt lat="42.267978" lon="3.263902"><ele>219</ele><time>2011-04-16T09:30:17Z</time></trkpt>
<trkpt lat="42.267952" lon="3.263610"><ele>218.3</ele><time>2011-04-16T09:30:22Z</time></trkpt>
<trkpt lat="42.267857" lon="3.263392"><ele>218.3</ele><time>2011-04-16T09:30:27Z</time></trkpt>
<trkpt lat="42.267638" lon="3.263448"><ele>217.8</ele><time>2011-04-16T09:30:32Z</time></trkpt>
<trkpt lat="42.267392" lon="3.263555"><ele>217.1</ele><time>2011-04-16T09:30:37Z</time></trkpt>
<trkpt lat="42.267140" lon="3.263600"><ele>216.4</ele><time>2011-04-16T09:30:42Z</time></trkpt>
<trkpt lat="42.266865" lon="3.263660"><ele>215.5</ele><time>2011-04-16T09:30:47Z</time></trkpt>
<trkpt lat="42.266628" lon="3.263915"><ele>214.6</ele><time>2011-04-16T09:30:52Z</time></trkpt>
<trkpt lat="42.266427" lon="3.264212"><ele>214</ele><time>2011-04-16T09:30:57Z</time></trkpt>
<trkpt lat="42.266262" lon="3.264490"><ele>213.8</ele><time>2011-04-16T09:31:02Z</time></trkpt>
<trkpt lat="42.266078" lon="3.264735"><ele>213.9</ele><time>2011-04-16T09:31:07Z</time></trkpt>
<trkpt lat="42.265868" lon="3.264955"><ele>213.8</ele><time>2011-04-16T09:31:12Z</time></trkpt>
<trkpt lat="42.265660" lon="3.265173"><ele>213.5</ele><time>2011-04-16T09:31:17Z</time></trkpt>
<trkpt lat="42.265438" lon="3.265380"><ele>213.4</ele><time>2011-04-16T09:31:22Z</time></trkpt>
<trkpt lat="42.265198" lon="3.265580"><ele>212.7</ele><time>2011-04-16T09:31:27Z</time></trkpt>
<trkpt lat="42.264930" lon="3.265722"><ele>212.2</ele><time>2011-04-16T09:31:32Z</time></trkpt>
<trkpt lat="42.264672" lon="3.265692"><ele>212.7</ele><time>2011-04-16T09:31:37Z</time></trkpt>
<trkpt lat="42.264553" lon="3.265458"><ele>214.1</ele><time>2011-04-16T09:31:42Z</time></trkpt>
<trkpt lat="42.264512" lon="3.265175"><ele>214.5</ele><time>2011-04-16T09:31:47Z</time></trkpt>
<trkpt lat="42.264420" lon="3.264888"><ele>214.5</ele><time>2011-04-16T09:31:52Z</time></trkpt>
<trkpt lat="42.264302" lon="3.264595"><ele>214.4</ele><time>2011-04-16T09:31:57Z</time></trkpt>
<trkpt lat="42.264210" lon="3.264292"><ele>214.7</ele><time>2011-04-16T09:32:02Z</time></trkpt>
<trkpt lat="42.264083" lon="3.264010"><ele>214.5</ele><time>2011-04-16T09:32:07Z</time></trkpt>
<trkpt lat="42.263837" lon="3.263915"><ele>214.5</ele><time>2011-04-16T09:32:12Z</time></trkpt>
<trkpt lat="42.263615" lon="3.263868"><ele>214.8</ele><time>2011-04-16T09:32:17Z</time></trkpt>
<trkpt lat="42.263527" lon="3.263607"><ele>215.5</ele><time>2011-04-16T09:32:22Z</time></trkpt>
<trkpt lat="42.263515" lon="3.263347"><ele>216.3</ele><time>2011-04-16T09:32:27Z</time></trkpt>
<trkpt lat="42.263520" lon="3.263110"><ele>217.1</ele><time>2011-04-16T09:32:32Z</time></trkpt>
<trkpt lat="42.263535" lon="3.262865"><ele>218</ele><time>2011-04-16T09:32:37Z</time></trkpt>
<trkpt lat="42.263557" lon="3.262610"><ele>218.3</ele><time>2011-04-16T09:32:42Z</time></trkpt>
<trkpt lat="42.263580" lon="3.262343"><ele>219.2</ele><time>2011-04-16T09:32:47Z</time></trkpt>
<trkpt lat="42.263615" lon="3.262082"><ele>220</ele><time>2011-04-16T09:32:52Z</time></trkpt>
<trkpt lat="42.263645" lon="3.261827"><ele>221</ele><time>2011-04-16T09:32:57Z</time></trkpt>
<trkpt lat="42.263648" lon="3.261575"><ele>222.1</ele><time>2011-04-16T09:33:02Z</time></trkpt>
<trkpt lat="42.263642" lon="3.261310"><ele>223</ele><time>2011-04-16T09:33:07Z</time></trkpt>
<trkpt lat="42.263645" lon="3.261052"><ele>223.9</ele><time>2011-04-16T09:33:12Z</time></trkpt>
<trkpt lat="42.263687" lon="3.260793"><ele>224.6</ele><time>2011-04-16T09:33:17Z</time></trkpt>
<trkpt lat="42.263775" lon="3.260528"><ele>224.3</ele><time>2011-04-16T09:33:22Z</time></trkpt>
<trkpt lat="42.263923" lon="3.260302"><ele>223.5</ele><time>2011-04-16T09:33:27Z</time></trkpt>
<trkpt lat="42.264072" lon="3.260078"><ele>222.7</ele><time>2011-04-16T09:33:32Z</time></trkpt>
<trkpt lat="42.264198" lon="3.259918"><ele>222.4</ele><time>2011-04-16T09:33:37Z</time></trkpt>
<trkpt lat="42.264210" lon="3.259900"><ele>222.4</ele><time>2011-04-16T09:33:42Z</time></trkpt>
<trkpt lat="42.264210" lon="3.259907"><ele>222.6</ele><time>2011-04-16T09:33:47Z</time></trkpt>
<trkpt lat="42.264198" lon="3.259917"><ele>222.7</ele><time>2011-04-16T09:33:52Z</time></trkpt>
<trkpt lat="42.264213" lon="3.259912"><ele>222.9</ele><time>2011-04-16T09:33:57Z</time></trkpt>
<trkpt lat="42.264228" lon="3.259917"><ele>223.2</ele><time>2011-04-16T09:34:02Z</time></trkpt>
<trkpt lat="42.264252" lon="3.259883"><ele>223.6</ele><time>2011-04-16T09:34:07Z</time></trkpt>
<trkpt lat="42.264332" lon="3.259782"><ele>223.3</ele><time>2011-04-16T09:34:12Z</time></trkpt>
<trkpt lat="42.264503" lon="3.259667"><ele>222.8</ele><time>2011-04-16T09:34:17Z</time></trkpt>
<trkpt lat="42.264722" lon="3.259580"><ele>222.4</ele><time>2011-04-16T09:34:22Z</time></trkpt>
<trkpt lat="42.264885" lon="3.259413"><ele>221.7</ele><time>2011-04-16T09:34:27Z</time></trkpt>
<trkpt lat="42.265015" lon="3.259187"><ele>221</ele><time>2011-04-16T09:34:32Z</time></trkpt>
<trkpt lat="42.265122" lon="3.258928"><ele>220.6</ele><time>2011-04-16T09:34:37Z</time></trkpt>
<trkpt lat="42.265243" lon="3.258657"><ele>221</ele><time>2011-04-16T09:34:42Z</time></trkpt>
<trkpt lat="42.265338" lon="3.258360"><ele>221.2</ele><time>2011-04-16T09:34:47Z</time></trkpt>
<trkpt lat="42.265338" lon="3.258030"><ele>221.5</ele><time>2011-04-16T09:34:52Z</time></trkpt>
<trkpt lat="42.265335" lon="3.257703"><ele>221.7</ele><time>2011-04-16T09:34:57Z</time></trkpt>
<trkpt lat="42.265353" lon="3.257375"><ele>221.9</ele><time>2011-04-16T09:35:02Z</time></trkpt>
<trkpt lat="42.265388" lon="3.257045"><ele>222.3</ele><time>2011-04-16T09:35:07Z</time></trkpt>
<trkpt lat="42.265453" lon="3.256723"><ele>222.6</ele><time>2011-04-16T09:35:12Z</time></trkpt>
<trkpt lat="42.265548" lon="3.256400"><ele>222.9</ele><time>2011-04-16T09:35:17Z</time></trkpt>
<trkpt lat="42.265640" lon="3.256065"><ele>223.1</ele><time>2011-04-16T09:35:22Z</time></trkpt>
<trkpt lat="42.265732" lon="3.255732"><ele>223.4</ele><time>2011-04-16T09:35:27Z</time></trkpt>
<trkpt lat="42.265865" lon="3.255442"><ele>223.4</ele><time>2011-04-16T09:35:32Z</time></trkpt>
<trkpt lat="42.266110" lon="3.255315"><ele>223</ele><time>2011-04-16T09:35:37Z</time></trkpt>
<trkpt lat="42.266383" lon="3.255207"><ele>222</ele><time>2011-04-16T09:35:42Z</time></trkpt>
<trkpt lat="42.266652" lon="3.255110"><ele>221.4</ele><time>2011-04-16T09:35:47Z</time></trkpt>
<trkpt lat="42.266948" lon="3.255100"><ele>220.5</ele><time>2011-04-16T09:35:52Z</time></trkpt>
<trkpt lat="42.267155" lon="3.254885"><ele>219.3</ele><time>2011-04-16T09:35:57Z</time></trkpt>
<trkpt lat="42.267147" lon="3.254495"><ele>218.4</ele><time>2011-04-16T09:36:02Z</time></trkpt>
<trkpt lat="42.267303" lon="3.254170"><ele>218</ele><time>2011-04-16T09:36:07Z</time></trkpt>
<trkpt lat="42.267543" lon="3.253977"><ele>217.4</ele><time>2011-04-16T09:36:12Z</time></trkpt>
<trkpt lat="42.267815" lon="3.253892"><ele>216.6</ele><time>2011-04-16T09:36:17Z</time></trkpt>
<trkpt lat="42.268047" lon="3.253842"><ele>216.1</ele><time>2011-04-16T09:36:22Z</time></trkpt>
<trkpt lat="42.268203" lon="3.253773"><ele>215.6</ele><time>2011-04-16T09:36:27Z</time></trkpt>
<trkpt lat="42.268158" lon="3.253523"><ele>214.6</ele><time>2011-04-16T09:36:32Z</time></trkpt>
<trkpt lat="42.267990" lon="3.253267"><ele>212.8</ele><time>2011-04-16T09:36:37Z</time></trkpt>
<trkpt lat="42.267818" lon="3.252972"><ele>211.2</ele><time>2011-04-16T09:36:42Z</time></trkpt>
<trkpt lat="42.267830" lon="3.252583"><ele>209.1</ele><time>2011-04-16T09:36:47Z</time></trkpt>
<trkpt lat="42.267948" lon="3.252183"><ele>207.2</ele><time>2011-04-16T09:36:52Z</time></trkpt>
<trkpt lat="42.267982" lon="3.251732"><ele>204.9</ele><time>2011-04-16T09:36:57Z</time></trkpt>
<trkpt lat="42.267800" lon="3.251325"><ele>202.9</ele><time>2011-04-16T09:37:02Z</time></trkpt>
<trkpt lat="42.267582" lon="3.250942"><ele>200.8</ele><time>2011-04-16T09:37:07Z</time></trkpt>
<trkpt lat="42.267315" lon="3.250587"><ele>198</ele><time>2011-04-16T09:37:12Z</time></trkpt>
<trkpt lat="42.267193" lon="3.250160"><ele>195.6</ele><time>2011-04-16T09:37:17Z</time></trkpt>
<trkpt lat="42.267312" lon="3.249700"><ele>193.2</ele><time>2011-04-16T09:37:22Z</time></trkpt>
<trkpt lat="42.267502" lon="3.249337"><ele>191.2</ele><time>2011-04-16T09:37:27Z</time></trkpt>
<trkpt lat="42.267612" lon="3.249212"><ele>190.3</ele><time>2011-04-16T09:37:32Z</time></trkpt>
<trkpt lat="42.267623" lon="3.249200"><ele>190.3</ele><time>2011-04-16T09:37:37Z</time></trkpt>
<trkpt lat="42.267635" lon="3.249190"><ele>190.1</ele><time>2011-04-16T09:37:42Z</time></trkpt>
<trkpt lat="42.267677" lon="3.249167"><ele>190.1</ele><time>2011-04-16T09:37:47Z</time></trkpt>
<trkpt lat="42.267682" lon="3.249175"><ele>190.3</ele><time>2011-04-16T09:37:52Z</time></trkpt>
<trkpt lat="42.267677" lon="3.249177"><ele>190.7</ele><time>2011-04-16T09:37:57Z</time></trkpt>
<trkpt lat="42.267677" lon="3.249178"><ele>191.1</ele><time>2011-04-16T09:38:02Z</time></trkpt>
<trkpt lat="42.267677" lon="3.249180"><ele>191.4</ele><time>2011-04-16T09:38:07Z</time></trkpt>
<trkpt lat="42.267673" lon="3.249182"><ele>191.6</ele><time>2011-04-16T09:38:12Z</time></trkpt>
<trkpt lat="42.267673" lon="3.249183"><ele>191.7</ele><time>2011-04-16T09:38:17Z</time></trkpt>
<trkpt lat="42.267673" lon="3.249183"><ele>191.8</ele><time>2011-04-16T09:38:22Z</time></trkpt>
<trkpt lat="42.267673" lon="3.249185"><ele>191.8</ele><time>2011-04-16T09:38:27Z</time></trkpt>
<trkpt lat="42.267673" lon="3.249187"><ele>191.8</ele><time>2011-04-16T09:38:32Z</time></trkpt>
<trkpt lat="42.267677" lon="3.249177"><ele>191.8</ele><time>2011-04-16T09:38:37Z</time></trkpt>
<trkpt lat="42.267673" lon="3.249187"><ele>192.1</ele><time>2011-04-16T09:38:42Z</time></trkpt>
<trkpt lat="42.267670" lon="3.249187"><ele>192.3</ele><time>2011-04-16T09:38:47Z</time></trkpt>
<trkpt lat="42.267655" lon="3.249183"><ele>192.4</ele><time>2011-04-16T09:38:52Z</time></trkpt>
<trkpt lat="42.267628" lon="3.249207"><ele>192.3</ele><time>2011-04-16T09:38:57Z</time></trkpt>
<trkpt lat="42.267620" lon="3.249223"><ele>192.3</ele><time>2011-04-16T09:39:02Z</time></trkpt>
<trkpt lat="42.267620" lon="3.249228"><ele>192.6</ele><time>2011-04-16T09:39:07Z</time></trkpt>
<trkpt lat="42.267620" lon="3.249232"><ele>192.4</ele><time>2011-04-16T09:39:12Z</time></trkpt>
<trkpt lat="42.267623" lon="3.249228"><ele>192.1</ele><time>2011-04-16T09:39:17Z</time></trkpt>
<trkpt lat="42.267628" lon="3.249230"><ele>191.2</ele><time>2011-04-16T09:39:22Z</time></trkpt>
<trkpt lat="42.267628" lon="3.249235"><ele>190.6</ele><time>2011-04-16T09:39:27Z</time></trkpt>
<trkpt lat="42.267632" lon="3.249242"><ele>189.5</ele><time>2011-04-16T09:39:32Z</time></trkpt>
<trkpt lat="42.267635" lon="3.249243"><ele>188.9</ele><time>2011-04-16T09:39:37Z</time></trkpt>
<trkpt lat="42.267635" lon="3.249243"><ele>188.7</ele><time>2011-04-16T09:39:42Z</time></trkpt>
<trkpt lat="42.267635" lon="3.249243"><ele>188.8</ele><time>2011-04-16T09:39:47Z</time></trkpt>
<trkpt lat="42.267635" lon="3.249238"><ele>190</ele><time>2011-04-16T09:39:52Z</time></trkpt>
<trkpt lat="42.267632" lon="3.249235"><ele>190.7</ele><time>2011-04-16T09:39:57Z</time></trkpt>
<trkpt lat="42.267632" lon="3.249232"><ele>191</ele><time>2011-04-16T09:40:02Z</time></trkpt>
<trkpt lat="42.267632" lon="3.249228"><ele>191.5</ele><time>2011-04-16T09:40:07Z</time></trkpt>
<trkpt lat="42.267628" lon="3.249227"><ele>191.9</ele><time>2011-04-16T09:40:12Z</time></trkpt>
<trkpt lat="42.267628" lon="3.249225"><ele>191.5</ele><time>2011-04-16T09:40:17Z</time></trkpt>
<trkpt lat="42.267628" lon="3.249223"><ele>191.6</ele><time>2011-04-16T09:40:22Z</time></trkpt>
<trkpt lat="42.267623" lon="3.249223"><ele>191.1</ele><time>2011-04-16T09:40:27Z</time></trkpt>
<trkpt lat="42.267623" lon="3.249222"><ele>191.7</ele><time>2011-04-16T09:40:32Z</time></trkpt>
<trkpt lat="42.267620" lon="3.249220"><ele>192.1</ele><time>2011-04-16T09:40:37Z</time></trkpt>
<trkpt lat="42.267620" lon="3.249222"><ele>191.4</ele><time>2011-04-16T09:40:42Z</time></trkpt>
<trkpt lat="42.267623" lon="3.249223"><ele>190.7</ele><time>2011-04-16T09:40:47Z</time></trkpt>
<trkpt lat="42.267623" lon="3.249225"><ele>190.1</ele><time>2011-04-16T09:40:52Z</time></trkpt>
<trkpt lat="42.267623" lon="3.249225"><ele>189.4</ele><time>2011-04-16T09:40:57Z</time></trkpt>
<trkpt lat="42.267623" lon="3.249225"><ele>189.1</ele><time>2011-04-16T09:41:02Z</time></trkpt>
<trkpt lat="42.267623" lon="3.249225"><ele>188.8</ele><time>2011-04-16T09:41:07Z</time></trkpt>
<trkpt lat="42.267623" lon="3.249225"><ele>188.9</ele><time>2011-04-16T09:41:12Z</time></trkpt>
<trkpt lat="42.267620" lon="3.249225"><ele>191.7</ele><time>2011-04-16T09:41:17Z</time></trkpt>
<trkpt lat="42.267632" lon="3.249208"><ele>190.8</ele><time>2011-04-16T09:41:22Z</time></trkpt>
<trkpt lat="42.267643" lon="3.249202"><ele>190.9</ele><time>2011-04-16T09:41:27Z</time></trkpt>
<trkpt lat="42.267638" lon="3.249202"><ele>191.2</ele><time>2011-04-16T09:41:32Z</time></trkpt>
<trkpt lat="42.267632" lon="3.249198"><ele>191.3</ele><time>2011-04-16T09:41:37Z</time></trkpt>
<trkpt lat="42.267623" lon="3.249213"><ele>191.1</ele><time>2011-04-16T09:41:42Z</time></trkpt>
<trkpt lat="42.267623" lon="3.249208"><ele>190.9</ele><time>2011-04-16T09:41:47Z</time></trkpt>
<trkpt lat="42.267623" lon="3.249210"><ele>190.9</ele><time>2011-04-16T09:41:52Z</time></trkpt>
<trkpt lat="42.267620" lon="3.249213"><ele>190.7</ele><time>2011-04-16T09:41:57Z</time></trkpt>
<trkpt lat="42.267620" lon="3.249215"><ele>190.8</ele><time>2011-04-16T09:42:02Z</time></trkpt>
<trkpt lat="42.267620" lon="3.249217"><ele>190.8</ele><time>2011-04-16T09:42:07Z</time></trkpt>
<trkpt lat="42.267620" lon="3.249217"><ele>190.8</ele><time>2011-04-16T09:42:12Z</time></trkpt>
<trkpt lat="42.267623" lon="3.249215"><ele>190.9</ele><time>2011-04-16T09:42:17Z</time></trkpt>
<trkpt lat="42.267602" lon="3.249150"><ele>190.7</ele><time>2011-04-16T09:42:22Z</time></trkpt>
<trkpt lat="42.267495" lon="3.249015"><ele>190.3</ele><time>2011-04-16T09:42:27Z</time></trkpt>
<trkpt lat="42.267265" lon="3.249055"><ele>188.5</ele><time>2011-04-16T09:42:32Z</time></trkpt>
<trkpt lat="42.266972" lon="3.249125"><ele>186.7</ele><time>2011-04-16T09:42:37Z</time></trkpt>
<trkpt lat="42.266682" lon="3.249210"><ele>185</ele><time>2011-04-16T09:42:42Z</time></trkpt>
<trkpt lat="42.266353" lon="3.249202"><ele>182.4</ele><time>2011-04-16T09:42:47Z</time></trkpt>
<trkpt lat="42.265980" lon="3.249285"><ele>179.9</ele><time>2011-04-16T09:42:52Z</time></trkpt>
<trkpt lat="42.265607" lon="3.249417"><ele>177.8</ele><time>2011-04-16T09:42:57Z</time></trkpt>
<trkpt lat="42.265243" lon="3.249480"><ele>175</ele><time>2011-04-16T09:43:02Z</time></trkpt>
<trkpt lat="42.264927" lon="3.249233"><ele>172.4</ele><time>2011-04-16T09:43:07Z</time></trkpt>
<trkpt lat="42.264625" lon="3.248842"><ele>168.5</ele><time>2011-04-16T09:43:12Z</time></trkpt>
<trkpt lat="42.264302" lon="3.248488"><ele>164.2</ele><time>2011-04-16T09:43:17Z</time></trkpt>
<trkpt lat="42.264095" lon="3.248140"><ele>161</ele><time>2011-04-16T09:43:22Z</time></trkpt>
<trkpt lat="42.264153" lon="3.247668"><ele>157.6</ele><time>2011-04-16T09:43:27Z</time></trkpt>
<trkpt lat="42.263923" lon="3.247413"><ele>155</ele><time>2011-04-16T09:43:32Z</time></trkpt>
<trkpt lat="42.263565" lon="3.247345"><ele>152.2</ele><time>2011-04-16T09:43:37Z</time></trkpt>
<trkpt lat="42.263218" lon="3.247107"><ele>148.3</ele><time>2011-04-16T09:43:42Z</time></trkpt>
<trkpt lat="42.262928" lon="3.246833"><ele>144.8</ele><time>2011-04-16T09:43:47Z</time></trkpt>
<trkpt lat="42.262952" lon="3.246377"><ele>142</ele><time>2011-04-16T09:43:52Z</time></trkpt>
<trkpt lat="42.262887" lon="3.245900"><ele>138.7</ele><time>2011-04-16T09:43:57Z</time></trkpt>
<trkpt lat="42.262588" lon="3.245593"><ele>135.3</ele><time>2011-04-16T09:44:02Z</time></trkpt>
<trkpt lat="42.262265" lon="3.245418"><ele>132.4</ele><time>2011-04-16T09:44:07Z</time></trkpt>
<trkpt lat="42.262047" lon="3.245068"><ele>129.2</ele><time>2011-04-16T09:44:12Z</time></trkpt>
<trkpt lat="42.262070" lon="3.244617"><ele>126.4</ele><time>2011-04-16T09:44:17Z</time></trkpt>
<trkpt lat="42.262310" lon="3.244267"><ele>123.6</ele><time>2011-04-16T09:44:22Z</time></trkpt>
<trkpt lat="42.262570" lon="3.243950"><ele>120.9</ele><time>2011-04-16T09:44:27Z</time></trkpt>
<trkpt lat="42.262635" lon="3.243720"><ele>118.5</ele><time>2011-04-16T09:44:32Z</time></trkpt>
<trkpt lat="42.262383" lon="3.243777"><ele>116.7</ele><time>2011-04-16T09:44:37Z</time></trkpt>
<trkpt lat="42.262120" lon="3.244013"><ele>113.9</ele><time>2011-04-16T09:44:42Z</time></trkpt>
<trkpt lat="42.261787" lon="3.244182"><ele>110.1</ele><time>2011-04-16T09:44:47Z</time></trkpt>
<trkpt lat="42.261582" lon="3.244615"><ele>106.9</ele><time>2011-04-16T09:44:52Z</time></trkpt>
<trkpt lat="42.261402" lon="3.245083"><ele>103.2</ele><time>2011-04-16T09:44:57Z</time></trkpt>
<trkpt lat="42.261245" lon="3.245572"><ele>99.7</ele><time>2011-04-16T09:45:02Z</time></trkpt>
<trkpt lat="42.261330" lon="3.246015"><ele>96.1</ele><time>2011-04-16T09:45:07Z</time></trkpt>
<trkpt lat="42.261647" lon="3.246313"><ele>92.4</ele><time>2011-04-16T09:45:12Z</time></trkpt>
<trkpt lat="42.261665" lon="3.246755"><ele>89.5</ele><time>2011-04-16T09:45:17Z</time></trkpt>
<trkpt lat="42.261680" lon="3.247290"><ele>85.6</ele><time>2011-04-16T09:45:22Z</time></trkpt>
<trkpt lat="42.261750" lon="3.247853"><ele>81.6</ele><time>2011-04-16T09:45:27Z</time></trkpt>
<trkpt lat="42.261928" lon="3.248293"><ele>78.5</ele><time>2011-04-16T09:45:32Z</time></trkpt>
<trkpt lat="42.261803" lon="3.248587"><ele>76.6</ele><time>2011-04-16T09:45:37Z</time></trkpt>
<trkpt lat="42.261508" lon="3.248630"><ele>75</ele><time>2011-04-16T09:45:42Z</time></trkpt>
<trkpt lat="42.261188" lon="3.248735"><ele>72.9</ele><time>2011-04-16T09:45:47Z</time></trkpt>
<trkpt lat="42.260842" lon="3.248923"><ele>69.5</ele><time>2011-04-16T09:45:52Z</time></trkpt>
<trkpt lat="42.260478" lon="3.249128"><ele>67</ele><time>2011-04-16T09:45:57Z</time></trkpt>
<trkpt lat="42.260200" lon="3.249318"><ele>64.5</ele><time>2011-04-16T09:46:02Z</time></trkpt>
<trkpt lat="42.260078" lon="3.249318"><ele>63.1</ele><time>2011-04-16T09:46:07Z</time></trkpt>
<trkpt lat="42.260208" lon="3.249088"><ele>61.1</ele><time>2011-04-16T09:46:12Z</time></trkpt>
<trkpt lat="42.260490" lon="3.248888"><ele>58.4</ele><time>2011-04-16T09:46:17Z</time></trkpt>
<trkpt lat="42.260803" lon="3.248593"><ele>56.2</ele><time>2011-04-16T09:46:22Z</time></trkpt>
<trkpt lat="42.261123" lon="3.248317"><ele>53.8</ele><time>2011-04-16T09:46:27Z</time></trkpt>
<trkpt lat="42.261218" lon="3.247963"><ele>51.9</ele><time>2011-04-16T09:46:32Z</time></trkpt>
<trkpt lat="42.261028" lon="3.247565"><ele>49</ele><time>2011-04-16T09:46:37Z</time></trkpt>
<trkpt lat="42.260880" lon="3.247082"><ele>46.9</ele><time>2011-04-16T09:46:42Z</time></trkpt>
<trkpt lat="42.260563" lon="3.246793"><ele>43.4</ele><time>2011-04-16T09:46:47Z</time></trkpt>
<trkpt lat="42.260318" lon="3.246675"><ele>41.1</ele><time>2011-04-16T09:46:52Z</time></trkpt>
<trkpt lat="42.260300" lon="3.246672"><ele>40.6</ele><time>2011-04-16T09:46:57Z</time></trkpt>
<trkpt lat="42.260297" lon="3.246677"><ele>40.3</ele><time>2011-04-16T09:47:02Z</time></trkpt>
<trkpt lat="42.260280" lon="3.246660"><ele>39.9</ele><time>2011-04-16T09:47:07Z</time></trkpt>
<trkpt lat="42.260253" lon="3.246662"><ele>39.8</ele><time>2011-04-16T09:47:12Z</time></trkpt>
<trkpt lat="42.260235" lon="3.246665"><ele>40</ele><time>2011-04-16T09:47:17Z</time></trkpt>
<trkpt lat="42.260200" lon="3.246670"><ele>39.4</ele><time>2011-04-16T09:47:22Z</time></trkpt>
<trkpt lat="42.260052" lon="3.246587"><ele>37.8</ele><time>2011-04-16T09:47:27Z</time></trkpt>
<trkpt lat="42.259865" lon="3.246285"><ele>34.9</ele><time>2011-04-16T09:47:32Z</time></trkpt>
<trkpt lat="42.259758" lon="3.245882"><ele>34.1</ele><time>2011-04-16T09:47:37Z</time></trkpt>
<trkpt lat="42.259830" lon="3.245588"><ele>35.4</ele><time>2011-04-16T09:47:42Z</time></trkpt>
<trkpt lat="42.259953" lon="3.245417"><ele>36.8</ele><time>2011-04-16T09:47:47Z</time></trkpt>
<trkpt lat="42.260075" lon="3.245288"><ele>37.7</ele><time>2011-04-16T09:47:52Z</time></trkpt>
<trkpt lat="42.260170" lon="3.245177"><ele>38.7</ele><time>2011-04-16T09:47:57Z</time></trkpt>
<trkpt lat="42.260250" lon="3.245045"><ele>39.8</ele><time>2011-04-16T09:48:02Z</time></trkpt>
<trkpt lat="42.260318" lon="3.244905"><ele>40.8</ele><time>2011-04-16T09:48:07Z</time></trkpt>
<trkpt lat="42.260330" lon="3.244740"><ele>41.7</ele><time>2011-04-16T09:48:12Z</time></trkpt>
<trkpt lat="42.260227" lon="3.244653"><ele>42.2</ele><time>2011-04-16T09:48:17Z</time></trkpt>
<trkpt lat="42.260113" lon="3.244737"><ele>42.7</ele><time>2011-04-16T09:48:22Z</time></trkpt>
<trkpt lat="42.260033" lon="3.244883"><ele>43.2</ele><time>2011-04-16T09:48:27Z</time></trkpt>
<trkpt lat="42.259957" lon="3.245037"><ele>43.6</ele><time>2011-04-16T09:48:32Z</time></trkpt>
<trkpt lat="42.259853" lon="3.245187"><ele>43.5</ele><time>2011-04-16T09:48:37Z</time></trkpt>
<trkpt lat="42.259743" lon="3.245317"><ele>44.1</ele><time>2011-04-16T09:48:42Z</time></trkpt>
<trkpt lat="42.259637" lon="3.245442"><ele>44.5</ele><time>2011-04-16T09:48:47Z</time></trkpt>
<trkpt lat="42.259507" lon="3.245542"><ele>44.7</ele><time>2011-04-16T09:48:52Z</time></trkpt>
<trkpt lat="42.259357" lon="3.245572"><ele>44.9</ele><time>2011-04-16T09:48:57Z</time></trkpt>
<trkpt lat="42.259205" lon="3.245538"><ele>45.3</ele><time>2011-04-16T09:49:02Z</time></trkpt>
<trkpt lat="42.259037" lon="3.245472"><ele>45.4</ele><time>2011-04-16T09:49:07Z</time></trkpt>
<trkpt lat="42.258897" lon="3.245487"><ele>46</ele><time>2011-04-16T09:49:12Z</time></trkpt>
<trkpt lat="42.258865" lon="3.245658"><ele>46.9</ele><time>2011-04-16T09:49:17Z</time></trkpt>
<trkpt lat="42.258927" lon="3.245828"><ele>48</ele><time>2011-04-16T09:49:22Z</time></trkpt>
<trkpt lat="42.259018" lon="3.245952"><ele>49.2</ele><time>2011-04-16T09:49:27Z</time></trkpt>
<trkpt lat="42.259068" lon="3.246108"><ele>50.3</ele><time>2011-04-16T09:49:32Z</time></trkpt>
<trkpt lat="42.259098" lon="3.246267"><ele>51.4</ele><time>2011-04-16T09:49:37Z</time></trkpt>
<trkpt lat="42.259122" lon="3.246437"><ele>52</ele><time>2011-04-16T09:49:42Z</time></trkpt>
<trkpt lat="42.259143" lon="3.246633"><ele>53</ele><time>2011-04-16T09:49:47Z</time></trkpt>
<trkpt lat="42.259158" lon="3.246800"><ele>54.1</ele><time>2011-04-16T09:49:52Z</time></trkpt>
<trkpt lat="42.259167" lon="3.246965"><ele>55</ele><time>2011-04-16T09:49:57Z</time></trkpt>
<trkpt lat="42.259170" lon="3.247128"><ele>56</ele><time>2011-04-16T09:50:02Z</time></trkpt>
<trkpt lat="42.259185" lon="3.247280"><ele>57.1</ele><time>2011-04-16T09:50:07Z</time></trkpt>
<trkpt lat="42.259175" lon="3.247413"><ele>58</ele><time>2011-04-16T09:50:12Z</time></trkpt>
<trkpt lat="42.259113" lon="3.247535"><ele>58.8</ele><time>2011-04-16T09:50:17Z</time></trkpt>
<trkpt lat="42.259013" lon="3.247607"><ele>58.8</ele><time>2011-04-16T09:50:22Z</time></trkpt>
<trkpt lat="42.258900" lon="3.247658"><ele>59.7</ele><time>2011-04-16T09:50:27Z</time></trkpt>
<trkpt lat="42.258788" lon="3.247675"><ele>60.6</ele><time>2011-04-16T09:50:32Z</time></trkpt>
<trkpt lat="42.258682" lon="3.247682"><ele>61.5</ele><time>2011-04-16T09:50:37Z</time></trkpt>
<trkpt lat="42.258572" lon="3.247692"><ele>62.4</ele><time>2011-04-16T09:50:42Z</time></trkpt>
<trkpt lat="42.258468" lon="3.247702"><ele>63.3</ele><time>2011-04-16T09:50:47Z</time></trkpt>
<trkpt lat="42.258365" lon="3.247720"><ele>64.2</ele><time>2011-04-16T09:50:52Z</time></trkpt>
<trkpt lat="42.258247" lon="3.247763"><ele>64.5</ele><time>2011-04-16T09:50:57Z</time></trkpt>
<trkpt lat="42.258137" lon="3.247822"><ele>65.3</ele><time>2011-04-16T09:51:02Z</time></trkpt>
<trkpt lat="42.258038" lon="3.247888"><ele>66.2</ele><time>2011-04-16T09:51:07Z</time></trkpt>
<trkpt lat="42.257947" lon="3.247972"><ele>66.9</ele><time>2011-04-16T09:51:12Z</time></trkpt>
<trkpt lat="42.257862" lon="3.248088"><ele>67.3</ele><time>2011-04-16T09:51:17Z</time></trkpt>
<trkpt lat="42.257775" lon="3.248223"><ele>67.5</ele><time>2011-04-16T09:51:22Z</time></trkpt>
<trkpt lat="42.257672" lon="3.248357"><ele>68.1</ele><time>2011-04-16T09:51:27Z</time></trkpt>
<trkpt lat="42.257550" lon="3.248482"><ele>68.2</ele><time>2011-04-16T09:51:32Z</time></trkpt>
<trkpt lat="42.257420" lon="3.248597"><ele>68.6</ele><time>2011-04-16T09:51:37Z</time></trkpt>
<trkpt lat="42.257320" lon="3.248727"><ele>69.4</ele><time>2011-04-16T09:51:42Z</time></trkpt>
<trkpt lat="42.257240" lon="3.248865"><ele>70.3</ele><time>2011-04-16T09:51:47Z</time></trkpt>
<trkpt lat="42.257157" lon="3.248995"><ele>71.6</ele><time>2011-04-16T09:51:52Z</time></trkpt>
<trkpt lat="42.257057" lon="3.249108"><ele>73</ele><time>2011-04-16T09:51:57Z</time></trkpt>
<trkpt lat="42.256955" lon="3.249215"><ele>74.2</ele><time>2011-04-16T09:52:02Z</time></trkpt>
<trkpt lat="42.256832" lon="3.249278"><ele>75</ele><time>2011-04-16T09:52:07Z</time></trkpt>
<trkpt lat="42.256707" lon="3.249267"><ele>75.9</ele><time>2011-04-16T09:52:12Z</time></trkpt>
<trkpt lat="42.256580" lon="3.249185"><ele>76.4</ele><time>2011-04-16T09:52:17Z</time></trkpt>
<trkpt lat="42.256508" lon="3.249093"><ele>77.4</ele><time>2011-04-16T09:52:22Z</time></trkpt>
<trkpt lat="42.256462" lon="3.248965"><ele>78</ele><time>2011-04-16T09:52:27Z</time></trkpt>
<trkpt lat="42.256420" lon="3.248825"><ele>78.7</ele><time>2011-04-16T09:52:32Z</time></trkpt>
<trkpt lat="42.256375" lon="3.248688"><ele>79.4</ele><time>2011-04-16T09:52:37Z</time></trkpt>
<trkpt lat="42.256310" lon="3.248567"><ele>79.7</ele><time>2011-04-16T09:52:42Z</time></trkpt>
<trkpt lat="42.256218" lon="3.248457"><ele>80.4</ele><time>2011-04-16T09:52:47Z</time></trkpt>
<trkpt lat="42.256107" lon="3.248458"><ele>80.9</ele><time>2011-04-16T09:52:52Z</time></trkpt>
<trkpt lat="42.256015" lon="3.248535"><ele>81.8</ele><time>2011-04-16T09:52:57Z</time></trkpt>
<trkpt lat="42.255920" lon="3.248608"><ele>82.9</ele><time>2011-04-16T09:53:02Z</time></trkpt>
<trkpt lat="42.255810" lon="3.248640"><ele>83.8</ele><time>2011-04-16T09:53:07Z</time></trkpt>
<trkpt lat="42.255688" lon="3.248703"><ele>84.3</ele><time>2011-04-16T09:53:12Z</time></trkpt>
<trkpt lat="42.255582" lon="3.248780"><ele>85.7</ele><time>2011-04-16T09:53:17Z</time></trkpt>
<trkpt lat="42.255493" lon="3.248870"><ele>87.1</ele><time>2011-04-16T09:53:22Z</time></trkpt>
<trkpt lat="42.255402" lon="3.248963"><ele>87.9</ele><time>2011-04-16T09:53:27Z</time></trkpt>
<trkpt lat="42.255310" lon="3.249052"><ele>88.9</ele><time>2011-04-16T09:53:32Z</time></trkpt>
<trkpt lat="42.255215" lon="3.249132"><ele>90</ele><time>2011-04-16T09:53:37Z</time></trkpt>
<trkpt lat="42.255120" lon="3.249240"><ele>91</ele><time>2011-04-16T09:53:42Z</time></trkpt>
<trkpt lat="42.255020" lon="3.249308"><ele>92.2</ele><time>2011-04-16T09:53:47Z</time></trkpt>
<trkpt lat="42.254913" lon="3.249355"><ele>93.1</ele><time>2011-04-16T09:53:52Z</time></trkpt>
<trkpt lat="42.254803" lon="3.249378"><ele>94</ele><time>2011-04-16T09:53:57Z</time></trkpt>
<trkpt lat="42.254680" lon="3.249393"><ele>94.9</ele><time>2011-04-16T09:54:02Z</time></trkpt>
<trkpt lat="42.254567" lon="3.249423"><ele>95.7</ele><time>2011-04-16T09:54:07Z</time></trkpt>
<trkpt lat="42.254448" lon="3.249462"><ele>96.5</ele><time>2011-04-16T09:54:12Z</time></trkpt>
<trkpt lat="42.254322" lon="3.249463"><ele>96.9</ele><time>2011-04-16T09:54:17Z</time></trkpt>
<trkpt lat="42.254203" lon="3.249428"><ele>97.8</ele><time>2011-04-16T09:54:22Z</time></trkpt>
<trkpt lat="42.254105" lon="3.249352"><ele>98.7</ele><time>2011-04-16T09:54:27Z</time></trkpt>
<trkpt lat="42.254020" lon="3.249227"><ele>99.4</ele><time>2011-04-16T09:54:32Z</time></trkpt>
<trkpt lat="42.253928" lon="3.249093"><ele>99.7</ele><time>2011-04-16T09:54:37Z</time></trkpt>
<trkpt lat="42.253842" lon="3.248945"><ele>99.2</ele><time>2011-04-16T09:54:42Z</time></trkpt>
<trkpt lat="42.253703" lon="3.248895"><ele>99</ele><time>2011-04-16T09:54:47Z</time></trkpt>
<trkpt lat="42.253640" lon="3.249030"><ele>100.5</ele><time>2011-04-16T09:54:52Z</time></trkpt>
<trkpt lat="42.253582" lon="3.249165"><ele>101.6</ele><time>2011-04-16T09:54:57Z</time></trkpt>
<trkpt lat="42.253463" lon="3.249173"><ele>102.7</ele><time>2011-04-16T09:55:02Z</time></trkpt>
<trkpt lat="42.253330" lon="3.249152"><ele>103.9</ele><time>2011-04-16T09:55:07Z</time></trkpt>
<trkpt lat="42.253197" lon="3.249197"><ele>104.5</ele><time>2011-04-16T09:55:12Z</time></trkpt>
<trkpt lat="42.253067" lon="3.249303"><ele>105.3</ele><time>2011-04-16T09:55:17Z</time></trkpt>
<trkpt lat="42.252907" lon="3.249358"><ele>105.4</ele><time>2011-04-16T09:55:22Z</time></trkpt>
<trkpt lat="42.252723" lon="3.249317"><ele>104.4</ele><time>2011-04-16T09:55:27Z</time></trkpt>
<trkpt lat="42.252518" lon="3.249498"><ele>101.9</ele><time>2011-04-16T09:55:32Z</time></trkpt>
<trkpt lat="42.252492" lon="3.249828"><ele>102.1</ele><time>2011-04-16T09:55:37Z</time></trkpt>
<trkpt lat="42.252403" lon="3.250015"><ele>103.1</ele><time>2011-04-16T09:55:42Z</time></trkpt>
<trkpt lat="42.252270" lon="3.250102"><ele>104.8</ele><time>2011-04-16T09:55:47Z</time></trkpt>
<trkpt lat="42.252140" lon="3.250187"><ele>105.9</ele><time>2011-04-16T09:55:52Z</time></trkpt>
<trkpt lat="42.252052" lon="3.250348"><ele>107.1</ele><time>2011-04-16T09:55:57Z</time></trkpt>
<trkpt lat="42.252048" lon="3.250535"><ele>108.7</ele><time>2011-04-16T09:56:02Z</time></trkpt>
<trkpt lat="42.252063" lon="3.250737"><ele>109.8</ele><time>2011-04-16T09:56:07Z</time></trkpt>
<trkpt lat="42.252140" lon="3.250902"><ele>111.3</ele><time>2011-04-16T09:56:12Z</time></trkpt>
<trkpt lat="42.252155" lon="3.251030"><ele>112.1</ele><time>2011-04-16T09:56:17Z</time></trkpt>
<trkpt lat="42.252197" lon="3.251115"><ele>111.8</ele><time>2011-04-16T09:56:22Z</time></trkpt>
<trkpt lat="42.252202" lon="3.251113"><ele>111.6</ele><time>2011-04-16T09:56:27Z</time></trkpt>
<trkpt lat="42.252202" lon="3.251113"><ele>111.6</ele><time>2011-04-16T09:56:32Z</time></trkpt>
<trkpt lat="42.252202" lon="3.251112"><ele>111.5</ele><time>2011-04-16T09:56:37Z</time></trkpt>
<trkpt lat="42.252202" lon="3.251113"><ele>111.3</ele><time>2011-04-16T09:56:42Z</time></trkpt>
<trkpt lat="42.252202" lon="3.251115"><ele>111.2</ele><time>2011-04-16T09:56:47Z</time></trkpt>
<trkpt lat="42.252202" lon="3.251117"><ele>111.2</ele><time>2011-04-16T09:56:52Z</time></trkpt>
<trkpt lat="42.252202" lon="3.251115"><ele>111.1</ele><time>2011-04-16T09:56:57Z</time></trkpt>
<trkpt lat="42.252202" lon="3.251115"><ele>111</ele><time>2011-04-16T09:57:02Z</time></trkpt>
<trkpt lat="42.252205" lon="3.251110"><ele>110.8</ele><time>2011-04-16T09:57:07Z</time></trkpt>
<trkpt lat="42.252217" lon="3.251080"><ele>110.6</ele><time>2011-04-16T09:57:12Z</time></trkpt>
<trkpt lat="42.252175" lon="3.250972"><ele>110.9</ele><time>2011-04-16T09:57:17Z</time></trkpt>
<trkpt lat="42.252095" lon="3.250765"><ele>109.2</ele><time>2011-04-16T09:57:22Z</time></trkpt>
<trkpt lat="42.252068" lon="3.250468"><ele>108</ele><time>2011-04-16T09:57:27Z</time></trkpt>
<trkpt lat="42.252148" lon="3.250177"><ele>105.6</ele><time>2011-04-16T09:57:32Z</time></trkpt>
<trkpt lat="42.252400" lon="3.250003"><ele>103.2</ele><time>2011-04-16T09:57:37Z</time></trkpt>
<trkpt lat="42.252513" lon="3.249687"><ele>102</ele><time>2011-04-16T09:57:42Z</time></trkpt>
<trkpt lat="42.252575" lon="3.249380"><ele>102</ele><time>2011-04-16T09:57:47Z</time></trkpt>
<trkpt lat="42.252697" lon="3.249292"><ele>103.5</ele><time>2011-04-16T09:57:52Z</time></trkpt>
<trkpt lat="42.252823" lon="3.249322"><ele>105.1</ele><time>2011-04-16T09:57:57Z</time></trkpt>
<trkpt lat="42.252968" lon="3.249343"><ele>105.5</ele><time>2011-04-16T09:58:02Z</time></trkpt>
<trkpt lat="42.253117" lon="3.249267"><ele>105.3</ele><time>2011-04-16T09:58:07Z</time></trkpt>
<trkpt lat="42.253285" lon="3.249155"><ele>104.6</ele><time>2011-04-16T09:58:12Z</time></trkpt>
<trkpt lat="42.253498" lon="3.249175"><ele>103.2</ele><time>2011-04-16T09:58:17Z</time></trkpt>
<trkpt lat="42.253727" lon="3.249090"><ele>102.2</ele><time>2011-04-16T09:58:22Z</time></trkpt>
<trkpt lat="42.253703" lon="3.248763"><ele>99.5</ele><time>2011-04-16T09:58:27Z</time></trkpt>
<trkpt lat="42.253517" lon="3.248472"><ele>98.1</ele><time>2011-04-16T09:58:32Z</time></trkpt>
<trkpt lat="42.253365" lon="3.248193"><ele>97.1</ele><time>2011-04-16T09:58:37Z</time></trkpt>
<trkpt lat="42.253395" lon="3.247860"><ele>96.1</ele><time>2011-04-16T09:58:42Z</time></trkpt>
<trkpt lat="42.253212" lon="3.247737"><ele>95.3</ele><time>2011-04-16T09:58:47Z</time></trkpt>
<trkpt lat="42.253025" lon="3.247853"><ele>94.6</ele><time>2011-04-16T09:58:52Z</time></trkpt>
<trkpt lat="42.253017" lon="3.247862"><ele>94.4</ele><time>2011-04-16T09:58:57Z</time></trkpt>
<trkpt lat="42.253017" lon="3.247863"><ele>94.5</ele><time>2011-04-16T09:59:02Z</time></trkpt>
<trkpt lat="42.252937" lon="3.247888"><ele>94.4</ele><time>2011-04-16T09:59:07Z</time></trkpt>
<trkpt lat="42.252728" lon="3.247885"><ele>93.5</ele><time>2011-04-16T09:59:12Z</time></trkpt>
<trkpt lat="42.252528" lon="3.247688"><ele>92.5</ele><time>2011-04-16T09:59:17Z</time></trkpt>
<trkpt lat="42.252545" lon="3.247372"><ele>92.1</ele><time>2011-04-16T09:59:22Z</time></trkpt>
<trkpt lat="42.252647" lon="3.247128"><ele>92.4</ele><time>2011-04-16T09:59:27Z</time></trkpt>
<trkpt lat="42.252498" lon="3.247018"><ele>92.3</ele><time>2011-04-16T09:59:32Z</time></trkpt>
<trkpt lat="42.252315" lon="3.247243"><ele>91.5</ele><time>2011-04-16T09:59:37Z</time></trkpt>
<trkpt lat="42.252063" lon="3.247440"><ele>90</ele><time>2011-04-16T09:59:42Z</time></trkpt>
<trkpt lat="42.251797" lon="3.247627"><ele>88.8</ele><time>2011-04-16T09:59:47Z</time></trkpt>
<trkpt lat="42.251492" lon="3.247648"><ele>87.1</ele><time>2011-04-16T09:59:52Z</time></trkpt>
<trkpt lat="42.251172" lon="3.247645"><ele>85.5</ele><time>2011-04-16T09:59:57Z</time></trkpt>
<trkpt lat="42.250867" lon="3.247740"><ele>84.2</ele><time>2011-04-16T10:00:02Z</time></trkpt>
<trkpt lat="42.250553" lon="3.247797"><ele>82.5</ele><time>2011-04-16T10:00:07Z</time></trkpt>
<trkpt lat="42.250335" lon="3.248107"><ele>80.7</ele><time>2011-04-16T10:00:12Z</time></trkpt>
<trkpt lat="42.250168" lon="3.248402"><ele>79.2</ele><time>2011-04-16T10:00:17Z</time></trkpt>
<trkpt lat="42.249905" lon="3.248532"><ele>77.5</ele><time>2011-04-16T10:00:22Z</time></trkpt>
<trkpt lat="42.249607" lon="3.248588"><ele>75.7</ele><time>2011-04-16T10:00:27Z</time></trkpt>
<trkpt lat="42.249370" lon="3.248833"><ele>73.9</ele><time>2011-04-16T10:00:32Z</time></trkpt>
<trkpt lat="42.249268" lon="3.249242"><ele>72.1</ele><time>2011-04-16T10:00:37Z</time></trkpt>
<trkpt lat="42.249000" lon="3.249485"><ele>70.5</ele><time>2011-04-16T10:00:42Z</time></trkpt>
<trkpt lat="42.248748" lon="3.249522"><ele>68.7</ele><time>2011-04-16T10:00:47Z</time></trkpt>
<trkpt lat="42.248547" lon="3.249243"><ele>67.3</ele><time>2011-04-16T10:00:52Z</time></trkpt>
<trkpt lat="42.248390" lon="3.248877"><ele>65.6</ele><time>2011-04-16T10:00:57Z</time></trkpt>
<trkpt lat="42.248313" lon="3.248432"><ele>63.7</ele><time>2011-04-16T10:01:02Z</time></trkpt>
<trkpt lat="42.248257" lon="3.247963"><ele>61.9</ele><time>2011-04-16T10:01:07Z</time></trkpt>
<trkpt lat="42.248195" lon="3.247542"><ele>59.8</ele><time>2011-04-16T10:01:12Z</time></trkpt>
<trkpt lat="42.247883" lon="3.247493"><ele>58</ele><time>2011-04-16T10:01:17Z</time></trkpt>
<trkpt lat="42.247745" lon="3.247327"><ele>56.3</ele><time>2011-04-16T10:01:22Z</time></trkpt>
<trkpt lat="42.247852" lon="3.246968"><ele>54.9</ele><time>2011-04-16T10:01:27Z</time></trkpt>
<trkpt lat="42.248032" lon="3.246628"><ele>53.2</ele><time>2011-04-16T10:01:32Z</time></trkpt>
<trkpt lat="42.248280" lon="3.246337"><ele>51.8</ele><time>2011-04-16T10:01:37Z</time></trkpt>
<trkpt lat="42.248588" lon="3.246210"><ele>50.2</ele><time>2011-04-16T10:01:42Z</time></trkpt>
<trkpt lat="42.248917" lon="3.246368"><ele>48.2</ele><time>2011-04-16T10:01:47Z</time></trkpt>
<trkpt lat="42.249252" lon="3.246450"><ele>46.9</ele><time>2011-04-16T10:01:52Z</time></trkpt>
<trkpt lat="42.249527" lon="3.246167"><ele>45.4</ele><time>2011-04-16T10:01:57Z</time></trkpt>
<trkpt lat="42.249810" lon="3.245840"><ele>43.5</ele><time>2011-04-16T10:02:02Z</time></trkpt>
<trkpt lat="42.250127" lon="3.245582"><ele>41.6</ele><time>2011-04-16T10:02:07Z</time></trkpt>
<trkpt lat="42.250477" lon="3.245462"><ele>39.9</ele><time>2011-04-16T10:02:12Z</time></trkpt>
<trkpt lat="42.250817" lon="3.245465"><ele>38.4</ele><time>2011-04-16T10:02:17Z</time></trkpt>
<trkpt lat="42.251092" lon="3.245275"><ele>37</ele><time>2011-04-16T10:02:22Z</time></trkpt>
<trkpt lat="42.251057" lon="3.244837"><ele>35</ele><time>2011-04-16T10:02:27Z</time></trkpt>
<trkpt lat="42.251030" lon="3.244430"><ele>33</ele><time>2011-04-16T10:02:32Z</time></trkpt>
<trkpt lat="42.251228" lon="3.244102"><ele>31.4</ele><time>2011-04-16T10:02:37Z</time></trkpt>
<trkpt lat="42.251483" lon="3.243835"><ele>29.7</ele><time>2011-04-16T10:02:42Z</time></trkpt>
<trkpt lat="42.251672" lon="3.243520"><ele>28.5</ele><time>2011-04-16T10:02:47Z</time></trkpt>
<trkpt lat="42.251537" lon="3.243235"><ele>27.9</ele><time>2011-04-16T10:02:52Z</time></trkpt>
<trkpt lat="42.251278" lon="3.243250"><ele>27.8</ele><time>2011-04-16T10:02:57Z</time></trkpt>
<trkpt lat="42.251060" lon="3.243115"><ele>28.3</ele><time>2011-04-16T10:03:02Z</time></trkpt>
<trkpt lat="42.250900" lon="3.242912"><ele>28.9</ele><time>2011-04-16T10:03:07Z</time></trkpt>
<trkpt lat="42.250752" lon="3.242713"><ele>29.5</ele><time>2011-04-16T10:03:12Z</time></trkpt>
<trkpt lat="42.250683" lon="3.242445"><ele>30.2</ele><time>2011-04-16T10:03:17Z</time></trkpt>
<trkpt lat="42.250702" lon="3.242125"><ele>30.6</ele><time>2011-04-16T10:03:22Z</time></trkpt>
<trkpt lat="42.250828" lon="3.241823"><ele>29.9</ele><time>2011-04-16T10:03:27Z</time></trkpt>
<trkpt lat="42.251000" lon="3.241542"><ele>29.1</ele><time>2011-04-16T10:03:32Z</time></trkpt>
<trkpt lat="42.251205" lon="3.241262"><ele>28.4</ele><time>2011-04-16T10:03:37Z</time></trkpt>
<trkpt lat="42.251392" lon="3.240962"><ele>27.5</ele><time>2011-04-16T10:03:42Z</time></trkpt>
<trkpt lat="42.251545" lon="3.240635"><ele>26.8</ele><time>2011-04-16T10:03:47Z</time></trkpt>
<trkpt lat="42.251682" lon="3.240285"><ele>25.3</ele><time>2011-04-16T10:03:52Z</time></trkpt>
<trkpt lat="42.251815" lon="3.239942"><ele>24.3</ele><time>2011-04-16T10:03:57Z</time></trkpt>
<trkpt lat="42.251870" lon="3.239543"><ele>22.5</ele><time>2011-04-16T10:04:02Z</time></trkpt>
<trkpt lat="42.252033" lon="3.239170"><ele>21.2</ele><time>2011-04-16T10:04:07Z</time></trkpt>
<trkpt lat="42.252232" lon="3.238817"><ele>19.9</ele><time>2011-04-16T10:04:12Z</time></trkpt>
<trkpt lat="42.252122" lon="3.238463"><ele>19.3</ele><time>2011-04-16T10:04:17Z</time></trkpt>
<trkpt lat="42.251888" lon="3.238415"><ele>20.1</ele><time>2011-04-16T10:04:22Z</time></trkpt>
<trkpt lat="42.251743" lon="3.238310"><ele>20.9</ele><time>2011-04-16T10:04:27Z</time></trkpt>
<trkpt lat="42.251667" lon="3.238128"><ele>21.8</ele><time>2011-04-16T10:04:32Z</time></trkpt>
<trkpt lat="42.251583" lon="3.237937"><ele>22.8</ele><time>2011-04-16T10:04:37Z</time></trkpt>
<trkpt lat="42.251462" lon="3.237803"><ele>23.7</ele><time>2011-04-16T10:04:42Z</time></trkpt>
<trkpt lat="42.251323" lon="3.237710"><ele>24.7</ele><time>2011-04-16T10:04:47Z</time></trkpt>
<trkpt lat="42.251183" lon="3.237642"><ele>25.9</ele><time>2011-04-16T10:04:52Z</time></trkpt>
<trkpt lat="42.251057" lon="3.237653"><ele>26.2</ele><time>2011-04-16T10:04:57Z</time></trkpt>
<trkpt lat="42.250930" lon="3.237640"><ele>27.1</ele><time>2011-04-16T10:05:02Z</time></trkpt>
<trkpt lat="42.250802" lon="3.237617"><ele>28.1</ele><time>2011-04-16T10:05:07Z</time></trkpt>
<trkpt lat="42.250678" lon="3.237563"><ele>28.8</ele><time>2011-04-16T10:05:12Z</time></trkpt>
<trkpt lat="42.250550" lon="3.237542"><ele>29.8</ele><time>2011-04-16T10:05:17Z</time></trkpt>
<trkpt lat="42.250423" lon="3.237508"><ele>30.4</ele><time>2011-04-16T10:05:22Z</time></trkpt>
<trkpt lat="42.250293" lon="3.237448"><ele>31.3</ele><time>2011-04-16T10:05:27Z</time></trkpt>
<trkpt lat="42.250175" lon="3.237380"><ele>32</ele><time>2011-04-16T10:05:32Z</time></trkpt>
<trkpt lat="42.250057" lon="3.237318"><ele>32.8</ele><time>2011-04-16T10:05:37Z</time></trkpt>
<trkpt lat="42.249950" lon="3.237267"><ele>33.8</ele><time>2011-04-16T10:05:42Z</time></trkpt>
<trkpt lat="42.249832" lon="3.237223"><ele>34.7</ele><time>2011-04-16T10:05:47Z</time></trkpt>
<trkpt lat="42.249725" lon="3.237192"><ele>35.6</ele><time>2011-04-16T10:05:52Z</time></trkpt>
<trkpt lat="42.249607" lon="3.237173"><ele>36.4</ele><time>2011-04-16T10:05:57Z</time></trkpt>
<trkpt lat="42.249488" lon="3.237143"><ele>37.4</ele><time>2011-04-16T10:06:02Z</time></trkpt>
<trkpt lat="42.249367" lon="3.237093"><ele>38.5</ele><time>2011-04-16T10:06:07Z</time></trkpt>
<trkpt lat="42.249245" lon="3.237023"><ele>39.3</ele><time>2011-04-16T10:06:12Z</time></trkpt>
<trkpt lat="42.249115" lon="3.236947"><ele>39.6</ele><time>2011-04-16T10:06:17Z</time></trkpt>
<trkpt lat="42.248982" lon="3.236873"><ele>40.8</ele><time>2011-04-16T10:06:22Z</time></trkpt>
<trkpt lat="42.248878" lon="3.236765"><ele>41.9</ele><time>2011-04-16T10:06:27Z</time></trkpt>
<trkpt lat="42.248828" lon="3.236600"><ele>42.6</ele><time>2011-04-16T10:06:32Z</time></trkpt>
<trkpt lat="42.248860" lon="3.236407"><ele>43</ele><time>2011-04-16T10:06:37Z</time></trkpt>
<trkpt lat="42.248943" lon="3.236207"><ele>43.3</ele><time>2011-04-16T10:06:42Z</time></trkpt>
<trkpt lat="42.249047" lon="3.236028"><ele>43.7</ele><time>2011-04-16T10:06:47Z</time></trkpt>
<trkpt lat="42.249165" lon="3.235818"><ele>44.4</ele><time>2011-04-16T10:06:52Z</time></trkpt>
<trkpt lat="42.249332" lon="3.235613"><ele>44.7</ele><time>2011-04-16T10:06:57Z</time></trkpt>
<trkpt lat="42.249497" lon="3.235417"><ele>44.6</ele><time>2011-04-16T10:07:02Z</time></trkpt>
<trkpt lat="42.249592" lon="3.235188"><ele>44.1</ele><time>2011-04-16T10:07:07Z</time></trkpt>
<trkpt lat="42.249500" lon="3.234917"><ele>42.7</ele><time>2011-04-16T10:07:12Z</time></trkpt>
<trkpt lat="42.249382" lon="3.234600"><ele>41.1</ele><time>2011-04-16T10:07:17Z</time></trkpt>
<trkpt lat="42.249310" lon="3.234228"><ele>39.8</ele><time>2011-04-16T10:07:22Z</time></trkpt>
<trkpt lat="42.249302" lon="3.233842"><ele>38.7</ele><time>2011-04-16T10:07:27Z</time></trkpt>
<trkpt lat="42.249355" lon="3.233458"><ele>37.6</ele><time>2011-04-16T10:07:32Z</time></trkpt>
<trkpt lat="42.249440" lon="3.233075"><ele>36.7</ele><time>2011-04-16T10:07:37Z</time></trkpt>
<trkpt lat="42.249577" lon="3.232743"><ele>35.8</ele><time>2011-04-16T10:07:42Z</time></trkpt>
<trkpt lat="42.249802" lon="3.232520"><ele>34.6</ele><time>2011-04-16T10:07:47Z</time></trkpt>
<trkpt lat="42.250092" lon="3.232340"><ele>32.9</ele><time>2011-04-16T10:07:52Z</time></trkpt>
<trkpt lat="42.250382" lon="3.232133"><ele>30.9</ele><time>2011-04-16T10:07:57Z</time></trkpt>
<trkpt lat="42.250527" lon="3.231700"><ele>28.6</ele><time>2011-04-16T10:08:02Z</time></trkpt>
<trkpt lat="42.250752" lon="3.231338"><ele>25.8</ele><time>2011-04-16T10:08:07Z</time></trkpt>
<trkpt lat="42.251038" lon="3.231050"><ele>23.4</ele><time>2011-04-16T10:08:12Z</time></trkpt>
<trkpt lat="42.251297" lon="3.230903"><ele>21.7</ele><time>2011-04-16T10:08:17Z</time></trkpt>
<trkpt lat="42.251483" lon="3.230572"><ele>19.6</ele><time>2011-04-16T10:08:22Z</time></trkpt>
<trkpt lat="42.251747" lon="3.230328"><ele>18.1</ele><time>2011-04-16T10:08:27Z</time></trkpt>
<trkpt lat="42.251862" lon="3.229935"><ele>16.7</ele><time>2011-04-16T10:08:32Z</time></trkpt>
<trkpt lat="42.251987" lon="3.229520"><ele>14</ele><time>2011-04-16T10:08:37Z</time></trkpt>
<trkpt lat="42.252262" lon="3.229290"><ele>13</ele><time>2011-04-16T10:08:42Z</time></trkpt>
<trkpt lat="42.252427" lon="3.228958"><ele>12.4</ele><time>2011-04-16T10:08:47Z</time></trkpt>
<trkpt lat="42.252590" lon="3.228672"><ele>12.3</ele><time>2011-04-16T10:08:52Z</time></trkpt>
<trkpt lat="42.252723" lon="3.228327"><ele>12.4</ele><time>2011-04-16T10:08:57Z</time></trkpt>
<trkpt lat="42.252830" lon="3.227990"><ele>11.9</ele><time>2011-04-16T10:09:02Z</time></trkpt>
<trkpt lat="42.252933" lon="3.227632"><ele>11.1</ele><time>2011-04-16T10:09:07Z</time></trkpt>
<trkpt lat="42.253113" lon="3.227313"><ele>10.6</ele><time>2011-04-16T10:09:12Z</time></trkpt>
<trkpt lat="42.253193" lon="3.226977"><ele>9.8</ele><time>2011-04-16T10:09:17Z</time></trkpt>
<trkpt lat="42.253185" lon="3.226603"><ele>8.9</ele><time>2011-04-16T10:09:22Z</time></trkpt>
<trkpt lat="42.253090" lon="3.226240"><ele>8</ele><time>2011-04-16T10:09:27Z</time></trkpt>
<trkpt lat="42.252915" lon="3.225953"><ele>7.9</ele><time>2011-04-16T10:09:32Z</time></trkpt>
<trkpt lat="42.252697" lon="3.225767"><ele>8.4</ele><time>2011-04-16T10:09:37Z</time></trkpt>
<trkpt lat="42.252453" lon="3.225720"><ele>9.1</ele><time>2011-04-16T10:09:42Z</time></trkpt>
<trkpt lat="42.252240" lon="3.225705"><ele>9.8</ele><time>2011-04-16T10:09:47Z</time></trkpt>
<trkpt lat="42.252048" lon="3.225727"><ele>10</ele><time>2011-04-16T10:09:52Z</time></trkpt>
<trkpt lat="42.251862" lon="3.225755"><ele>10.5</ele><time>2011-04-16T10:09:57Z</time></trkpt>
<trkpt lat="42.251675" lon="3.225770"><ele>10.9</ele><time>2011-04-16T10:10:02Z</time></trkpt>
<trkpt lat="42.251492" lon="3.225770"><ele>12.3</ele><time>2011-04-16T10:10:07Z</time></trkpt>
<trkpt lat="42.251317" lon="3.225785"><ele>12.6</ele><time>2011-04-16T10:10:12Z</time></trkpt>
<trkpt lat="42.251145" lon="3.225823"><ele>13.1</ele><time>2011-04-16T10:10:17Z</time></trkpt>
<trkpt lat="42.250977" lon="3.225850"><ele>14.2</ele><time>2011-04-16T10:10:22Z</time></trkpt>
<trkpt lat="42.250802" lon="3.225875"><ele>15</ele><time>2011-04-16T10:10:27Z</time></trkpt>
<trkpt lat="42.250630" lon="3.225900"><ele>15.5</ele><time>2011-04-16T10:10:32Z</time></trkpt>
<trkpt lat="42.250458" lon="3.225918"><ele>16.3</ele><time>2011-04-16T10:10:37Z</time></trkpt>
<trkpt lat="42.250282" lon="3.225933"><ele>17.4</ele><time>2011-04-16T10:10:42Z</time></trkpt>
<trkpt lat="42.250130" lon="3.225993"><ele>18.5</ele><time>2011-04-16T10:10:47Z</time></trkpt>
<trkpt lat="42.250000" lon="3.226070"><ele>19.4</ele><time>2011-04-16T10:10:52Z</time></trkpt>
<trkpt lat="42.249863" lon="3.226080"><ele>20.1</ele><time>2011-04-16T10:10:57Z</time></trkpt>
<trkpt lat="42.249745" lon="3.226010"><ele>20.8</ele><time>2011-04-16T10:11:02Z</time></trkpt>
<trkpt lat="42.249675" lon="3.225870"><ele>21.8</ele><time>2011-04-16T10:11:07Z</time></trkpt>
<trkpt lat="42.249627" lon="3.225712"><ele>22.5</ele><time>2011-04-16T10:11:12Z</time></trkpt>
<trkpt lat="42.249580" lon="3.225552"><ele>23.2</ele><time>2011-04-16T10:11:17Z</time></trkpt>
<trkpt lat="42.249512" lon="3.225408"><ele>23.9</ele><time>2011-04-16T10:11:22Z</time></trkpt>
<trkpt lat="42.249428" lon="3.225282"><ele>24.5</ele><time>2011-04-16T10:11:27Z</time></trkpt>
<trkpt lat="42.249328" lon="3.225163"><ele>24.7</ele><time>2011-04-16T10:11:32Z</time></trkpt>
<trkpt lat="42.249230" lon="3.225050"><ele>25.4</ele><time>2011-04-16T10:11:37Z</time></trkpt>
<trkpt lat="42.249138" lon="3.224932"><ele>26.1</ele><time>2011-04-16T10:11:42Z</time></trkpt>
<trkpt lat="42.249053" lon="3.224795"><ele>26.9</ele><time>2011-04-16T10:11:47Z</time></trkpt>
<trkpt lat="42.248978" lon="3.224655"><ele>27.6</ele><time>2011-04-16T10:11:52Z</time></trkpt>
<trkpt lat="42.248917" lon="3.224500"><ele>28.4</ele><time>2011-04-16T10:11:57Z</time></trkpt>
<trkpt lat="42.248840" lon="3.224360"><ele>29</ele><time>2011-04-16T10:12:02Z</time></trkpt>
<trkpt lat="42.248715" lon="3.224307"><ele>29.7</ele><time>2011-04-16T10:12:07Z</time></trkpt>
<trkpt lat="42.248588" lon="3.224323"><ele>30.5</ele><time>2011-04-16T10:12:12Z</time></trkpt>
<trkpt lat="42.248455" lon="3.224368"><ele>31.9</ele><time>2011-04-16T10:12:17Z</time></trkpt>
<trkpt lat="42.248337" lon="3.224485"><ele>32.7</ele><time>2011-04-16T10:12:22Z</time></trkpt>
<trkpt lat="42.248307" lon="3.224680"><ele>34</ele><time>2011-04-16T10:12:27Z</time></trkpt>
<trkpt lat="42.248310" lon="3.224882"><ele>34.8</ele><time>2011-04-16T10:12:32Z</time></trkpt>
<trkpt lat="42.248295" lon="3.225072"><ele>35.6</ele><time>2011-04-16T10:12:37Z</time></trkpt>
<trkpt lat="42.248283" lon="3.225267"><ele>37.2</ele><time>2011-04-16T10:12:42Z</time></trkpt>
<trkpt lat="42.248257" lon="3.225462"><ele>38.5</ele><time>2011-04-16T10:12:47Z</time></trkpt>
<trkpt lat="42.248245" lon="3.225660"><ele>39.7</ele><time>2011-04-16T10:12:52Z</time></trkpt>
<trkpt lat="42.248230" lon="3.225853"><ele>41.1</ele><time>2011-04-16T10:12:57Z</time></trkpt>
<trkpt lat="42.248218" lon="3.226047"><ele>41.9</ele><time>2011-04-16T10:13:02Z</time></trkpt>
<trkpt lat="42.248177" lon="3.226233"><ele>43.1</ele><time>2011-04-16T10:13:07Z</time></trkpt>
<trkpt lat="42.248112" lon="3.226403"><ele>44.1</ele><time>2011-04-16T10:13:12Z</time></trkpt>
<trkpt lat="42.248032" lon="3.226558"><ele>45.2</ele><time>2011-04-16T10:13:17Z</time></trkpt>
<trkpt lat="42.247922" lon="3.226685"><ele>46.1</ele><time>2011-04-16T10:13:22Z</time></trkpt>
<trkpt lat="42.247792" lon="3.226773"><ele>46.9</ele><time>2011-04-16T10:13:27Z</time></trkpt>
<trkpt lat="42.247647" lon="3.226825"><ele>48</ele><time>2011-04-16T10:13:32Z</time></trkpt>
<trkpt lat="42.247508" lon="3.226863"><ele>49</ele><time>2011-04-16T10:13:37Z</time></trkpt>
<trkpt lat="42.247368" lon="3.226903"><ele>50</ele><time>2011-04-16T10:13:42Z</time></trkpt>
<trkpt lat="42.247227" lon="3.226945"><ele>51</ele><time>2011-04-16T10:13:47Z</time></trkpt>
<trkpt lat="42.247100" lon="3.226987"><ele>51.8</ele><time>2011-04-16T10:13:52Z</time></trkpt>
<trkpt lat="42.246987" lon="3.227075"><ele>52.6</ele><time>2011-04-16T10:13:57Z</time></trkpt>
<trkpt lat="42.246887" lon="3.227203"><ele>53.7</ele><time>2011-04-16T10:14:02Z</time></trkpt>
<trkpt lat="42.246785" lon="3.227327"><ele>54.7</ele><time>2011-04-16T10:14:07Z</time></trkpt>
<trkpt lat="42.246662" lon="3.227415"><ele>55.7</ele><time>2011-04-16T10:14:12Z</time></trkpt>
<trkpt lat="42.246528" lon="3.227467"><ele>56.7</ele><time>2011-04-16T10:14:17Z</time></trkpt>
<trkpt lat="42.246395" lon="3.227498"><ele>57.7</ele><time>2011-04-16T10:14:22Z</time></trkpt>
<trkpt lat="42.246258" lon="3.227535"><ele>58.8</ele><time>2011-04-16T10:14:27Z</time></trkpt>
<trkpt lat="42.246128" lon="3.227600"><ele>59.6</ele><time>2011-04-16T10:14:32Z</time></trkpt>
<trkpt lat="42.246010" lon="3.227708"><ele>60.6</ele><time>2011-04-16T10:14:37Z</time></trkpt>
<trkpt lat="42.245895" lon="3.227820"><ele>61.7</ele><time>2011-04-16T10:14:42Z</time></trkpt>
<trkpt lat="42.245785" lon="3.227933"><ele>62.6</ele><time>2011-04-16T10:14:47Z</time></trkpt>
<trkpt lat="42.245658" lon="3.228018"><ele>63.4</ele><time>2011-04-16T10:14:52Z</time></trkpt>
<trkpt lat="42.245522" lon="3.228008"><ele>64.4</ele><time>2011-04-16T10:14:57Z</time></trkpt>
<trkpt lat="42.245412" lon="3.227900"><ele>65.3</ele><time>2011-04-16T10:15:02Z</time></trkpt>
<trkpt lat="42.245347" lon="3.227723"><ele>66.2</ele><time>2011-04-16T10:15:07Z</time></trkpt>
<trkpt lat="42.245362" lon="3.227533"><ele>67.2</ele><time>2011-04-16T10:15:12Z</time></trkpt>
<trkpt lat="42.245407" lon="3.227370"><ele>68</ele><time>2011-04-16T10:15:17Z</time></trkpt>
<trkpt lat="42.245457" lon="3.227210"><ele>68.7</ele><time>2011-04-16T10:15:22Z</time></trkpt>
<trkpt lat="42.245510" lon="3.227040"><ele>69.4</ele><time>2011-04-16T10:15:27Z</time></trkpt>
<trkpt lat="42.245560" lon="3.226872"><ele>70.1</ele><time>2011-04-16T10:15:32Z</time></trkpt>
<trkpt lat="42.245610" lon="3.226707"><ele>70.7</ele><time>2011-04-16T10:15:37Z</time></trkpt>
<trkpt lat="42.245647" lon="3.226532"><ele>71.4</ele><time>2011-04-16T10:15:42Z</time></trkpt>
<trkpt lat="42.245673" lon="3.226353"><ele>72.3</ele><time>2011-04-16T10:15:47Z</time></trkpt>
<trkpt lat="42.245693" lon="3.226170"><ele>73</ele><time>2011-04-16T10:15:52Z</time></trkpt>
<trkpt lat="42.245717" lon="3.225988"><ele>74</ele><time>2011-04-16T10:15:57Z</time></trkpt>
<trkpt lat="42.245735" lon="3.225807"><ele>75</ele><time>2011-04-16T10:16:02Z</time></trkpt>
<trkpt lat="42.245747" lon="3.225625"><ele>76</ele><time>2011-04-16T10:16:07Z</time></trkpt>
<trkpt lat="42.245747" lon="3.225445"><ele>77.1</ele><time>2011-04-16T10:16:12Z</time></trkpt>
<trkpt lat="42.245743" lon="3.225267"><ele>78.2</ele><time>2011-04-16T10:16:17Z</time></trkpt>
<trkpt lat="42.245738" lon="3.225087"><ele>79.1</ele><time>2011-04-16T10:16:22Z</time></trkpt>
<trkpt lat="42.245738" lon="3.224903"><ele>80</ele><time>2011-04-16T10:16:27Z</time></trkpt>
<trkpt lat="42.245735" lon="3.224720"><ele>80.9</ele><time>2011-04-16T10:16:32Z</time></trkpt>
<trkpt lat="42.245717" lon="3.224542"><ele>82</ele><time>2011-04-16T10:16:37Z</time></trkpt>
<trkpt lat="42.245678" lon="3.224363"><ele>82.8</ele><time>2011-04-16T10:16:42Z</time></trkpt>
<trkpt lat="42.245617" lon="3.224198"><ele>83.6</ele><time>2011-04-16T10:16:47Z</time></trkpt>
<trkpt lat="42.245540" lon="3.224043"><ele>84.3</ele><time>2011-04-16T10:16:52Z</time></trkpt>
<trkpt lat="42.245472" lon="3.223873"><ele>84.9</ele><time>2011-04-16T10:16:57Z</time></trkpt>
<trkpt lat="42.245422" lon="3.223692"><ele>85.6</ele><time>2011-04-16T10:17:02Z</time></trkpt>
<trkpt lat="42.245400" lon="3.223507"><ele>86.7</ele><time>2011-04-16T10:17:07Z</time></trkpt>
<trkpt lat="42.245385" lon="3.223317"><ele>87.5</ele><time>2011-04-16T10:17:12Z</time></trkpt>
<trkpt lat="42.245368" lon="3.223128"><ele>88.3</ele><time>2011-04-16T10:17:17Z</time></trkpt>
<trkpt lat="42.245353" lon="3.222937"><ele>89</ele><time>2011-04-16T10:17:22Z</time></trkpt>
<trkpt lat="42.245312" lon="3.222752"><ele>90</ele><time>2011-04-16T10:17:27Z</time></trkpt>
<trkpt lat="42.245228" lon="3.222595"><ele>91</ele><time>2011-04-16T10:17:32Z</time></trkpt>
<trkpt lat="42.245113" lon="3.222512"><ele>91.8</ele><time>2011-04-16T10:17:37Z</time></trkpt>
<trkpt lat="42.244987" lon="3.222502"><ele>92.6</ele><time>2011-04-16T10:17:42Z</time></trkpt>
<trkpt lat="42.244853" lon="3.222522"><ele>93.4</ele><time>2011-04-16T10:17:47Z</time></trkpt>
<trkpt lat="42.244720" lon="3.222547"><ele>94.4</ele><time>2011-04-16T10:17:52Z</time></trkpt>
<trkpt lat="42.244587" lon="3.222565"><ele>95.3</ele><time>2011-04-16T10:17:57Z</time></trkpt>
<trkpt lat="42.244453" lon="3.222577"><ele>96</ele><time>2011-04-16T10:18:02Z</time></trkpt>
<trkpt lat="42.244320" lon="3.222573"><ele>96.9</ele><time>2011-04-16T10:18:07Z</time></trkpt>
<trkpt lat="42.244183" lon="3.222543"><ele>97.9</ele><time>2011-04-16T10:18:12Z</time></trkpt>
<trkpt lat="42.244053" lon="3.222488"><ele>99.2</ele><time>2011-04-16T10:18:17Z</time></trkpt>
<trkpt lat="42.243947" lon="3.222382"><ele>100.6</ele><time>2011-04-16T10:18:22Z</time></trkpt>
<trkpt lat="42.243867" lon="3.222227"><ele>101.7</ele><time>2011-04-16T10:18:27Z</time></trkpt>
<trkpt lat="42.243820" lon="3.222050"><ele>102.9</ele><time>2011-04-16T10:18:32Z</time></trkpt>
<trkpt lat="42.243793" lon="3.221875"><ele>104.1</ele><time>2011-04-16T10:18:37Z</time></trkpt>
<trkpt lat="42.243790" lon="3.221690"><ele>105.2</ele><time>2011-04-16T10:18:42Z</time></trkpt>
<trkpt lat="42.243797" lon="3.221502"><ele>107</ele><time>2011-04-16T10:18:47Z</time></trkpt>
<trkpt lat="42.243823" lon="3.221315"><ele>108.4</ele><time>2011-04-16T10:18:52Z</time></trkpt>
<trkpt lat="42.243877" lon="3.221135"><ele>109.5</ele><time>2011-04-16T10:18:57Z</time></trkpt>
<trkpt lat="42.243923" lon="3.220957"><ele>110.5</ele><time>2011-04-16T10:19:02Z</time></trkpt>
<trkpt lat="42.243977" lon="3.220778"><ele>111.7</ele><time>2011-04-16T10:19:07Z</time></trkpt>
<trkpt lat="42.244030" lon="3.220598"><ele>112.9</ele><time>2011-04-16T10:19:12Z</time></trkpt>
<trkpt lat="42.244053" lon="3.220405"><ele>113.6</ele><time>2011-04-16T10:19:17Z</time></trkpt>
<trkpt lat="42.244022" lon="3.220217"><ele>114.2</ele><time>2011-04-16T10:19:22Z</time></trkpt>
<trkpt lat="42.243985" lon="3.220037"><ele>115</ele><time>2011-04-16T10:19:27Z</time></trkpt>
<trkpt lat="42.243947" lon="3.219855"><ele>115.9</ele><time>2011-04-16T10:19:32Z</time></trkpt>
<trkpt lat="42.243950" lon="3.219660"><ele>116.6</ele><time>2011-04-16T10:19:37Z</time></trkpt>
<trkpt lat="42.244030" lon="3.219493"><ele>117.7</ele><time>2011-04-16T10:19:42Z</time></trkpt>
<trkpt lat="42.244167" lon="3.219430"><ele>119.5</ele><time>2011-04-16T10:19:47Z</time></trkpt>
<trkpt lat="42.244312" lon="3.219468"><ele>121.5</ele><time>2011-04-16T10:19:52Z</time></trkpt>
<trkpt lat="42.244453" lon="3.219448"><ele>122.5</ele><time>2011-04-16T10:19:57Z</time></trkpt>
<trkpt lat="42.244563" lon="3.219317"><ele>123.4</ele><time>2011-04-16T10:20:02Z</time></trkpt>
<trkpt lat="42.244602" lon="3.219130"><ele>124.5</ele><time>2011-04-16T10:20:07Z</time></trkpt>
<trkpt lat="42.244560" lon="3.218942"><ele>125.4</ele><time>2011-04-16T10:20:12Z</time></trkpt>
<trkpt lat="42.244445" lon="3.218815"><ele>125.7</ele><time>2011-04-16T10:20:17Z</time></trkpt>
<trkpt lat="42.244293" lon="3.218807"><ele>126.5</ele><time>2011-04-16T10:20:22Z</time></trkpt>
<trkpt lat="42.244163" lon="3.218893"><ele>127.5</ele><time>2011-04-16T10:20:27Z</time></trkpt>
<trkpt lat="42.244030" lon="3.218988"><ele>128.5</ele><time>2011-04-16T10:20:32Z</time></trkpt>
<trkpt lat="42.243900" lon="3.219085"><ele>129.4</ele><time>2011-04-16T10:20:37Z</time></trkpt>
<trkpt lat="42.243758" lon="3.219160"><ele>130.2</ele><time>2011-04-16T10:20:42Z</time></trkpt>
<trkpt lat="42.243618" lon="3.219200"><ele>131.1</ele><time>2011-04-16T10:20:47Z</time></trkpt>
<trkpt lat="42.243470" lon="3.219232"><ele>131.6</ele><time>2011-04-16T10:20:52Z</time></trkpt>
<trkpt lat="42.243320" lon="3.219238"><ele>132</ele><time>2011-04-16T10:20:57Z</time></trkpt>
<trkpt lat="42.243172" lon="3.219222"><ele>132.5</ele><time>2011-04-16T10:21:02Z</time></trkpt>
<trkpt lat="42.243035" lon="3.219165"><ele>133.2</ele><time>2011-04-16T10:21:07Z</time></trkpt>
<trkpt lat="42.242905" lon="3.219068"><ele>133.8</ele><time>2011-04-16T10:21:12Z</time></trkpt>
<trkpt lat="42.242802" lon="3.218925"><ele>134.7</ele><time>2011-04-16T10:21:17Z</time></trkpt>
<trkpt lat="42.242725" lon="3.218752"><ele>135.5</ele><time>2011-04-16T10:21:22Z</time></trkpt>
<trkpt lat="42.242668" lon="3.218567"><ele>136.3</ele><time>2011-04-16T10:21:27Z</time></trkpt>
<trkpt lat="42.242612" lon="3.218382"><ele>137.1</ele><time>2011-04-16T10:21:32Z</time></trkpt>
<trkpt lat="42.242550" lon="3.218202"><ele>138</ele><time>2011-04-16T10:21:37Z</time></trkpt>
<trkpt lat="42.242488" lon="3.218020"><ele>139</ele><time>2011-04-16T10:21:42Z</time></trkpt>
<trkpt lat="42.242397" lon="3.217858"><ele>140</ele><time>2011-04-16T10:21:47Z</time></trkpt>
<trkpt lat="42.242257" lon="3.217787"><ele>141.7</ele><time>2011-04-16T10:21:52Z</time></trkpt>
<trkpt lat="42.242100" lon="3.217795"><ele>143</ele><time>2011-04-16T10:21:57Z</time></trkpt>
<trkpt lat="42.241955" lon="3.217823"><ele>144.6</ele><time>2011-04-16T10:22:02Z</time></trkpt>
<trkpt lat="42.241802" lon="3.217845"><ele>145.9</ele><time>2011-04-16T10:22:07Z</time></trkpt>
<trkpt lat="42.241645" lon="3.217853"><ele>147.4</ele><time>2011-04-16T10:22:12Z</time></trkpt>
<trkpt lat="42.241497" lon="3.217792"><ele>148.4</ele><time>2011-04-16T10:22:17Z</time></trkpt>
<trkpt lat="42.241375" lon="3.217657"><ele>148.7</ele><time>2011-04-16T10:22:22Z</time></trkpt>
<trkpt lat="42.241287" lon="3.217478"><ele>149.6</ele><time>2011-04-16T10:22:27Z</time></trkpt>
<trkpt lat="42.241203" lon="3.217308"><ele>150.4</ele><time>2011-04-16T10:22:32Z</time></trkpt>
<trkpt lat="42.241130" lon="3.217152"><ele>151.1</ele><time>2011-04-16T10:22:37Z</time></trkpt>
<trkpt lat="42.241055" lon="3.216990"><ele>151.7</ele><time>2011-04-16T10:22:42Z</time></trkpt>
<trkpt lat="42.240975" lon="3.216828"><ele>152.2</ele><time>2011-04-16T10:22:47Z</time></trkpt>
<trkpt lat="42.240890" lon="3.216665"><ele>152.8</ele><time>2011-04-16T10:22:52Z</time></trkpt>
<trkpt lat="42.240830" lon="3.216487"><ele>153.4</ele><time>2011-04-16T10:22:57Z</time></trkpt>
<trkpt lat="42.240830" lon="3.216285"><ele>153.9</ele><time>2011-04-16T10:23:02Z</time></trkpt>
<trkpt lat="42.240890" lon="3.216100"><ele>154.8</ele><time>2011-04-16T10:23:07Z</time></trkpt>
<trkpt lat="42.241008" lon="3.215973"><ele>155.7</ele><time>2011-04-16T10:23:12Z</time></trkpt>
<trkpt lat="42.241158" lon="3.215938"><ele>156.7</ele><time>2011-04-16T10:23:17Z</time></trkpt>
<trkpt lat="42.241313" lon="3.215920"><ele>157.5</ele><time>2011-04-16T10:23:22Z</time></trkpt>
<trkpt lat="42.241463" lon="3.215897"><ele>158.4</ele><time>2011-04-16T10:23:27Z</time></trkpt>
<trkpt lat="42.241612" lon="3.215870"><ele>159.3</ele><time>2011-04-16T10:23:32Z</time></trkpt>
<trkpt lat="42.241760" lon="3.215863"><ele>160.3</ele><time>2011-04-16T10:23:37Z</time></trkpt>
<trkpt lat="42.241905" lon="3.215925"><ele>161.2</ele><time>2011-04-16T10:23:42Z</time></trkpt>
<trkpt lat="42.242050" lon="3.215988"><ele>162.1</ele><time>2011-04-16T10:23:47Z</time></trkpt>
<trkpt lat="42.242195" lon="3.216033"><ele>163.1</ele><time>2011-04-16T10:23:52Z</time></trkpt>
<trkpt lat="42.242348" lon="3.216045"><ele>164.1</ele><time>2011-04-16T10:23:57Z</time></trkpt>
<trkpt lat="42.242500" lon="3.216050"><ele>165.1</ele><time>2011-04-16T10:24:02Z</time></trkpt>
<trkpt lat="42.242653" lon="3.216003"><ele>166</ele><time>2011-04-16T10:24:07Z</time></trkpt>
<trkpt lat="42.242790" lon="3.215887"><ele>166.7</ele><time>2011-04-16T10:24:12Z</time></trkpt>
<trkpt lat="42.242908" lon="3.215740"><ele>167.6</ele><time>2011-04-16T10:24:17Z</time></trkpt>
<trkpt lat="42.243018" lon="3.215587"><ele>168.4</ele><time>2011-04-16T10:24:22Z</time></trkpt>
<trkpt lat="42.243062" lon="3.215400"><ele>169.4</ele><time>2011-04-16T10:24:27Z</time></trkpt>
<trkpt lat="42.242970" lon="3.215213"><ele>169.9</ele><time>2011-04-16T10:24:32Z</time></trkpt>
<trkpt lat="42.242965" lon="3.214990"><ele>170.3</ele><time>2011-04-16T10:24:37Z</time></trkpt>
<trkpt lat="42.242917" lon="3.214833"><ele>170.4</ele><time>2011-04-16T10:24:42Z</time></trkpt>
<trkpt lat="42.242893" lon="3.214817"><ele>170</ele><time>2011-04-16T10:24:47Z</time></trkpt>
<trkpt lat="42.242882" lon="3.214802"><ele>169.8</ele><time>2011-04-16T10:24:52Z</time></trkpt>
<trkpt lat="42.242863" lon="3.214780"><ele>169.6</ele><time>2011-04-16T10:24:57Z</time></trkpt>
<trkpt lat="42.242863" lon="3.214780"><ele>169.5</ele><time>2011-04-16T10:25:02Z</time></trkpt>
<trkpt lat="42.242863" lon="3.214782"><ele>169.6</ele><time>2011-04-16T10:25:07Z</time></trkpt>
<trkpt lat="42.242870" lon="3.214803"><ele>170.1</ele><time>2011-04-16T10:25:12Z</time></trkpt>
<trkpt lat="42.242885" lon="3.214812"><ele>170.3</ele><time>2011-04-16T10:25:17Z</time></trkpt>
<trkpt lat="42.242890" lon="3.214817"><ele>170.3</ele><time>2011-04-16T10:25:22Z</time></trkpt>
<trkpt lat="42.242890" lon="3.214817"><ele>170.2</ele><time>2011-04-16T10:25:27Z</time></trkpt>
<trkpt lat="42.242890" lon="3.214817"><ele>170</ele><time>2011-04-16T10:25:32Z</time></trkpt>
<trkpt lat="42.242890" lon="3.214817"><ele>169.9</ele><time>2011-04-16T10:25:37Z</time></trkpt>
<trkpt lat="42.242890" lon="3.214815"><ele>169.8</ele><time>2011-04-16T10:25:42Z</time></trkpt>
<trkpt lat="42.242890" lon="3.214815"><ele>169.7</ele><time>2011-04-16T10:25:47Z</time></trkpt>
<trkpt lat="42.242890" lon="3.214815"><ele>169.6</ele><time>2011-04-16T10:25:52Z</time></trkpt>
<trkpt lat="42.242885" lon="3.214815"><ele>169.5</ele><time>2011-04-16T10:25:57Z</time></trkpt>
<trkpt lat="42.242885" lon="3.214822"><ele>169.8</ele><time>2011-04-16T10:26:02Z</time></trkpt>
<trkpt lat="42.242885" lon="3.214822"><ele>169.9</ele><time>2011-04-16T10:26:07Z</time></trkpt>
<trkpt lat="42.242885" lon="3.214822"><ele>170</ele><time>2011-04-16T10:26:12Z</time></trkpt>
<trkpt lat="42.242890" lon="3.214822"><ele>169.9</ele><time>2011-04-16T10:26:17Z</time></trkpt>
<trkpt lat="42.242890" lon="3.214823"><ele>169.8</ele><time>2011-04-16T10:26:22Z</time></trkpt>
<trkpt lat="42.242890" lon="3.214823"><ele>169.9</ele><time>2011-04-16T10:26:27Z</time></trkpt>
<trkpt lat="42.242885" lon="3.214820"><ele>169.8</ele><time>2011-04-16T10:26:32Z</time></trkpt>
<trkpt lat="42.242890" lon="3.214825"><ele>169.7</ele><time>2011-04-16T10:26:37Z</time></trkpt>
<trkpt lat="42.242890" lon="3.214825"><ele>169.5</ele><time>2011-04-16T10:26:42Z</time></trkpt>
<trkpt lat="42.242890" lon="3.214823"><ele>169.4</ele><time>2011-04-16T10:26:47Z</time></trkpt>
<trkpt lat="42.242890" lon="3.214820"><ele>169.4</ele><time>2011-04-16T10:26:52Z</time></trkpt>
<trkpt lat="42.242890" lon="3.214823"><ele>169.9</ele><time>2011-04-16T10:26:57Z</time></trkpt>
<trkpt lat="42.242890" lon="3.214825"><ele>170.5</ele><time>2011-04-16T10:27:02Z</time></trkpt>
<trkpt lat="42.242885" lon="3.214825"><ele>170.9</ele><time>2011-04-16T10:27:07Z</time></trkpt>
<trkpt lat="42.242885" lon="3.214830"><ele>171.2</ele><time>2011-04-16T10:27:12Z</time></trkpt>
<trkpt lat="42.242890" lon="3.214832"><ele>171.1</ele><time>2011-04-16T10:27:17Z</time></trkpt>
<trkpt lat="42.242890" lon="3.214828"><ele>171</ele><time>2011-04-16T10:27:22Z</time></trkpt>
<trkpt lat="42.242890" lon="3.214828"><ele>171.4</ele><time>2011-04-16T10:27:27Z</time></trkpt>
<trkpt lat="42.242890" lon="3.214830"><ele>171.5</ele><time>2011-04-16T10:27:32Z</time></trkpt>
<trkpt lat="42.242885" lon="3.214837"><ele>171.5</ele><time>2011-04-16T10:27:37Z</time></trkpt>
<trkpt lat="42.242908" lon="3.214878"><ele>171.9</ele><time>2011-04-16T10:27:42Z</time></trkpt>
<trkpt lat="42.242958" lon="3.214987"><ele>172.1</ele><time>2011-04-16T10:27:47Z</time></trkpt>
<trkpt lat="42.242932" lon="3.215143"><ele>171.8</ele><time>2011-04-16T10:27:52Z</time></trkpt>
<trkpt lat="42.242985" lon="3.215297"><ele>171.8</ele><time>2011-04-16T10:27:57Z</time></trkpt>
<trkpt lat="42.243038" lon="3.215415"><ele>171.6</ele><time>2011-04-16T10:28:02Z</time></trkpt>
<trkpt lat="42.243042" lon="3.215433"><ele>171.7</ele><time>2011-04-16T10:28:07Z</time></trkpt>
<trkpt lat="42.243042" lon="3.215432"><ele>171.9</ele><time>2011-04-16T10:28:12Z</time></trkpt>
<trkpt lat="42.243042" lon="3.215430"><ele>172.2</ele><time>2011-04-16T10:28:17Z</time></trkpt>
<trkpt lat="42.243038" lon="3.215428"><ele>172.5</ele><time>2011-04-16T10:28:22Z</time></trkpt>
<trkpt lat="42.243038" lon="3.215427"><ele>172.8</ele><time>2011-04-16T10:28:27Z</time></trkpt>
<trkpt lat="42.243038" lon="3.215425"><ele>173</ele><time>2011-04-16T10:28:32Z</time></trkpt>
<trkpt lat="42.243042" lon="3.215427"><ele>173.3</ele><time>2011-04-16T10:28:37Z</time></trkpt>
<trkpt lat="42.243122" lon="3.215483"><ele>172.9</ele><time>2011-04-16T10:28:42Z</time></trkpt>
<trkpt lat="42.243272" lon="3.215365"><ele>173</ele><time>2011-04-16T10:28:47Z</time></trkpt>
<trkpt lat="42.243458" lon="3.215312"><ele>172.5</ele><time>2011-04-16T10:28:52Z</time></trkpt>
<trkpt lat="42.243678" lon="3.215327"><ele>171.7</ele><time>2011-04-16T10:28:57Z</time></trkpt>
<trkpt lat="42.243938" lon="3.215367"><ele>170.5</ele><time>2011-04-16T10:29:02Z</time></trkpt>
<trkpt lat="42.244205" lon="3.215515"><ele>169</ele><time>2011-04-16T10:29:07Z</time></trkpt>
<trkpt lat="42.244385" lon="3.215865"><ele>167.6</ele><time>2011-04-16T10:29:12Z</time></trkpt>
<trkpt lat="42.244530" lon="3.216270"><ele>166.1</ele><time>2011-04-16T10:29:17Z</time></trkpt>
<trkpt lat="42.244693" lon="3.216632"><ele>165.6</ele><time>2011-04-16T10:29:22Z</time></trkpt>
<trkpt lat="42.244912" lon="3.216803"><ele>165.8</ele><time>2011-04-16T10:29:27Z</time></trkpt>
<trkpt lat="42.245113" lon="3.216788"><ele>166.7</ele><time>2011-04-16T10:29:32Z</time></trkpt>
<trkpt lat="42.245258" lon="3.216665"><ele>167.8</ele><time>2011-04-16T10:29:37Z</time></trkpt>
<trkpt lat="42.245368" lon="3.216515"><ele>168.6</ele><time>2011-04-16T10:29:42Z</time></trkpt>
<trkpt lat="42.245468" lon="3.216355"><ele>169.4</ele><time>2011-04-16T10:29:47Z</time></trkpt>
<trkpt lat="42.245563" lon="3.216198"><ele>170.1</ele><time>2011-04-16T10:29:52Z</time></trkpt>
<trkpt lat="42.245670" lon="3.216063"><ele>171.1</ele><time>2011-04-16T10:29:57Z</time></trkpt>
<trkpt lat="42.245792" lon="3.215957"><ele>171.8</ele><time>2011-04-16T10:30:02Z</time></trkpt>
<trkpt lat="42.245927" lon="3.215882"><ele>172.5</ele><time>2011-04-16T10:30:07Z</time></trkpt>
<trkpt lat="42.246055" lon="3.215812"><ele>173.5</ele><time>2011-04-16T10:30:12Z</time></trkpt>
<trkpt lat="42.246170" lon="3.215730"><ele>174.3</ele><time>2011-04-16T10:30:17Z</time></trkpt>
<trkpt lat="42.246262" lon="3.215612"><ele>175</ele><time>2011-04-16T10:30:22Z</time></trkpt>
<trkpt lat="42.246330" lon="3.215465"><ele>175.7</ele><time>2011-04-16T10:30:27Z</time></trkpt>
<trkpt lat="42.246387" lon="3.215305"><ele>176.4</ele><time>2011-04-16T10:30:32Z</time></trkpt>
<trkpt lat="42.246460" lon="3.215158"><ele>177.1</ele><time>2011-04-16T10:30:37Z</time></trkpt>
<trkpt lat="42.246558" lon="3.215043"><ele>178</ele><time>2011-04-16T10:30:42Z</time></trkpt>
<trkpt lat="42.246670" lon="3.214975"><ele>179.1</ele><time>2011-04-16T10:30:47Z</time></trkpt>
<trkpt lat="42.246792" lon="3.214920"><ele>180</ele><time>2011-04-16T10:30:52Z</time></trkpt>
<trkpt lat="42.246910" lon="3.214860"><ele>181</ele><time>2011-04-16T10:30:57Z</time></trkpt>
<trkpt lat="42.247020" lon="3.214782"><ele>182</ele><time>2011-04-16T10:31:02Z</time></trkpt>
<trkpt lat="42.247128" lon="3.214688"><ele>182.9</ele><time>2011-04-16T10:31:07Z</time></trkpt>
<trkpt lat="42.247230" lon="3.214590"><ele>184</ele><time>2011-04-16T10:31:12Z</time></trkpt>
<trkpt lat="42.247348" lon="3.214542"><ele>185.1</ele><time>2011-04-16T10:31:17Z</time></trkpt>
<trkpt lat="42.247475" lon="3.214593"><ele>186.4</ele><time>2011-04-16T10:31:22Z</time></trkpt>
<trkpt lat="42.247585" lon="3.214692"><ele>187.3</ele><time>2011-04-16T10:31:27Z</time></trkpt>
<trkpt lat="42.247723" lon="3.214740"><ele>188.1</ele><time>2011-04-16T10:31:32Z</time></trkpt>
<trkpt lat="42.247872" lon="3.214688"><ele>189</ele><time>2011-04-16T10:31:37Z</time></trkpt>
<trkpt lat="42.248020" lon="3.214573"><ele>189.7</ele><time>2011-04-16T10:31:42Z</time></trkpt>
<trkpt lat="42.248168" lon="3.214455"><ele>190.4</ele><time>2011-04-16T10:31:47Z</time></trkpt>
<trkpt lat="42.248333" lon="3.214358"><ele>190.7</ele><time>2011-04-16T10:31:52Z</time></trkpt>
<trkpt lat="42.248520" lon="3.214225"><ele>190.6</ele><time>2011-04-16T10:31:57Z</time></trkpt>
<trkpt lat="42.248710" lon="3.214052"><ele>190.6</ele><time>2011-04-16T10:32:02Z</time></trkpt>
<trkpt lat="42.248882" lon="3.213852"><ele>190.6</ele><time>2011-04-16T10:32:07Z</time></trkpt>
<trkpt lat="42.249050" lon="3.213608"><ele>190.2</ele><time>2011-04-16T10:32:12Z</time></trkpt>
<trkpt lat="42.249218" lon="3.213372"><ele>189.9</ele><time>2011-04-16T10:32:17Z</time></trkpt>
<trkpt lat="42.249413" lon="3.213197"><ele>190.1</ele><time>2011-04-16T10:32:22Z</time></trkpt>
<trkpt lat="42.249642" lon="3.213105"><ele>190.1</ele><time>2011-04-16T10:32:27Z</time></trkpt>
<trkpt lat="42.249820" lon="3.212870"><ele>189.5</ele><time>2011-04-16T10:32:32Z</time></trkpt>
<trkpt lat="42.249793" lon="3.212507"><ele>188.8</ele><time>2011-04-16T10:32:37Z</time></trkpt>
<trkpt lat="42.249912" lon="3.212168"><ele>188.2</ele><time>2011-04-16T10:32:42Z</time></trkpt>
<trkpt lat="42.250103" lon="3.211887"><ele>187.4</ele><time>2011-04-16T10:32:47Z</time></trkpt>
<trkpt lat="42.250328" lon="3.211625"><ele>186.6</ele><time>2011-04-16T10:32:52Z</time></trkpt>
<trkpt lat="42.250572" lon="3.211417"><ele>185.6</ele><time>2011-04-16T10:32:57Z</time></trkpt>
<trkpt lat="42.250843" lon="3.211402"><ele>185.2</ele><time>2011-04-16T10:33:02Z</time></trkpt>
<trkpt lat="42.251095" lon="3.211563"><ele>184.9</ele><time>2011-04-16T10:33:07Z</time></trkpt>
<trkpt lat="42.251347" lon="3.211693"><ele>185.3</ele><time>2011-04-16T10:33:12Z</time></trkpt>
<trkpt lat="42.251563" lon="3.211578"><ele>185.8</ele><time>2011-04-16T10:33:17Z</time></trkpt>
<trkpt lat="42.251693" lon="3.211250"><ele>185.8</ele><time>2011-04-16T10:33:22Z</time></trkpt>
<trkpt lat="42.251877" lon="3.210938"><ele>185.1</ele><time>2011-04-16T10:33:27Z</time></trkpt>
<trkpt lat="42.252125" lon="3.210673"><ele>184.2</ele><time>2011-04-16T10:33:32Z</time></trkpt>
<trkpt lat="42.252350" lon="3.210370"><ele>183.4</ele><time>2011-04-16T10:33:37Z</time></trkpt>
<trkpt lat="42.252243" lon="3.210013"><ele>183.1</ele><time>2011-04-16T10:33:42Z</time></trkpt>
<trkpt lat="42.251957" lon="3.209823"><ele>182.3</ele><time>2011-04-16T10:33:47Z</time></trkpt>
<trkpt lat="42.251812" lon="3.209453"><ele>181.4</ele><time>2011-04-16T10:33:52Z</time></trkpt>
<trkpt lat="42.251770" lon="3.209002"><ele>180</ele><time>2011-04-16T10:33:57Z</time></trkpt>
<trkpt lat="42.251858" lon="3.208552"><ele>178.4</ele><time>2011-04-16T10:34:02Z</time></trkpt>
<trkpt lat="42.252202" lon="3.208445"><ele>177.5</ele><time>2011-04-16T10:34:07Z</time></trkpt>
<trkpt lat="42.252533" lon="3.208607"><ele>176.8</ele><time>2011-04-16T10:34:12Z</time></trkpt>
<trkpt lat="42.252850" lon="3.208847"><ele>176.2</ele><time>2011-04-16T10:34:17Z</time></trkpt>
<trkpt lat="42.253108" lon="3.208570"><ele>176.7</ele><time>2011-04-16T10:34:22Z</time></trkpt>
<trkpt lat="42.253303" lon="3.208232"><ele>176.8</ele><time>2011-04-16T10:34:27Z</time></trkpt>
<trkpt lat="42.253330" lon="3.207818"><ele>176.7</ele><time>2011-04-16T10:34:32Z</time></trkpt>
<trkpt lat="42.253377" lon="3.207393"><ele>175.7</ele><time>2011-04-16T10:34:37Z</time></trkpt>
<trkpt lat="42.253505" lon="3.206963"><ele>173.8</ele><time>2011-04-16T10:34:42Z</time></trkpt>
<trkpt lat="42.253623" lon="3.206563"><ele>171.3</ele><time>2011-04-16T10:34:47Z</time></trkpt>
<trkpt lat="42.253697" lon="3.206252"><ele>169.4</ele><time>2011-04-16T10:34:52Z</time></trkpt>
<trkpt lat="42.253735" lon="3.206108"><ele>168.3</ele><time>2011-04-16T10:34:57Z</time></trkpt>
<trkpt lat="42.253812" lon="3.206118"><ele>169.1</ele><time>2011-04-16T10:35:02Z</time></trkpt>
<trkpt lat="42.253880" lon="3.206178"><ele>170.3</ele><time>2011-04-16T10:35:07Z</time></trkpt>
<trkpt lat="42.253948" lon="3.206230"><ele>171.8</ele><time>2011-04-16T10:35:12Z</time></trkpt>
<trkpt lat="42.254025" lon="3.206270"><ele>173</ele><time>2011-04-16T10:35:17Z</time></trkpt>
<trkpt lat="42.254105" lon="3.206302"><ele>174</ele><time>2011-04-16T10:35:22Z</time></trkpt>
<trkpt lat="42.254192" lon="3.206333"><ele>174.9</ele><time>2011-04-16T10:35:27Z</time></trkpt>
<trkpt lat="42.254272" lon="3.206363"><ele>175.9</ele><time>2011-04-16T10:35:32Z</time></trkpt>
<trkpt lat="42.254357" lon="3.206397"><ele>176.9</ele><time>2011-04-16T10:35:37Z</time></trkpt>
<trkpt lat="42.254428" lon="3.206435"><ele>178</ele><time>2011-04-16T10:35:42Z</time></trkpt>
<trkpt lat="42.254502" lon="3.206482"><ele>178.9</ele><time>2011-04-16T10:35:47Z</time></trkpt>
<trkpt lat="42.254573" lon="3.206535"><ele>180.1</ele><time>2011-04-16T10:35:52Z</time></trkpt>
<trkpt lat="42.254642" lon="3.206598"><ele>181.2</ele><time>2011-04-16T10:35:57Z</time></trkpt>
<trkpt lat="42.254680" lon="3.206695"><ele>182.1</ele><time>2011-04-16T10:36:02Z</time></trkpt>
<trkpt lat="42.254662" lon="3.206803"><ele>182.7</ele><time>2011-04-16T10:36:07Z</time></trkpt>
<trkpt lat="42.254623" lon="3.206913"><ele>183.2</ele><time>2011-04-16T10:36:12Z</time></trkpt>
<trkpt lat="42.254582" lon="3.207022"><ele>183.8</ele><time>2011-04-16T10:36:17Z</time></trkpt>
<trkpt lat="42.254552" lon="3.207130"><ele>184.5</ele><time>2011-04-16T10:36:22Z</time></trkpt>
<trkpt lat="42.254520" lon="3.207237"><ele>185.2</ele><time>2011-04-16T10:36:27Z</time></trkpt>
<trkpt lat="42.254487" lon="3.207337"><ele>185.9</ele><time>2011-04-16T10:36:32Z</time></trkpt>
<trkpt lat="42.254452" lon="3.207445"><ele>186.7</ele><time>2011-04-16T10:36:37Z</time></trkpt>
<trkpt lat="42.254422" lon="3.207552"><ele>187.5</ele><time>2011-04-16T10:36:42Z</time></trkpt>
<trkpt lat="42.254390" lon="3.207662"><ele>188.4</ele><time>2011-04-16T10:36:47Z</time></trkpt>
<trkpt lat="42.254357" lon="3.207765"><ele>189.3</ele><time>2011-04-16T10:36:52Z</time></trkpt>
<trkpt lat="42.254322" lon="3.207868"><ele>190.3</ele><time>2011-04-16T10:36:57Z</time></trkpt>
<trkpt lat="42.254292" lon="3.207973"><ele>191.3</ele><time>2011-04-16T10:37:02Z</time></trkpt>
<trkpt lat="42.254250" lon="3.208068"><ele>192.3</ele><time>2011-04-16T10:37:07Z</time></trkpt>
<trkpt lat="42.254212" lon="3.208173"><ele>193.2</ele><time>2011-04-16T10:37:12Z</time></trkpt>
<trkpt lat="42.254170" lon="3.208273"><ele>194</ele><time>2011-04-16T10:37:17Z</time></trkpt>
<trkpt lat="42.254128" lon="3.208373"><ele>194.8</ele><time>2011-04-16T10:37:22Z</time></trkpt>
<trkpt lat="42.254073" lon="3.208470"><ele>195.6</ele><time>2011-04-16T10:37:27Z</time></trkpt>
<trkpt lat="42.254028" lon="3.208568"><ele>196.5</ele><time>2011-04-16T10:37:32Z</time></trkpt>
<trkpt lat="42.253975" lon="3.208662"><ele>197.5</ele><time>2011-04-16T10:37:37Z</time></trkpt>
<trkpt lat="42.253922" lon="3.208755"><ele>198.5</ele><time>2011-04-16T10:37:42Z</time></trkpt>
<trkpt lat="42.253865" lon="3.208848"><ele>199.3</ele><time>2011-04-16T10:37:47Z</time></trkpt>
<trkpt lat="42.253800" lon="3.208940"><ele>200.1</ele><time>2011-04-16T10:37:52Z</time></trkpt>
<trkpt lat="42.253738" lon="3.209027"><ele>201</ele><time>2011-04-16T10:37:57Z</time></trkpt>
<trkpt lat="42.253682" lon="3.209122"><ele>202</ele><time>2011-04-16T10:38:02Z</time></trkpt>
<trkpt lat="42.253628" lon="3.209218"><ele>202.9</ele><time>2011-04-16T10:38:07Z</time></trkpt>
<trkpt lat="42.253590" lon="3.209328"><ele>203.9</ele><time>2011-04-16T10:38:12Z</time></trkpt>
<trkpt lat="42.253548" lon="3.209433"><ele>204.2</ele><time>2011-04-16T10:38:17Z</time></trkpt>
<trkpt lat="42.253505" lon="3.209565"><ele>204.7</ele><time>2011-04-16T10:38:22Z</time></trkpt>
<trkpt lat="42.253468" lon="3.209697"><ele>205.2</ele><time>2011-04-16T10:38:27Z</time></trkpt>
<trkpt lat="42.253425" lon="3.209835"><ele>205.7</ele><time>2011-04-16T10:38:32Z</time></trkpt>
<trkpt lat="42.253380" lon="3.209962"><ele>206.4</ele><time>2011-04-16T10:38:37Z</time></trkpt>
<trkpt lat="42.253342" lon="3.210090"><ele>207.2</ele><time>2011-04-16T10:38:42Z</time></trkpt>
<trkpt lat="42.253300" lon="3.210213"><ele>207.6</ele><time>2011-04-16T10:38:47Z</time></trkpt>
<trkpt lat="42.253262" lon="3.210347"><ele>208.1</ele><time>2011-04-16T10:38:52Z</time></trkpt>
<trkpt lat="42.253242" lon="3.210490"><ele>208.4</ele><time>2011-04-16T10:38:57Z</time></trkpt>
<trkpt lat="42.253273" lon="3.210627"><ele>208.8</ele><time>2011-04-16T10:39:02Z</time></trkpt>
<trkpt lat="42.253380" lon="3.210675"><ele>208.9</ele><time>2011-04-16T10:39:07Z</time></trkpt>
<trkpt lat="42.253475" lon="3.210607"><ele>209.7</ele><time>2011-04-16T10:39:12Z</time></trkpt>
<trkpt lat="42.253483" lon="3.210467"><ele>210.4</ele><time>2011-04-16T10:39:17Z</time></trkpt>
<trkpt lat="42.253460" lon="3.210313"><ele>210.5</ele><time>2011-04-16T10:39:22Z</time></trkpt>
<trkpt lat="42.253495" lon="3.210158"><ele>210.6</ele><time>2011-04-16T10:39:27Z</time></trkpt>
<trkpt lat="42.253555" lon="3.210025"><ele>211</ele><time>2011-04-16T10:39:32Z</time></trkpt>
<trkpt lat="42.253635" lon="3.209918"><ele>211.6</ele><time>2011-04-16T10:39:37Z</time></trkpt>
<trkpt lat="42.253708" lon="3.209812"><ele>212.4</ele><time>2011-04-16T10:39:42Z</time></trkpt>
<trkpt lat="42.253788" lon="3.209718"><ele>213.4</ele><time>2011-04-16T10:39:47Z</time></trkpt>
<trkpt lat="42.253865" lon="3.209632"><ele>214.3</ele><time>2011-04-16T10:39:52Z</time></trkpt>
<trkpt lat="42.253952" lon="3.209553"><ele>215.1</ele><time>2011-04-16T10:39:57Z</time></trkpt>
<trkpt lat="42.254047" lon="3.209495"><ele>216</ele><time>2011-04-16T10:40:02Z</time></trkpt>
<trkpt lat="42.254143" lon="3.209448"><ele>217</ele><time>2011-04-16T10:40:07Z</time></trkpt>
<trkpt lat="42.254238" lon="3.209408"><ele>217.9</ele><time>2011-04-16T10:40:12Z</time></trkpt>
<trkpt lat="42.254342" lon="3.209380"><ele>218.8</ele><time>2011-04-16T10:40:17Z</time></trkpt>
<trkpt lat="42.254443" lon="3.209348"><ele>219.7</ele><time>2011-04-16T10:40:22Z</time></trkpt>
<trkpt lat="42.254535" lon="3.209298"><ele>220.4</ele><time>2011-04-16T10:40:27Z</time></trkpt>
<trkpt lat="42.254632" lon="3.209238"><ele>221.1</ele><time>2011-04-16T10:40:32Z</time></trkpt>
<trkpt lat="42.254723" lon="3.209183"><ele>222</ele><time>2011-04-16T10:40:37Z</time></trkpt>
<trkpt lat="42.254813" lon="3.209130"><ele>222.9</ele><time>2011-04-16T10:40:42Z</time></trkpt>
<trkpt lat="42.254913" lon="3.209078"><ele>223.8</ele><time>2011-04-16T10:40:47Z</time></trkpt>
<trkpt lat="42.255008" lon="3.209023"><ele>224.7</ele><time>2011-04-16T10:40:52Z</time></trkpt>
<trkpt lat="42.255103" lon="3.208983"><ele>225.7</ele><time>2011-04-16T10:40:57Z</time></trkpt>
<trkpt lat="42.255203" lon="3.208935"><ele>226.6</ele><time>2011-04-16T10:41:02Z</time></trkpt>
<trkpt lat="42.255287" lon="3.208870"><ele>227.6</ele><time>2011-04-16T10:41:07Z</time></trkpt>
<trkpt lat="42.255367" lon="3.208797"><ele>228.6</ele><time>2011-04-16T10:41:12Z</time></trkpt>
<trkpt lat="42.255443" lon="3.208718"><ele>229.7</ele><time>2011-04-16T10:41:17Z</time></trkpt>
<trkpt lat="42.255520" lon="3.208633"><ele>230.8</ele><time>2011-04-16T10:41:22Z</time></trkpt>
<trkpt lat="42.255592" lon="3.208550"><ele>231.7</ele><time>2011-04-16T10:41:27Z</time></trkpt>
<trkpt lat="42.255662" lon="3.208452"><ele>232.5</ele><time>2011-04-16T10:41:32Z</time></trkpt>
<trkpt lat="42.255737" lon="3.208365"><ele>233.4</ele><time>2011-04-16T10:41:37Z</time></trkpt>
<trkpt lat="42.255817" lon="3.208288"><ele>234.3</ele><time>2011-04-16T10:41:42Z</time></trkpt>
<trkpt lat="42.255893" lon="3.208210"><ele>235.3</ele><time>2011-04-16T10:41:47Z</time></trkpt>
<trkpt lat="42.255982" lon="3.208145"><ele>236.3</ele><time>2011-04-16T10:41:52Z</time></trkpt>
<trkpt lat="42.256080" lon="3.208110"><ele>237.2</ele><time>2011-04-16T10:41:57Z</time></trkpt>
<trkpt lat="42.256172" lon="3.208072"><ele>238.1</ele><time>2011-04-16T10:42:02Z</time></trkpt>
<trkpt lat="42.256268" lon="3.208037"><ele>238.9</ele><time>2011-04-16T10:42:07Z</time></trkpt>
<trkpt lat="42.256358" lon="3.207982"><ele>239.7</ele><time>2011-04-16T10:42:12Z</time></trkpt>
<trkpt lat="42.256450" lon="3.207935"><ele>240.6</ele><time>2011-04-16T10:42:17Z</time></trkpt>
<trkpt lat="42.256538" lon="3.207882"><ele>241.5</ele><time>2011-04-16T10:42:22Z</time></trkpt>
<trkpt lat="42.256622" lon="3.207822"><ele>242.5</ele><time>2011-04-16T10:42:27Z</time></trkpt>
<trkpt lat="42.256713" lon="3.207782"><ele>243.4</ele><time>2011-04-16T10:42:32Z</time></trkpt>
<trkpt lat="42.256813" lon="3.207763"><ele>244</ele><time>2011-04-16T10:42:37Z</time></trkpt>
<trkpt lat="42.256923" lon="3.207760"><ele>244.8</ele><time>2011-04-16T10:42:42Z</time></trkpt>
<trkpt lat="42.257023" lon="3.207773"><ele>245.6</ele><time>2011-04-16T10:42:47Z</time></trkpt>
<trkpt lat="42.257122" lon="3.207807"><ele>246.4</ele><time>2011-04-16T10:42:52Z</time></trkpt>
<trkpt lat="42.257217" lon="3.207847"><ele>247.2</ele><time>2011-04-16T10:42:57Z</time></trkpt>
<trkpt lat="42.257313" lon="3.207895"><ele>248</ele><time>2011-04-16T10:43:02Z</time></trkpt>
<trkpt lat="42.257405" lon="3.207943"><ele>248.9</ele><time>2011-04-16T10:43:07Z</time></trkpt>
<trkpt lat="42.257492" lon="3.207990"><ele>249.9</ele><time>2011-04-16T10:43:12Z</time></trkpt>
<trkpt lat="42.257583" lon="3.208058"><ele>250.6</ele><time>2011-04-16T10:43:17Z</time></trkpt>
<trkpt lat="42.257678" lon="3.208100"><ele>251.6</ele><time>2011-04-16T10:43:22Z</time></trkpt>
<trkpt lat="42.257778" lon="3.208125"><ele>252.5</ele><time>2011-04-16T10:43:27Z</time></trkpt>
<trkpt lat="42.257882" lon="3.208130"><ele>253.2</ele><time>2011-04-16T10:43:32Z</time></trkpt>
<trkpt lat="42.257983" lon="3.208130"><ele>254</ele><time>2011-04-16T10:43:37Z</time></trkpt>
<trkpt lat="42.258083" lon="3.208113"><ele>254.8</ele><time>2011-04-16T10:43:42Z</time></trkpt>
<trkpt lat="42.258187" lon="3.208103"><ele>255.6</ele><time>2011-04-16T10:43:47Z</time></trkpt>
<trkpt lat="42.258290" lon="3.208092"><ele>256.7</ele><time>2011-04-16T10:43:52Z</time></trkpt>
<trkpt lat="42.258388" lon="3.208067"><ele>257.9</ele><time>2011-04-16T10:43:57Z</time></trkpt>
<trkpt lat="42.258483" lon="3.208028"><ele>258.9</ele><time>2011-04-16T10:44:02Z</time></trkpt>
<trkpt lat="42.258572" lon="3.207972"><ele>260</ele><time>2011-04-16T10:44:07Z</time></trkpt>
<trkpt lat="42.258660" lon="3.207897"><ele>261</ele><time>2011-04-16T10:44:12Z</time></trkpt>
<trkpt lat="42.258740" lon="3.207825"><ele>261.8</ele><time>2011-04-16T10:44:17Z</time></trkpt>
<trkpt lat="42.258823" lon="3.207748"><ele>262.8</ele><time>2011-04-16T10:44:22Z</time></trkpt>
<trkpt lat="42.258915" lon="3.207680"><ele>264</ele><time>2011-04-16T10:44:27Z</time></trkpt>
<trkpt lat="42.259013" lon="3.207588"><ele>264.5</ele><time>2011-04-16T10:44:32Z</time></trkpt>
<trkpt lat="42.259110" lon="3.207522"><ele>265.4</ele><time>2011-04-16T10:44:37Z</time></trkpt>
<trkpt lat="42.259193" lon="3.207445"><ele>266.2</ele><time>2011-04-16T10:44:42Z</time></trkpt>
<trkpt lat="42.259282" lon="3.207375"><ele>267.1</ele><time>2011-04-16T10:44:47Z</time></trkpt>
<trkpt lat="42.259373" lon="3.207315"><ele>268</ele><time>2011-04-16T10:44:52Z</time></trkpt>
<trkpt lat="42.259472" lon="3.207275"><ele>269.1</ele><time>2011-04-16T10:44:57Z</time></trkpt>
<trkpt lat="42.259572" lon="3.207253"><ele>270.1</ele><time>2011-04-16T10:45:02Z</time></trkpt>
<trkpt lat="42.259670" lon="3.207222"><ele>271.1</ele><time>2011-04-16T10:45:07Z</time></trkpt>
<trkpt lat="42.259758" lon="3.207202"><ele>271.7</ele><time>2011-04-16T10:45:12Z</time></trkpt>
<trkpt lat="42.259850" lon="3.207155"><ele>272.1</ele><time>2011-04-16T10:45:17Z</time></trkpt>
<trkpt lat="42.259862" lon="3.207143"><ele>272.1</ele><time>2011-04-16T10:45:22Z</time></trkpt>
<trkpt lat="42.259862" lon="3.207142"><ele>272.2</ele><time>2011-04-16T10:45:27Z</time></trkpt>
<trkpt lat="42.259857" lon="3.207148"><ele>271.9</ele><time>2011-04-16T10:45:32Z</time></trkpt>
<trkpt lat="42.259865" lon="3.207145"><ele>272.2</ele><time>2011-04-16T10:45:37Z</time></trkpt>
<trkpt lat="42.259865" lon="3.207150"><ele>272.6</ele><time>2011-04-16T10:45:42Z</time></trkpt>
<trkpt lat="42.259922" lon="3.207157"><ele>273.3</ele><time>2011-04-16T10:45:47Z</time></trkpt>
<trkpt lat="42.260013" lon="3.207148"><ele>274.2</ele><time>2011-04-16T10:45:52Z</time></trkpt>
<trkpt lat="42.260113" lon="3.207148"><ele>275.1</ele><time>2011-04-16T10:45:57Z</time></trkpt>
<trkpt lat="42.260215" lon="3.207157"><ele>276.1</ele><time>2011-04-16T10:46:02Z</time></trkpt>
<trkpt lat="42.260315" lon="3.207163"><ele>276.8</ele><time>2011-04-16T10:46:07Z</time></trkpt>
<trkpt lat="42.260407" lon="3.207178"><ele>277.6</ele><time>2011-04-16T10:46:12Z</time></trkpt>
<trkpt lat="42.260505" lon="3.207202"><ele>278.3</ele><time>2011-04-16T10:46:17Z</time></trkpt>
<trkpt lat="42.260612" lon="3.207235"><ele>278.9</ele><time>2011-04-16T10:46:22Z</time></trkpt>
<trkpt lat="42.260712" lon="3.207267"><ele>279.6</ele><time>2011-04-16T10:46:27Z</time></trkpt>
<trkpt lat="42.260822" lon="3.207270"><ele>280.6</ele><time>2011-04-16T10:46:32Z</time></trkpt>
<trkpt lat="42.260940" lon="3.207248"><ele>281.4</ele><time>2011-04-16T10:46:37Z</time></trkpt>
<trkpt lat="42.261047" lon="3.207200"><ele>282.7</ele><time>2011-04-16T10:46:42Z</time></trkpt>
<trkpt lat="42.261143" lon="3.207142"><ele>283.8</ele><time>2011-04-16T10:46:47Z</time></trkpt>
<trkpt lat="42.261235" lon="3.207078"><ele>284.9</ele><time>2011-04-16T10:46:52Z</time></trkpt>
<trkpt lat="42.261322" lon="3.207012"><ele>285.9</ele><time>2011-04-16T10:46:57Z</time></trkpt>
<trkpt lat="42.261410" lon="3.206940"><ele>286.9</ele><time>2011-04-16T10:47:02Z</time></trkpt>
<trkpt lat="42.261493" lon="3.206870"><ele>287.9</ele><time>2011-04-16T10:47:07Z</time></trkpt>
<trkpt lat="42.261585" lon="3.206803"><ele>288.9</ele><time>2011-04-16T10:47:12Z</time></trkpt>
<trkpt lat="42.261673" lon="3.206750"><ele>289.9</ele><time>2011-04-16T10:47:17Z</time></trkpt>
<trkpt lat="42.261772" lon="3.206707"><ele>290.8</ele><time>2011-04-16T10:47:22Z</time></trkpt>
<trkpt lat="42.261878" lon="3.206685"><ele>291.5</ele><time>2011-04-16T10:47:27Z</time></trkpt>
<trkpt lat="42.261982" lon="3.206690"><ele>292.2</ele><time>2011-04-16T10:47:32Z</time></trkpt>
<trkpt lat="42.262088" lon="3.206723"><ele>293.1</ele><time>2011-04-16T10:47:37Z</time></trkpt>
<trkpt lat="42.262203" lon="3.206768"><ele>293.8</ele><time>2011-04-16T10:47:42Z</time></trkpt>
<trkpt lat="42.262310" lon="3.206798"><ele>294.9</ele><time>2011-04-16T10:47:47Z</time></trkpt>
<trkpt lat="42.262402" lon="3.206833"><ele>296</ele><time>2011-04-16T10:47:52Z</time></trkpt>
<trkpt lat="42.262490" lon="3.206890"><ele>297.1</ele><time>2011-04-16T10:47:57Z</time></trkpt>
<trkpt lat="42.262570" lon="3.206957"><ele>297.8</ele><time>2011-04-16T10:48:02Z</time></trkpt>
<trkpt lat="42.262627" lon="3.207077"><ele>298.3</ele><time>2011-04-16T10:48:07Z</time></trkpt>
<trkpt lat="42.262657" lon="3.207233"><ele>298.8</ele><time>2011-04-16T10:48:12Z</time></trkpt>
<trkpt lat="42.262695" lon="3.207395"><ele>299.2</ele><time>2011-04-16T10:48:17Z</time></trkpt>
<trkpt lat="42.262725" lon="3.207562"><ele>299.9</ele><time>2011-04-16T10:48:22Z</time></trkpt>
<trkpt lat="42.262768" lon="3.207723"><ele>300.3</ele><time>2011-04-16T10:48:27Z</time></trkpt>
<trkpt lat="42.262802" lon="3.207893"><ele>301.1</ele><time>2011-04-16T10:48:32Z</time></trkpt>
<trkpt lat="42.262852" lon="3.208050"><ele>301.8</ele><time>2011-04-16T10:48:37Z</time></trkpt>
<trkpt lat="42.262905" lon="3.208195"><ele>302.3</ele><time>2011-04-16T10:48:42Z</time></trkpt>
<trkpt lat="42.262985" lon="3.208323"><ele>302.9</ele><time>2011-04-16T10:48:47Z</time></trkpt>
<trkpt lat="42.263080" lon="3.208433"><ele>303.6</ele><time>2011-04-16T10:48:52Z</time></trkpt>
<trkpt lat="42.263187" lon="3.208508"><ele>304.8</ele><time>2011-04-16T10:48:57Z</time></trkpt>
<trkpt lat="42.263302" lon="3.208538"><ele>306.1</ele><time>2011-04-16T10:49:02Z</time></trkpt>
<trkpt lat="42.263417" lon="3.208530"><ele>306.7</ele><time>2011-04-16T10:49:07Z</time></trkpt>
<trkpt lat="42.263515" lon="3.208480"><ele>307.7</ele><time>2011-04-16T10:49:12Z</time></trkpt>
<trkpt lat="42.263615" lon="3.208417"><ele>308.4</ele><time>2011-04-16T10:49:17Z</time></trkpt>
<trkpt lat="42.263707" lon="3.208338"><ele>309.2</ele><time>2011-04-16T10:49:22Z</time></trkpt>
<trkpt lat="42.263805" lon="3.208272"><ele>309.8</ele><time>2011-04-16T10:49:27Z</time></trkpt>
<trkpt lat="42.263912" lon="3.208225"><ele>310.3</ele><time>2011-04-16T10:49:32Z</time></trkpt>
<trkpt lat="42.264027" lon="3.208183"><ele>310.8</ele><time>2011-04-16T10:49:37Z</time></trkpt>
<trkpt lat="42.264137" lon="3.208165"><ele>311.4</ele><time>2011-04-16T10:49:42Z</time></trkpt>
<trkpt lat="42.264248" lon="3.208190"><ele>312.2</ele><time>2011-04-16T10:49:47Z</time></trkpt>
<trkpt lat="42.264320" lon="3.208298"><ele>313.7</ele><time>2011-04-16T10:49:52Z</time></trkpt>
<trkpt lat="42.264335" lon="3.208460"><ele>314.7</ele><time>2011-04-16T10:49:57Z</time></trkpt>
<trkpt lat="42.264335" lon="3.208642"><ele>314.9</ele><time>2011-04-16T10:50:02Z</time></trkpt>
<trkpt lat="42.264335" lon="3.208835"><ele>315</ele><time>2011-04-16T10:50:07Z</time></trkpt>
<trkpt lat="42.264335" lon="3.209043"><ele>315</ele><time>2011-04-16T10:50:12Z</time></trkpt>
<trkpt lat="42.264335" lon="3.209263"><ele>315</ele><time>2011-04-16T10:50:17Z</time></trkpt>
<trkpt lat="42.264340" lon="3.209485"><ele>314.9</ele><time>2011-04-16T10:50:22Z</time></trkpt>
<trkpt lat="42.264332" lon="3.209770"><ele>313.7</ele><time>2011-04-16T10:50:27Z</time></trkpt>
<trkpt lat="42.264305" lon="3.210127"><ele>312.1</ele><time>2011-04-16T10:50:32Z</time></trkpt>
<trkpt lat="42.264217" lon="3.210467"><ele>311.4</ele><time>2011-04-16T10:50:37Z</time></trkpt>
<trkpt lat="42.264110" lon="3.210710"><ele>311.5</ele><time>2011-04-16T10:50:42Z</time></trkpt>
<trkpt lat="42.264077" lon="3.210938"><ele>311.4</ele><time>2011-04-16T10:50:47Z</time></trkpt>
<trkpt lat="42.264098" lon="3.211217"><ele>310.8</ele><time>2011-04-16T10:50:52Z</time></trkpt>
<trkpt lat="42.264107" lon="3.211503"><ele>310</ele><time>2011-04-16T10:50:57Z</time></trkpt>
<trkpt lat="42.264125" lon="3.211830"><ele>308.8</ele><time>2011-04-16T10:51:02Z</time></trkpt>
<trkpt lat="42.264133" lon="3.212145"><ele>308.3</ele><time>2011-04-16T10:51:07Z</time></trkpt>
<trkpt lat="42.264130" lon="3.212432"><ele>307.8</ele><time>2011-04-16T10:51:12Z</time></trkpt>
<trkpt lat="42.264168" lon="3.212615"><ele>308.6</ele><time>2011-04-16T10:51:17Z</time></trkpt>
<trkpt lat="42.264213" lon="3.212753"><ele>309.6</ele><time>2011-04-16T10:51:22Z</time></trkpt>
<trkpt lat="42.264255" lon="3.212858"><ele>310.9</ele><time>2011-04-16T10:51:27Z</time></trkpt>
<trkpt lat="42.264302" lon="3.212942"><ele>312.1</ele><time>2011-04-16T10:51:32Z</time></trkpt>
<trkpt lat="42.264352" lon="3.213025"><ele>313.3</ele><time>2011-04-16T10:51:37Z</time></trkpt>
<trkpt lat="42.264397" lon="3.213100"><ele>314.4</ele><time>2011-04-16T10:51:42Z</time></trkpt>
<trkpt lat="42.264447" lon="3.213178"><ele>315.4</ele><time>2011-04-16T10:51:47Z</time></trkpt>
<trkpt lat="42.264497" lon="3.213253"><ele>316.4</ele><time>2011-04-16T10:51:52Z</time></trkpt>
<trkpt lat="42.264550" lon="3.213325"><ele>317.3</ele><time>2011-04-16T10:51:57Z</time></trkpt>
<trkpt lat="42.264603" lon="3.213390"><ele>318.3</ele><time>2011-04-16T10:52:02Z</time></trkpt>
<trkpt lat="42.264663" lon="3.213460"><ele>319</ele><time>2011-04-16T10:52:07Z</time></trkpt>
<trkpt lat="42.264722" lon="3.213527"><ele>319.8</ele><time>2011-04-16T10:52:12Z</time></trkpt>
<trkpt lat="42.264782" lon="3.213590"><ele>320.5</ele><time>2011-04-16T10:52:17Z</time></trkpt>
<trkpt lat="42.264843" lon="3.213647"><ele>321.3</ele><time>2011-04-16T10:52:22Z</time></trkpt>
<trkpt lat="42.264903" lon="3.213705"><ele>322.1</ele><time>2011-04-16T10:52:27Z</time></trkpt>
<trkpt lat="42.264968" lon="3.213762"><ele>322.9</ele><time>2011-04-16T10:52:32Z</time></trkpt>
<trkpt lat="42.265030" lon="3.213817"><ele>323.9</ele><time>2011-04-16T10:52:37Z</time></trkpt>
<trkpt lat="42.265087" lon="3.213878"><ele>324.9</ele><time>2011-04-16T10:52:42Z</time></trkpt>
<trkpt lat="42.265148" lon="3.213938"><ele>325.5</ele><time>2011-04-16T10:52:47Z</time></trkpt>
<trkpt lat="42.265217" lon="3.213997"><ele>326.1</ele><time>2011-04-16T10:52:52Z</time></trkpt>
<trkpt lat="42.265278" lon="3.214057"><ele>326.6</ele><time>2011-04-16T10:52:57Z</time></trkpt>
<trkpt lat="42.265343" lon="3.214113"><ele>327.3</ele><time>2011-04-16T10:53:02Z</time></trkpt>
<trkpt lat="42.265400" lon="3.214177"><ele>328.2</ele><time>2011-04-16T10:53:07Z</time></trkpt>
<trkpt lat="42.265462" lon="3.214237"><ele>329</ele><time>2011-04-16T10:53:12Z</time></trkpt>
<trkpt lat="42.265525" lon="3.214292"><ele>329.8</ele><time>2011-04-16T10:53:17Z</time></trkpt>
<trkpt lat="42.265595" lon="3.214343"><ele>330.6</ele><time>2011-04-16T10:53:22Z</time></trkpt>
<trkpt lat="42.265663" lon="3.214382"><ele>331.6</ele><time>2011-04-16T10:53:27Z</time></trkpt>
<trkpt lat="42.265732" lon="3.214415"><ele>332.5</ele><time>2011-04-16T10:53:32Z</time></trkpt>
<trkpt lat="42.265808" lon="3.214427"><ele>333.6</ele><time>2011-04-16T10:53:37Z</time></trkpt>
<trkpt lat="42.265888" lon="3.214402"><ele>334.5</ele><time>2011-04-16T10:53:42Z</time></trkpt>
<trkpt lat="42.265957" lon="3.214352"><ele>335.5</ele><time>2011-04-16T10:53:47Z</time></trkpt>
<trkpt lat="42.266018" lon="3.214297"><ele>336.3</ele><time>2011-04-16T10:53:52Z</time></trkpt>
<trkpt lat="42.266083" lon="3.214237"><ele>337.1</ele><time>2011-04-16T10:53:57Z</time></trkpt>
<trkpt lat="42.266137" lon="3.214168"><ele>337.9</ele><time>2011-04-16T10:54:02Z</time></trkpt>
<trkpt lat="42.266190" lon="3.214097"><ele>338.7</ele><time>2011-04-16T10:54:07Z</time></trkpt>
<trkpt lat="42.266243" lon="3.214020"><ele>339.7</ele><time>2011-04-16T10:54:12Z</time></trkpt>
<trkpt lat="42.266293" lon="3.213938"><ele>340.5</ele><time>2011-04-16T10:54:17Z</time></trkpt>
<trkpt lat="42.266335" lon="3.213852"><ele>341.5</ele><time>2011-04-16T10:54:22Z</time></trkpt>
<trkpt lat="42.266383" lon="3.213773"><ele>342.6</ele><time>2011-04-16T10:54:27Z</time></trkpt>
<trkpt lat="42.266438" lon="3.213700"><ele>343.8</ele><time>2011-04-16T10:54:32Z</time></trkpt>
<trkpt lat="42.266513" lon="3.213678"><ele>344.6</ele><time>2011-04-16T10:54:37Z</time></trkpt>
<trkpt lat="42.266587" lon="3.213712"><ele>345.4</ele><time>2011-04-16T10:54:42Z</time></trkpt>
<trkpt lat="42.266655" lon="3.213777"><ele>346</ele><time>2011-04-16T10:54:47Z</time></trkpt>
<trkpt lat="42.266720" lon="3.213843"><ele>347</ele><time>2011-04-16T10:54:52Z</time></trkpt>
<trkpt lat="42.266800" lon="3.213915"><ele>347.2</ele><time>2011-04-16T10:54:57Z</time></trkpt>
<trkpt lat="42.266872" lon="3.213988"><ele>348.2</ele><time>2011-04-16T10:55:02Z</time></trkpt>
<trkpt lat="42.266945" lon="3.214058"><ele>349.2</ele><time>2011-04-16T10:55:07Z</time></trkpt>
<trkpt lat="42.267013" lon="3.214130"><ele>350</ele><time>2011-04-16T10:55:12Z</time></trkpt>
<trkpt lat="42.267082" lon="3.214200"><ele>350.8</ele><time>2011-04-16T10:55:17Z</time></trkpt>
<trkpt lat="42.267152" lon="3.214273"><ele>351.1</ele><time>2011-04-16T10:55:22Z</time></trkpt>
<trkpt lat="42.267215" lon="3.214347"><ele>351.7</ele><time>2011-04-16T10:55:27Z</time></trkpt>
<trkpt lat="42.267280" lon="3.214425"><ele>352.7</ele><time>2011-04-16T10:55:32Z</time></trkpt>
<trkpt lat="42.267342" lon="3.214508"><ele>353.7</ele><time>2011-04-16T10:55:37Z</time></trkpt>
<trkpt lat="42.267403" lon="3.214588"><ele>354.8</ele><time>2011-04-16T10:55:42Z</time></trkpt>
<trkpt lat="42.267460" lon="3.214670"><ele>355.9</ele><time>2011-04-16T10:55:47Z</time></trkpt>
<trkpt lat="42.267525" lon="3.214747"><ele>356.9</ele><time>2011-04-16T10:55:52Z</time></trkpt>
<trkpt lat="42.267597" lon="3.214837"><ele>357.8</ele><time>2011-04-16T10:55:57Z</time></trkpt>
<trkpt lat="42.267662" lon="3.214918"><ele>358.7</ele><time>2011-04-16T10:56:02Z</time></trkpt>
<trkpt lat="42.267720" lon="3.215008"><ele>359.6</ele><time>2011-04-16T10:56:07Z</time></trkpt>
<trkpt lat="42.267773" lon="3.215108"><ele>360.6</ele><time>2011-04-16T10:56:12Z</time></trkpt>
<trkpt lat="42.267800" lon="3.215220"><ele>361.6</ele><time>2011-04-16T10:56:17Z</time></trkpt>
<trkpt lat="42.267853" lon="3.215317"><ele>362.7</ele><time>2011-04-16T10:56:22Z</time></trkpt>
<trkpt lat="42.267925" lon="3.215395"><ele>363.9</ele><time>2011-04-16T10:56:27Z</time></trkpt>
<trkpt lat="42.268013" lon="3.215452"><ele>364.8</ele><time>2011-04-16T10:56:32Z</time></trkpt>
<trkpt lat="42.268105" lon="3.215485"><ele>365.9</ele><time>2011-04-16T10:56:37Z</time></trkpt>
<trkpt lat="42.268212" lon="3.215502"><ele>366.6</ele><time>2011-04-16T10:56:42Z</time></trkpt>
<trkpt lat="42.268307" lon="3.215512"><ele>367.7</ele><time>2011-04-16T10:56:47Z</time></trkpt>
<trkpt lat="42.268398" lon="3.215530"><ele>368.7</ele><time>2011-04-16T10:56:52Z</time></trkpt>
<trkpt lat="42.268487" lon="3.215550"><ele>369.7</ele><time>2011-04-16T10:56:57Z</time></trkpt>
<trkpt lat="42.268573" lon="3.215580"><ele>370.6</ele><time>2011-04-16T10:57:02Z</time></trkpt>
<trkpt lat="42.268665" lon="3.215595"><ele>371.5</ele><time>2011-04-16T10:57:07Z</time></trkpt>
<trkpt lat="42.268760" lon="3.215617"><ele>372.2</ele><time>2011-04-16T10:57:12Z</time></trkpt>
<trkpt lat="42.268840" lon="3.215673"><ele>373</ele><time>2011-04-16T10:57:17Z</time></trkpt>
<trkpt lat="42.268922" lon="3.215753"><ele>373.6</ele><time>2011-04-16T10:57:22Z</time></trkpt>
<trkpt lat="42.268990" lon="3.215857"><ele>374.1</ele><time>2011-04-16T10:57:27Z</time></trkpt>
<trkpt lat="42.269043" lon="3.215990"><ele>374.5</ele><time>2011-04-16T10:57:32Z</time></trkpt>
<trkpt lat="42.269097" lon="3.216128"><ele>374.9</ele><time>2011-04-16T10:57:37Z</time></trkpt>
<trkpt lat="42.269157" lon="3.216252"><ele>375.4</ele><time>2011-04-16T10:57:42Z</time></trkpt>
<trkpt lat="42.269218" lon="3.216368"><ele>376.1</ele><time>2011-04-16T10:57:47Z</time></trkpt>
<trkpt lat="42.269280" lon="3.216485"><ele>377</ele><time>2011-04-16T10:57:52Z</time></trkpt>
<trkpt lat="42.269333" lon="3.216607"><ele>378.1</ele><time>2011-04-16T10:57:57Z</time></trkpt>
<trkpt lat="42.269393" lon="3.216725"><ele>379.4</ele><time>2011-04-16T10:58:02Z</time></trkpt>
<trkpt lat="42.269458" lon="3.216832"><ele>380.5</ele><time>2011-04-16T10:58:07Z</time></trkpt>
<trkpt lat="42.269517" lon="3.216945"><ele>381.8</ele><time>2011-04-16T10:58:12Z</time></trkpt>
<trkpt lat="42.269565" lon="3.217067"><ele>382.7</ele><time>2011-04-16T10:58:17Z</time></trkpt>
<trkpt lat="42.269615" lon="3.217192"><ele>383.9</ele><time>2011-04-16T10:58:22Z</time></trkpt>
<trkpt lat="42.269657" lon="3.217320"><ele>385</ele><time>2011-04-16T10:58:27Z</time></trkpt>
<trkpt lat="42.269688" lon="3.217452"><ele>386</ele><time>2011-04-16T10:58:32Z</time></trkpt>
<trkpt lat="42.269715" lon="3.217582"><ele>387.1</ele><time>2011-04-16T10:58:37Z</time></trkpt>
<trkpt lat="42.269742" lon="3.217717"><ele>388.1</ele><time>2011-04-16T10:58:42Z</time></trkpt>
<trkpt lat="42.269768" lon="3.217850"><ele>389.1</ele><time>2011-04-16T10:58:47Z</time></trkpt>
<trkpt lat="42.269790" lon="3.217988"><ele>390.1</ele><time>2011-04-16T10:58:52Z</time></trkpt>
<trkpt lat="42.269817" lon="3.218137"><ele>391</ele><time>2011-04-16T10:58:57Z</time></trkpt>
<trkpt lat="42.269837" lon="3.218278"><ele>391.7</ele><time>2011-04-16T10:59:02Z</time></trkpt>
<trkpt lat="42.269840" lon="3.218422"><ele>392.5</ele><time>2011-04-16T10:59:07Z</time></trkpt>
<trkpt lat="42.269860" lon="3.218558"><ele>393.3</ele><time>2011-04-16T10:59:12Z</time></trkpt>
<trkpt lat="42.269875" lon="3.218700"><ele>394.1</ele><time>2011-04-16T10:59:17Z</time></trkpt>
<trkpt lat="42.269890" lon="3.218837"><ele>394.9</ele><time>2011-04-16T10:59:22Z</time></trkpt>
<trkpt lat="42.269908" lon="3.218973"><ele>396</ele><time>2011-04-16T10:59:27Z</time></trkpt>
<trkpt lat="42.269947" lon="3.219107"><ele>396.5</ele><time>2011-04-16T10:59:32Z</time></trkpt>
<trkpt lat="42.270012" lon="3.219215"><ele>397.6</ele><time>2011-04-16T10:59:37Z</time></trkpt>
<trkpt lat="42.270100" lon="3.219277"><ele>398.4</ele><time>2011-04-16T10:59:42Z</time></trkpt>
<trkpt lat="42.270183" lon="3.219330"><ele>399.4</ele><time>2011-04-16T10:59:47Z</time></trkpt>
<trkpt lat="42.270267" lon="3.219372"><ele>400.4</ele><time>2011-04-16T10:59:52Z</time></trkpt>
<trkpt lat="42.270363" lon="3.219377"><ele>401.3</ele><time>2011-04-16T10:59:57Z</time></trkpt>
<trkpt lat="42.270455" lon="3.219368"><ele>402.1</ele><time>2011-04-16T11:00:02Z</time></trkpt>
<trkpt lat="42.270542" lon="3.219345"><ele>402.7</ele><time>2011-04-16T11:00:07Z</time></trkpt>
<trkpt lat="42.270633" lon="3.219307"><ele>403.4</ele><time>2011-04-16T11:00:12Z</time></trkpt>
<trkpt lat="42.270722" lon="3.219260"><ele>404.2</ele><time>2011-04-16T11:00:17Z</time></trkpt>
<trkpt lat="42.270817" lon="3.219205"><ele>404.8</ele><time>2011-04-16T11:00:22Z</time></trkpt>
<trkpt lat="42.270900" lon="3.219150"><ele>405.6</ele><time>2011-04-16T11:00:27Z</time></trkpt>
<trkpt lat="42.270982" lon="3.219080"><ele>406.3</ele><time>2011-04-16T11:00:32Z</time></trkpt>
<trkpt lat="42.271062" lon="3.219000"><ele>407.1</ele><time>2011-04-16T11:00:37Z</time></trkpt>
<trkpt lat="42.271142" lon="3.218928"><ele>408</ele><time>2011-04-16T11:00:42Z</time></trkpt>
<trkpt lat="42.271217" lon="3.218847"><ele>408.8</ele><time>2011-04-16T11:00:47Z</time></trkpt>
<trkpt lat="42.271305" lon="3.218763"><ele>409.8</ele><time>2011-04-16T11:00:52Z</time></trkpt>
<trkpt lat="42.271382" lon="3.218667"><ele>410.6</ele><time>2011-04-16T11:00:57Z</time></trkpt>
<trkpt lat="42.271468" lon="3.218585"><ele>411.7</ele><time>2011-04-16T11:01:02Z</time></trkpt>
<trkpt lat="42.271557" lon="3.218500"><ele>412.7</ele><time>2011-04-16T11:01:07Z</time></trkpt>
<trkpt lat="42.271645" lon="3.218417"><ele>413.6</ele><time>2011-04-16T11:01:12Z</time></trkpt>
<trkpt lat="42.271743" lon="3.218320"><ele>414.1</ele><time>2011-04-16T11:01:17Z</time></trkpt>
<trkpt lat="42.271835" lon="3.218227"><ele>414.8</ele><time>2011-04-16T11:01:22Z</time></trkpt>
<trkpt lat="42.271927" lon="3.218140"><ele>415.5</ele><time>2011-04-16T11:01:27Z</time></trkpt>
<trkpt lat="42.272015" lon="3.218050"><ele>416.2</ele><time>2011-04-16T11:01:32Z</time></trkpt>
<trkpt lat="42.272113" lon="3.217978"><ele>416.9</ele><time>2011-04-16T11:01:37Z</time></trkpt>
<trkpt lat="42.272213" lon="3.217903"><ele>417.7</ele><time>2011-04-16T11:01:42Z</time></trkpt>
<trkpt lat="42.272312" lon="3.217838"><ele>418.6</ele><time>2011-04-16T11:01:47Z</time></trkpt>
<trkpt lat="42.272415" lon="3.217820"><ele>419.4</ele><time>2011-04-16T11:01:52Z</time></trkpt>
<trkpt lat="42.272525" lon="3.217853"><ele>420</ele><time>2011-04-16T11:01:57Z</time></trkpt>
<trkpt lat="42.272633" lon="3.217952"><ele>420.2</ele><time>2011-04-16T11:02:02Z</time></trkpt>
<trkpt lat="42.272740" lon="3.218027"><ele>420.6</ele><time>2011-04-16T11:02:07Z</time></trkpt>
<trkpt lat="42.272847" lon="3.218100"><ele>420.9</ele><time>2011-04-16T11:02:12Z</time></trkpt>
<trkpt lat="42.272950" lon="3.218188"><ele>421.2</ele><time>2011-04-16T11:02:17Z</time></trkpt>
<trkpt lat="42.273037" lon="3.218287"><ele>422.2</ele><time>2011-04-16T11:02:22Z</time></trkpt>
<trkpt lat="42.273117" lon="3.218395"><ele>423.2</ele><time>2011-04-16T11:02:27Z</time></trkpt>
<trkpt lat="42.273190" lon="3.218513"><ele>424.1</ele><time>2011-04-16T11:02:32Z</time></trkpt>
<trkpt lat="42.273250" lon="3.218642"><ele>425</ele><time>2011-04-16T11:02:37Z</time></trkpt>
<trkpt lat="42.273303" lon="3.218772"><ele>426</ele><time>2011-04-16T11:02:42Z</time></trkpt>
<trkpt lat="42.273362" lon="3.218897"><ele>427.3</ele><time>2011-04-16T11:02:47Z</time></trkpt>
<trkpt lat="42.273380" lon="3.219050"><ele>428.1</ele><time>2011-04-16T11:02:52Z</time></trkpt>
<trkpt lat="42.273400" lon="3.219187"><ele>429</ele><time>2011-04-16T11:02:57Z</time></trkpt>
<trkpt lat="42.273427" lon="3.219327"><ele>430</ele><time>2011-04-16T11:03:02Z</time></trkpt>
<trkpt lat="42.273438" lon="3.219467"><ele>431</ele><time>2011-04-16T11:03:07Z</time></trkpt>
<trkpt lat="42.273445" lon="3.219605"><ele>431.9</ele><time>2011-04-16T11:03:12Z</time></trkpt>
<trkpt lat="42.273438" lon="3.219750"><ele>432.7</ele><time>2011-04-16T11:03:17Z</time></trkpt>
<trkpt lat="42.273418" lon="3.219892"><ele>433.5</ele><time>2011-04-16T11:03:22Z</time></trkpt>
<trkpt lat="42.273395" lon="3.220030"><ele>434.6</ele><time>2011-04-16T11:03:27Z</time></trkpt>
<trkpt lat="42.273365" lon="3.220168"><ele>435.1</ele><time>2011-04-16T11:03:32Z</time></trkpt>
<trkpt lat="42.273323" lon="3.220298"><ele>436.1</ele><time>2011-04-16T11:03:37Z</time></trkpt>
<trkpt lat="42.273267" lon="3.220420"><ele>436.9</ele><time>2011-04-16T11:03:42Z</time></trkpt>
<trkpt lat="42.273202" lon="3.220535"><ele>437.6</ele><time>2011-04-16T11:03:47Z</time></trkpt>
<trkpt lat="42.273137" lon="3.220652"><ele>438.5</ele><time>2011-04-16T11:03:52Z</time></trkpt>
<trkpt lat="42.273072" lon="3.220765"><ele>439.4</ele><time>2011-04-16T11:03:57Z</time></trkpt>
<trkpt lat="42.273003" lon="3.220885"><ele>440.3</ele><time>2011-04-16T11:04:02Z</time></trkpt>
<trkpt lat="42.272927" lon="3.221012"><ele>441</ele><time>2011-04-16T11:04:07Z</time></trkpt>
<trkpt lat="42.272858" lon="3.221120"><ele>441.3</ele><time>2011-04-16T11:04:12Z</time></trkpt>
<trkpt lat="42.272793" lon="3.221245"><ele>441.6</ele><time>2011-04-16T11:04:17Z</time></trkpt>
<trkpt lat="42.272728" lon="3.221362"><ele>441.9</ele><time>2011-04-16T11:04:22Z</time></trkpt>
<trkpt lat="42.272663" lon="3.221485"><ele>442.4</ele><time>2011-04-16T11:04:27Z</time></trkpt>
<trkpt lat="42.272587" lon="3.221623"><ele>442.5</ele><time>2011-04-16T11:04:32Z</time></trkpt>
<trkpt lat="42.272510" lon="3.221748"><ele>443.1</ele><time>2011-04-16T11:04:37Z</time></trkpt>
<trkpt lat="42.272423" lon="3.221855"><ele>443.6</ele><time>2011-04-16T11:04:42Z</time></trkpt>
<trkpt lat="42.272338" lon="3.221965"><ele>444.3</ele><time>2011-04-16T11:04:47Z</time></trkpt>
<trkpt lat="42.272252" lon="3.222060"><ele>445.1</ele><time>2011-04-16T11:04:52Z</time></trkpt>
<trkpt lat="42.272160" lon="3.222153"><ele>445.9</ele><time>2011-04-16T11:04:57Z</time></trkpt>
<trkpt lat="42.272075" lon="3.222260"><ele>446.9</ele><time>2011-04-16T11:05:02Z</time></trkpt>
<trkpt lat="42.271992" lon="3.222385"><ele>447.2</ele><time>2011-04-16T11:05:07Z</time></trkpt>
<trkpt lat="42.271927" lon="3.222533"><ele>447.4</ele><time>2011-04-16T11:05:12Z</time></trkpt>
<trkpt lat="42.271873" lon="3.222680"><ele>447.6</ele><time>2011-04-16T11:05:17Z</time></trkpt>
<trkpt lat="42.271855" lon="3.222845"><ele>447.7</ele><time>2011-04-16T11:05:22Z</time></trkpt>
<trkpt lat="42.271832" lon="3.223000"><ele>448.1</ele><time>2011-04-16T11:05:27Z</time></trkpt>
<trkpt lat="42.271775" lon="3.223115"><ele>449</ele><time>2011-04-16T11:05:32Z</time></trkpt>
<trkpt lat="42.271748" lon="3.223200"><ele>449.8</ele><time>2011-04-16T11:05:37Z</time></trkpt>
<trkpt lat="42.271775" lon="3.223253"><ele>450.3</ele><time>2011-04-16T11:05:42Z</time></trkpt>
<trkpt lat="42.271775" lon="3.223262"><ele>450.7</ele><time>2011-04-16T11:05:47Z</time></trkpt>
<trkpt lat="42.271775" lon="3.223265"><ele>450.9</ele><time>2011-04-16T11:05:52Z</time></trkpt>
<trkpt lat="42.271748" lon="3.223328"><ele>451.5</ele><time>2011-04-16T11:05:57Z</time></trkpt>
<trkpt lat="42.271695" lon="3.223383"><ele>452.4</ele><time>2011-04-16T11:06:02Z</time></trkpt>
<trkpt lat="42.271625" lon="3.223393"><ele>453</ele><time>2011-04-16T11:06:07Z</time></trkpt>
<trkpt lat="42.271565" lon="3.223345"><ele>453.3</ele><time>2011-04-16T11:06:12Z</time></trkpt>
<trkpt lat="42.271527" lon="3.223255"><ele>453.6</ele><time>2011-04-16T11:06:17Z</time></trkpt>
<trkpt lat="42.271518" lon="3.223150"><ele>454.3</ele><time>2011-04-16T11:06:22Z</time></trkpt>
<trkpt lat="42.271518" lon="3.223048"><ele>454.7</ele><time>2011-04-16T11:06:27Z</time></trkpt>
<trkpt lat="42.271527" lon="3.222948"><ele>455.1</ele><time>2011-04-16T11:06:32Z</time></trkpt>
<trkpt lat="42.271533" lon="3.222858"><ele>455.6</ele><time>2011-04-16T11:06:37Z</time></trkpt>
<trkpt lat="42.271527" lon="3.222768"><ele>456.2</ele><time>2011-04-16T11:06:42Z</time></trkpt>
<trkpt lat="42.271503" lon="3.222675"><ele>456.6</ele><time>2011-04-16T11:06:47Z</time></trkpt>
<trkpt lat="42.271507" lon="3.222578"><ele>457.1</ele><time>2011-04-16T11:06:52Z</time></trkpt>
<trkpt lat="42.271557" lon="3.222500"><ele>457.8</ele><time>2011-04-16T11:06:57Z</time></trkpt>
<trkpt lat="42.271587" lon="3.222407"><ele>458.5</ele><time>2011-04-16T11:07:02Z</time></trkpt>
<trkpt lat="42.271607" lon="3.222312"><ele>459.2</ele><time>2011-04-16T11:07:07Z</time></trkpt>
<trkpt lat="42.271622" lon="3.222220"><ele>460.2</ele><time>2011-04-16T11:07:12Z</time></trkpt>
<trkpt lat="42.271622" lon="3.222127"><ele>461.2</ele><time>2011-04-16T11:07:17Z</time></trkpt>
<trkpt lat="42.271587" lon="3.222048"><ele>462.4</ele><time>2011-04-16T11:07:22Z</time></trkpt>
<trkpt lat="42.271572" lon="3.221962"><ele>463.6</ele><time>2011-04-16T11:07:27Z</time></trkpt>
<trkpt lat="42.271560" lon="3.221875"><ele>465.1</ele><time>2011-04-16T11:07:32Z</time></trkpt>
<trkpt lat="42.271550" lon="3.221795"><ele>466.4</ele><time>2011-04-16T11:07:37Z</time></trkpt>
<trkpt lat="42.271568" lon="3.221710"><ele>467.6</ele><time>2011-04-16T11:07:42Z</time></trkpt>
<trkpt lat="42.271610" lon="3.221638"><ele>468.4</ele><time>2011-04-16T11:07:47Z</time></trkpt>
<trkpt lat="42.271652" lon="3.221563"><ele>469.3</ele><time>2011-04-16T11:07:52Z</time></trkpt>
<trkpt lat="42.271683" lon="3.221480"><ele>470.2</ele><time>2011-04-16T11:07:57Z</time></trkpt>
<trkpt lat="42.271705" lon="3.221380"><ele>470.9</ele><time>2011-04-16T11:08:02Z</time></trkpt>
<trkpt lat="42.271698" lon="3.221313"><ele>471.3</ele><time>2011-04-16T11:08:07Z</time></trkpt>
<trkpt lat="42.271667" lon="3.221352"><ele>471.5</ele><time>2011-04-16T11:08:12Z</time></trkpt>
<trkpt lat="42.271667" lon="3.221350"><ele>471.5</ele><time>2011-04-16T11:08:17Z</time></trkpt>
<trkpt lat="42.271663" lon="3.221352"><ele>471.4</ele><time>2011-04-16T11:08:22Z</time></trkpt>
<trkpt lat="42.271663" lon="3.221355"><ele>471.5</ele><time>2011-04-16T11:08:27Z</time></trkpt>
<trkpt lat="42.271678" lon="3.221458"><ele>470.9</ele><time>2011-04-16T11:08:32Z</time></trkpt>
<trkpt lat="42.271630" lon="3.221603"><ele>469.6</ele><time>2011-04-16T11:08:37Z</time></trkpt>
<trkpt lat="42.271553" lon="3.221728"><ele>468.2</ele><time>2011-04-16T11:08:42Z</time></trkpt>
<trkpt lat="42.271542" lon="3.221855"><ele>466.6</ele><time>2011-04-16T11:08:47Z</time></trkpt>
<trkpt lat="42.271560" lon="3.221977"><ele>464.7</ele><time>2011-04-16T11:08:52Z</time></trkpt>
<trkpt lat="42.271595" lon="3.222147"><ele>462.3</ele><time>2011-04-16T11:08:57Z</time></trkpt>
<trkpt lat="42.271592" lon="3.222352"><ele>460</ele><time>2011-04-16T11:09:02Z</time></trkpt>
<trkpt lat="42.271515" lon="3.222565"><ele>458.2</ele><time>2011-04-16T11:09:07Z</time></trkpt>
<trkpt lat="42.271515" lon="3.222813"><ele>456.8</ele><time>2011-04-16T11:09:12Z</time></trkpt>
<trkpt lat="42.271518" lon="3.223090"><ele>455.5</ele><time>2011-04-16T11:09:17Z</time></trkpt>
<trkpt lat="42.271568" lon="3.223360"><ele>454.4</ele><time>2011-04-16T11:09:22Z</time></trkpt>
<trkpt lat="42.271732" lon="3.223358"><ele>453</ele><time>2011-04-16T11:09:27Z</time></trkpt>
<trkpt lat="42.271812" lon="3.223272"><ele>450.9</ele><time>2011-04-16T11:09:32Z</time></trkpt>
<trkpt lat="42.271888" lon="3.223237"><ele>448.7</ele><time>2011-04-16T11:09:37Z</time></trkpt>
<trkpt lat="42.271930" lon="3.223313"><ele>447.7</ele><time>2011-04-16T11:09:42Z</time></trkpt>
<trkpt lat="42.271927" lon="3.223312"><ele>447.2</ele><time>2011-04-16T11:09:47Z</time></trkpt>
<trkpt lat="42.271927" lon="3.223312"><ele>447</ele><time>2011-04-16T11:09:52Z</time></trkpt>
<trkpt lat="42.271927" lon="3.223313"><ele>447</ele><time>2011-04-16T11:09:57Z</time></trkpt>
<trkpt lat="42.271930" lon="3.223360"><ele>446.7</ele><time>2011-04-16T11:10:02Z</time></trkpt>
<trkpt lat="42.271953" lon="3.223548"><ele>445.2</ele><time>2011-04-16T11:10:07Z</time></trkpt>
<trkpt lat="42.271947" lon="3.223887"><ele>442.4</ele><time>2011-04-16T11:10:12Z</time></trkpt>
<trkpt lat="42.271888" lon="3.224330"><ele>438.7</ele><time>2011-04-16T11:10:17Z</time></trkpt>
<trkpt lat="42.271832" lon="3.224787"><ele>434.8</ele><time>2011-04-16T11:10:22Z</time></trkpt>
<trkpt lat="42.271912" lon="3.225167"><ele>432.6</ele><time>2011-04-16T11:10:27Z</time></trkpt>
<trkpt lat="42.271968" lon="3.225330"><ele>431.5</ele><time>2011-04-16T11:10:32Z</time></trkpt>
<trkpt lat="42.271983" lon="3.225342"><ele>431</ele><time>2011-04-16T11:10:37Z</time></trkpt>
<trkpt lat="42.271973" lon="3.225347"><ele>430.8</ele><time>2011-04-16T11:10:42Z</time></trkpt>
<trkpt lat="42.271968" lon="3.225352"><ele>430.7</ele><time>2011-04-16T11:10:47Z</time></trkpt>
<trkpt lat="42.271968" lon="3.225350"><ele>430.6</ele><time>2011-04-16T11:10:52Z</time></trkpt>
<trkpt lat="42.271965" lon="3.225348"><ele>430.6</ele><time>2011-04-16T11:10:57Z</time></trkpt>
<trkpt lat="42.271965" lon="3.225348"><ele>430.6</ele><time>2011-04-16T11:11:02Z</time></trkpt>
<trkpt lat="42.271965" lon="3.225347"><ele>430.6</ele><time>2011-04-16T11:11:07Z</time></trkpt>
<trkpt lat="42.271962" lon="3.225345"><ele>430.7</ele><time>2011-04-16T11:11:12Z</time></trkpt>
<trkpt lat="42.271962" lon="3.225343"><ele>430.8</ele><time>2011-04-16T11:11:17Z</time></trkpt>
<trkpt lat="42.271962" lon="3.225342"><ele>431</ele><time>2011-04-16T11:11:22Z</time></trkpt>
<trkpt lat="42.271962" lon="3.225342"><ele>431.1</ele><time>2011-04-16T11:11:27Z</time></trkpt>
<trkpt lat="42.271962" lon="3.225340"><ele>431.2</ele><time>2011-04-16T11:11:32Z</time></trkpt>
<trkpt lat="42.271965" lon="3.225333"><ele>431.9</ele><time>2011-04-16T11:11:37Z</time></trkpt>
<trkpt lat="42.271983" lon="3.225330"><ele>432.5</ele><time>2011-04-16T11:11:42Z</time></trkpt>
<trkpt lat="42.272057" lon="3.225372"><ele>432.4</ele><time>2011-04-16T11:11:47Z</time></trkpt>
<trkpt lat="42.272205" lon="3.225517"><ele>431</ele><time>2011-04-16T11:11:52Z</time></trkpt>
<trkpt lat="42.272480" lon="3.225675"><ele>428.2</ele><time>2011-04-16T11:11:57Z</time></trkpt>
<trkpt lat="42.272853" lon="3.225877"><ele>424.8</ele><time>2011-04-16T11:12:02Z</time></trkpt>
<trkpt lat="42.273270" lon="3.226135"><ele>421.8</ele><time>2011-04-16T11:12:07Z</time></trkpt>
<trkpt lat="42.273678" lon="3.226435"><ele>418.6</ele><time>2011-04-16T11:12:12Z</time></trkpt>
<trkpt lat="42.274063" lon="3.226717"><ele>415.2</ele><time>2011-04-16T11:12:17Z</time></trkpt>
<trkpt lat="42.274380" lon="3.226983"><ele>412.9</ele><time>2011-04-16T11:12:22Z</time></trkpt>
<trkpt lat="42.274513" lon="3.227292"><ele>412.3</ele><time>2011-04-16T11:12:27Z</time></trkpt>
<trkpt lat="42.274532" lon="3.227508"><ele>413.5</ele><time>2011-04-16T11:12:32Z</time></trkpt>
<trkpt lat="42.274537" lon="3.227625"><ele>414.5</ele><time>2011-04-16T11:12:37Z</time></trkpt>
<trkpt lat="42.274552" lon="3.227727"><ele>415.8</ele><time>2011-04-16T11:12:42Z</time></trkpt>
<trkpt lat="42.274540" lon="3.227873"><ele>416.5</ele><time>2011-04-16T11:12:47Z</time></trkpt>
<trkpt lat="42.274528" lon="3.228028"><ele>417.5</ele><time>2011-04-16T11:12:52Z</time></trkpt>
<trkpt lat="42.274517" lon="3.228187"><ele>418.3</ele><time>2011-04-16T11:12:57Z</time></trkpt>
<trkpt lat="42.274498" lon="3.228343"><ele>418.9</ele><time>2011-04-16T11:13:02Z</time></trkpt>
<trkpt lat="42.274472" lon="3.228498"><ele>419.7</ele><time>2011-04-16T11:13:07Z</time></trkpt>
<trkpt lat="42.274440" lon="3.228653"><ele>420.5</ele><time>2011-04-16T11:13:12Z</time></trkpt>
<trkpt lat="42.274403" lon="3.228817"><ele>421.4</ele><time>2011-04-16T11:13:17Z</time></trkpt>
<trkpt lat="42.274365" lon="3.228997"><ele>421.9</ele><time>2011-04-16T11:13:22Z</time></trkpt>
<trkpt lat="42.274318" lon="3.229163"><ele>421.7</ele><time>2011-04-16T11:13:27Z</time></trkpt>
<trkpt lat="42.274250" lon="3.229368"><ele>420.7</ele><time>2011-04-16T11:13:32Z</time></trkpt>
<trkpt lat="42.274108" lon="3.229613"><ele>418</ele><time>2011-04-16T11:13:37Z</time></trkpt>
<trkpt lat="42.274002" lon="3.229873"><ele>415.7</ele><time>2011-04-16T11:13:42Z</time></trkpt>
<trkpt lat="42.273952" lon="3.229948"><ele>415</ele><time>2011-04-16T11:13:47Z</time></trkpt>
<trkpt lat="42.273952" lon="3.229948"><ele>414.8</ele><time>2011-04-16T11:13:52Z</time></trkpt>
<trkpt lat="42.273952" lon="3.229948"><ele>414.5</ele><time>2011-04-16T11:13:57Z</time></trkpt>
<trkpt lat="42.273948" lon="3.229948"><ele>414.1</ele><time>2011-04-16T11:14:02Z</time></trkpt>
<trkpt lat="42.273948" lon="3.229950"><ele>413.8</ele><time>2011-04-16T11:14:07Z</time></trkpt>
<trkpt lat="42.273948" lon="3.229952"><ele>413.5</ele><time>2011-04-16T11:14:12Z</time></trkpt>
<trkpt lat="42.273948" lon="3.229952"><ele>413.3</ele><time>2011-04-16T11:14:17Z</time></trkpt>
<trkpt lat="42.273922" lon="3.229933"><ele>413.4</ele><time>2011-04-16T11:14:22Z</time></trkpt>
<trkpt lat="42.273818" lon="3.229873"><ele>412</ele><time>2011-04-16T11:14:27Z</time></trkpt>
<trkpt lat="42.273647" lon="3.229905"><ele>408.9</ele><time>2011-04-16T11:14:32Z</time></trkpt>
<trkpt lat="42.273453" lon="3.229937"><ele>404.3</ele><time>2011-04-16T11:14:37Z</time></trkpt>
<trkpt lat="42.273243" lon="3.229973"><ele>399.3</ele><time>2011-04-16T11:14:42Z</time></trkpt>
<trkpt lat="42.272968" lon="3.229998"><ele>392.6</ele><time>2011-04-16T11:14:47Z</time></trkpt>
<trkpt lat="42.272690" lon="3.230012"><ele>386.8</ele><time>2011-04-16T11:14:52Z</time></trkpt>
<trkpt lat="42.272442" lon="3.230045"><ele>382.8</ele><time>2011-04-16T11:14:57Z</time></trkpt>
<trkpt lat="42.272252" lon="3.230038"><ele>379.6</ele><time>2011-04-16T11:15:02Z</time></trkpt>
<trkpt lat="42.272027" lon="3.229952"><ele>374</ele><time>2011-04-16T11:15:07Z</time></trkpt>
<trkpt lat="42.271755" lon="3.229635"><ele>370.8</ele><time>2011-04-16T11:15:12Z</time></trkpt>
<trkpt lat="42.271538" lon="3.229460"><ele>371.4</ele><time>2011-04-16T11:15:17Z</time></trkpt>
<trkpt lat="42.271400" lon="3.229382"><ele>372.4</ele><time>2011-04-16T11:15:22Z</time></trkpt>
<trkpt lat="42.271252" lon="3.229337"><ele>373.4</ele><time>2011-04-16T11:15:27Z</time></trkpt>
<trkpt lat="42.271057" lon="3.229417"><ele>371.4</ele><time>2011-04-16T11:15:32Z</time></trkpt>
<trkpt lat="42.270748" lon="3.229542"><ele>368.5</ele><time>2011-04-16T11:15:37Z</time></trkpt>
<trkpt lat="42.270447" lon="3.229563"><ele>368</ele><time>2011-04-16T11:15:42Z</time></trkpt>
<trkpt lat="42.270230" lon="3.229582"><ele>368</ele><time>2011-04-16T11:15:47Z</time></trkpt>
<trkpt lat="42.270062" lon="3.229615"><ele>368.7</ele><time>2011-04-16T11:15:52Z</time></trkpt>
<trkpt lat="42.269863" lon="3.229658"><ele>367.3</ele><time>2011-04-16T11:15:57Z</time></trkpt>
<trkpt lat="42.269562" lon="3.229807"><ele>361.8</ele><time>2011-04-16T11:16:02Z</time></trkpt>
<trkpt lat="42.269153" lon="3.230005"><ele>354.4</ele><time>2011-04-16T11:16:07Z</time></trkpt>
<trkpt lat="42.268662" lon="3.230168"><ele>348</ele><time>2011-04-16T11:16:12Z</time></trkpt>
<trkpt lat="42.268177" lon="3.230428"><ele>342.6</ele><time>2011-04-16T11:16:17Z</time></trkpt>
<trkpt lat="42.267693" lon="3.230662"><ele>337.4</ele><time>2011-04-16T11:16:22Z</time></trkpt>
<trkpt lat="42.267147" lon="3.230720"><ele>331.8</ele><time>2011-04-16T11:16:27Z</time></trkpt>
<trkpt lat="42.266643" lon="3.230873"><ele>327.6</ele><time>2011-04-16T11:16:32Z</time></trkpt>
<trkpt lat="42.266212" lon="3.231028"><ele>322.4</ele><time>2011-04-16T11:16:37Z</time></trkpt>
<trkpt lat="42.265853" lon="3.231057"><ele>315.8</ele><time>2011-04-16T11:16:42Z</time></trkpt>
<trkpt lat="42.265507" lon="3.230662"><ele>310.6</ele><time>2011-04-16T11:16:47Z</time></trkpt>
<trkpt lat="42.265118" lon="3.230333"><ele>307.4</ele><time>2011-04-16T11:16:52Z</time></trkpt>
<trkpt lat="42.264713" lon="3.230133"><ele>304</ele><time>2011-04-16T11:16:57Z</time></trkpt>
<trkpt lat="42.264362" lon="3.229963"><ele>303</ele><time>2011-04-16T11:17:02Z</time></trkpt>
<trkpt lat="42.264110" lon="3.229835"><ele>303.5</ele><time>2011-04-16T11:17:07Z</time></trkpt>
<trkpt lat="42.263908" lon="3.229733"><ele>302.5</ele><time>2011-04-16T11:17:12Z</time></trkpt>
<trkpt lat="42.263568" lon="3.229652"><ele>298.2</ele><time>2011-04-16T11:17:17Z</time></trkpt>
<trkpt lat="42.263153" lon="3.229632"><ele>294.6</ele><time>2011-04-16T11:17:22Z</time></trkpt>
<trkpt lat="42.262695" lon="3.229583"><ele>289.4</ele><time>2011-04-16T11:17:27Z</time></trkpt>
<trkpt lat="42.262162" lon="3.229642"><ele>284.6</ele><time>2011-04-16T11:17:32Z</time></trkpt>
<trkpt lat="42.261750" lon="3.229773"><ele>284.3</ele><time>2011-04-16T11:17:37Z</time></trkpt>
<trkpt lat="42.261357" lon="3.229977"><ele>279.5</ele><time>2011-04-16T11:17:42Z</time></trkpt>
<trkpt lat="42.260937" lon="3.230262"><ele>277.7</ele><time>2011-04-16T11:17:47Z</time></trkpt>
<trkpt lat="42.260623" lon="3.230565"><ele>277.3</ele><time>2011-04-16T11:17:52Z</time></trkpt>
<trkpt lat="42.260253" lon="3.230815"><ele>274.2</ele><time>2011-04-16T11:17:57Z</time></trkpt>
<trkpt lat="42.259880" lon="3.231122"><ele>269.5</ele><time>2011-04-16T11:18:02Z</time></trkpt>
<trkpt lat="42.259377" lon="3.231368"><ele>261.1</ele><time>2011-04-16T11:18:07Z</time></trkpt>
<trkpt lat="42.258870" lon="3.231557"><ele>258</ele><time>2011-04-16T11:18:12Z</time></trkpt>
<trkpt lat="42.258403" lon="3.231453"><ele>253.7</ele><time>2011-04-16T11:18:17Z</time></trkpt>
<trkpt lat="42.257908" lon="3.231382"><ele>249.1</ele><time>2011-04-16T11:18:22Z</time></trkpt>
<trkpt lat="42.257560" lon="3.231608"><ele>248</ele><time>2011-04-16T11:18:27Z</time></trkpt>
<trkpt lat="42.257397" lon="3.232005"><ele>243.6</ele><time>2011-04-16T11:18:32Z</time></trkpt>
<trkpt lat="42.257298" lon="3.232435"><ele>236.1</ele><time>2011-04-16T11:18:37Z</time></trkpt>
<trkpt lat="42.257133" lon="3.232873"><ele>228.7</ele><time>2011-04-16T11:18:42Z</time></trkpt>
<trkpt lat="42.257160" lon="3.233382"><ele>221.6</ele><time>2011-04-16T11:18:47Z</time></trkpt>
<trkpt lat="42.257175" lon="3.234052"><ele>211.4</ele><time>2011-04-16T11:18:52Z</time></trkpt>
<trkpt lat="42.257092" lon="3.234757"><ele>205.7</ele><time>2011-04-16T11:18:57Z</time></trkpt>
<trkpt lat="42.256985" lon="3.235440"><ele>197.9</ele><time>2011-04-16T11:19:02Z</time></trkpt>
<trkpt lat="42.256873" lon="3.236147"><ele>192.4</ele><time>2011-04-16T11:19:07Z</time></trkpt>
<trkpt lat="42.256695" lon="3.236738"><ele>187.1</ele><time>2011-04-16T11:19:12Z</time></trkpt>
<trkpt lat="42.256603" lon="3.237440"><ele>179.5</ele><time>2011-04-16T11:19:17Z</time></trkpt>
<trkpt lat="42.256375" lon="3.238040"><ele>177</ele><time>2011-04-16T11:19:22Z</time></trkpt>
<trkpt lat="42.256187" lon="3.238452"><ele>177.2</ele><time>2011-04-16T11:19:27Z</time></trkpt>
<trkpt lat="42.256027" lon="3.238817"><ele>176.1</ele><time>2011-04-16T11:19:32Z</time></trkpt>
<trkpt lat="42.255840" lon="3.239192"><ele>175.1</ele><time>2011-04-16T11:19:37Z</time></trkpt>
<trkpt lat="42.255627" lon="3.239573"><ele>173.3</ele><time>2011-04-16T11:19:42Z</time></trkpt>
<trkpt lat="42.255375" lon="3.239970"><ele>167.8</ele><time>2011-04-16T11:19:47Z</time></trkpt>
<trkpt lat="42.255298" lon="3.240553"><ele>163.6</ele><time>2011-04-16T11:19:52Z</time></trkpt>
<trkpt lat="42.255322" lon="3.241147"><ele>163.4</ele><time>2011-04-16T11:19:57Z</time></trkpt>
<trkpt lat="42.255393" lon="3.241648"><ele>162.2</ele><time>2011-04-16T11:20:02Z</time></trkpt>
<trkpt lat="42.255577" lon="3.242175"><ele>158.2</ele><time>2011-04-16T11:20:07Z</time></trkpt>
<trkpt lat="42.255780" lon="3.242707"><ele>153.6</ele><time>2011-04-16T11:20:12Z</time></trkpt>
<trkpt lat="42.255707" lon="3.243250"><ele>147</ele><time>2011-04-16T11:20:17Z</time></trkpt>
<trkpt lat="42.255600" lon="3.243805"><ele>137.7</ele><time>2011-04-16T11:20:22Z</time></trkpt>
<trkpt lat="42.255627" lon="3.244320"><ele>133.2</ele><time>2011-04-16T11:20:27Z</time></trkpt>
<trkpt lat="42.255283" lon="3.244645"><ele>128.1</ele><time>2011-04-16T11:20:32Z</time></trkpt>
<trkpt lat="42.254913" lon="3.245030"><ele>124.8</ele><time>2011-04-16T11:20:37Z</time></trkpt>
<trkpt lat="42.254638" lon="3.245508"><ele>122.2</ele><time>2011-04-16T11:20:42Z</time></trkpt>
<trkpt lat="42.254460" lon="3.246010"><ele>119.9</ele><time>2011-04-16T11:20:47Z</time></trkpt>
<trkpt lat="42.254298" lon="3.246517"><ele>119</ele><time>2011-04-16T11:20:52Z</time></trkpt>
<trkpt lat="42.254283" lon="3.247122"><ele>115.8</ele><time>2011-04-16T11:20:57Z</time></trkpt>
<trkpt lat="42.254112" lon="3.247662"><ele>114</ele><time>2011-04-16T11:21:02Z</time></trkpt>
<trkpt lat="42.253967" lon="3.248130"><ele>112.7</ele><time>2011-04-16T11:21:07Z</time></trkpt>
<trkpt lat="42.253987" lon="3.248630"><ele>108.4</ele><time>2011-04-16T11:21:12Z</time></trkpt>
<trkpt lat="42.253913" lon="3.248937"><ele>105.4</ele><time>2011-04-16T11:21:17Z</time></trkpt>
<trkpt lat="42.253800" lon="3.248913"><ele>103.8</ele><time>2011-04-16T11:21:22Z</time></trkpt>
<trkpt lat="42.253720" lon="3.248833"><ele>102.3</ele><time>2011-04-16T11:21:27Z</time></trkpt>
<trkpt lat="42.253750" lon="3.248943"><ele>102.7</ele><time>2011-04-16T11:21:32Z</time></trkpt>
<trkpt lat="42.253848" lon="3.249087"><ele>103.3</ele><time>2011-04-16T11:21:37Z</time></trkpt>
<trkpt lat="42.253963" lon="3.249262"><ele>103.2</ele><time>2011-04-16T11:21:42Z</time></trkpt>
<trkpt lat="42.254138" lon="3.249463"><ele>101.9</ele><time>2011-04-16T11:21:47Z</time></trkpt>
<trkpt lat="42.254437" lon="3.249523"><ele>100.1</ele><time>2011-04-16T11:21:52Z</time></trkpt>
<trkpt lat="42.254772" lon="3.249428"><ele>97.9</ele><time>2011-04-16T11:21:57Z</time></trkpt>
<trkpt lat="42.255123" lon="3.249233"><ele>95.2</ele><time>2011-04-16T11:22:02Z</time></trkpt>
<trkpt lat="42.255437" lon="3.248932"><ele>92.4</ele><time>2011-04-16T11:22:07Z</time></trkpt>
<trkpt lat="42.255790" lon="3.248663"><ele>89.2</ele><time>2011-04-16T11:22:12Z</time></trkpt>
<trkpt lat="42.256115" lon="3.248527"><ele>86.2</ele><time>2011-04-16T11:22:17Z</time></trkpt>
<trkpt lat="42.256370" lon="3.248698"><ele>84.3</ele><time>2011-04-16T11:22:22Z</time></trkpt>
<trkpt lat="42.256508" lon="3.249085"><ele>81.8</ele><time>2011-04-16T11:22:27Z</time></trkpt>
<trkpt lat="42.256787" lon="3.249292"><ele>79.5</ele><time>2011-04-16T11:22:32Z</time></trkpt>
<trkpt lat="42.257092" lon="3.249113"><ele>77.2</ele><time>2011-04-16T11:22:37Z</time></trkpt>
<trkpt lat="42.257362" lon="3.248745"><ele>74.3</ele><time>2011-04-16T11:22:42Z</time></trkpt>
<trkpt lat="42.257652" lon="3.248392"><ele>73</ele><time>2011-04-16T11:22:47Z</time></trkpt>
<trkpt lat="42.257882" lon="3.248073"><ele>72.7</ele><time>2011-04-16T11:22:52Z</time></trkpt>
<trkpt lat="42.258152" lon="3.247818"><ele>70.5</ele><time>2011-04-16T11:22:57Z</time></trkpt>
<trkpt lat="42.258518" lon="3.247695"><ele>67.9</ele><time>2011-04-16T11:23:02Z</time></trkpt>
<trkpt lat="42.258918" lon="3.247643"><ele>64.2</ele><time>2011-04-16T11:23:07Z</time></trkpt>
<trkpt lat="42.259182" lon="3.247357"><ele>61.3</ele><time>2011-04-16T11:23:12Z</time></trkpt>
<trkpt lat="42.259163" lon="3.246828"><ele>57.6</ele><time>2011-04-16T11:23:17Z</time></trkpt>
<trkpt lat="42.259095" lon="3.246252"><ele>54.3</ele><time>2011-04-16T11:23:22Z</time></trkpt>
<trkpt lat="42.258918" lon="3.245768"><ele>51.1</ele><time>2011-04-16T11:23:27Z</time></trkpt>
<trkpt lat="42.258927" lon="3.245438"><ele>49.5</ele><time>2011-04-16T11:23:32Z</time></trkpt>
<trkpt lat="42.259193" lon="3.245517"><ele>48.5</ele><time>2011-04-16T11:23:37Z</time></trkpt>
<trkpt lat="42.259460" lon="3.245568"><ele>47.7</ele><time>2011-04-16T11:23:42Z</time></trkpt>
<trkpt lat="42.259700" lon="3.245425"><ele>46.9</ele><time>2011-04-16T11:23:47Z</time></trkpt>
<trkpt lat="42.259898" lon="3.245148"><ele>46</ele><time>2011-04-16T11:23:52Z</time></trkpt>
<trkpt lat="42.260063" lon="3.244857"><ele>45.1</ele><time>2011-04-16T11:23:57Z</time></trkpt>
<trkpt lat="42.260253" lon="3.244723"><ele>43.4</ele><time>2011-04-16T11:24:02Z</time></trkpt>
<trkpt lat="42.260235" lon="3.245002"><ele>41.9</ele><time>2011-04-16T11:24:07Z</time></trkpt>
<trkpt lat="42.260060" lon="3.245300"><ele>39.8</ele><time>2011-04-16T11:24:12Z</time></trkpt>
<trkpt lat="42.259823" lon="3.245560"><ele>38.3</ele><time>2011-04-16T11:24:17Z</time></trkpt>
<trkpt lat="42.259735" lon="3.245947"><ele>36.7</ele><time>2011-04-16T11:24:22Z</time></trkpt>
<trkpt lat="42.259830" lon="3.246290"><ele>36.8</ele><time>2011-04-16T11:24:27Z</time></trkpt>
<trkpt lat="42.259910" lon="3.246500"><ele>38.2</ele><time>2011-04-16T11:24:32Z</time></trkpt>
<trkpt lat="42.259995" lon="3.246607"><ele>39.4</ele><time>2011-04-16T11:24:37Z</time></trkpt>
<trkpt lat="42.260098" lon="3.246668"><ele>40.5</ele><time>2011-04-16T11:24:42Z</time></trkpt>
<trkpt lat="42.260200" lon="3.246680"><ele>41.6</ele><time>2011-04-16T11:24:47Z</time></trkpt>
<trkpt lat="42.260235" lon="3.246675"><ele>42.2</ele><time>2011-04-16T11:24:52Z</time></trkpt>
<trkpt lat="42.260235" lon="3.246675"><ele>42.2</ele><time>2011-04-16T11:24:57Z</time></trkpt>
<trkpt lat="42.260223" lon="3.246677"><ele>42.1</ele><time>2011-04-16T11:25:02Z</time></trkpt>
<trkpt lat="42.260247" lon="3.246678"><ele>42.2</ele><time>2011-04-16T11:25:07Z</time></trkpt>
<trkpt lat="42.260253" lon="3.246677"><ele>42.3</ele><time>2011-04-16T11:25:12Z</time></trkpt>
<trkpt lat="42.260288" lon="3.246705"><ele>42.9</ele><time>2011-04-16T11:25:17Z</time></trkpt>
<trkpt lat="42.260300" lon="3.246710"><ele>42.7</ele><time>2011-04-16T11:25:22Z</time></trkpt>
<trkpt lat="42.260300" lon="3.246712"><ele>42.6</ele><time>2011-04-16T11:25:27Z</time></trkpt>
<trkpt lat="42.260297" lon="3.246717"><ele>42.3</ele><time>2011-04-16T11:25:32Z</time></trkpt>
<trkpt lat="42.260297" lon="3.246720"><ele>42</ele><time>2011-04-16T11:25:37Z</time></trkpt>
<trkpt lat="42.260297" lon="3.246720"><ele>42.2</ele><time>2011-04-16T11:25:42Z</time></trkpt>
<trkpt lat="42.260323" lon="3.246733"><ele>42.8</ele><time>2011-04-16T11:25:47Z</time></trkpt>
<trkpt lat="42.260418" lon="3.246788"><ele>44.1</ele><time>2011-04-16T11:25:52Z</time></trkpt>
<trkpt lat="42.260517" lon="3.246827"><ele>45.3</ele><time>2011-04-16T11:25:57Z</time></trkpt>
<trkpt lat="42.260617" lon="3.246868"><ele>46.5</ele><time>2011-04-16T11:26:02Z</time></trkpt>
<trkpt lat="42.260712" lon="3.246915"><ele>47.8</ele><time>2011-04-16T11:26:07Z</time></trkpt>
<trkpt lat="42.260803" lon="3.246982"><ele>49</ele><time>2011-04-16T11:26:12Z</time></trkpt>
<trkpt lat="42.260872" lon="3.247085"><ele>50</ele><time>2011-04-16T11:26:17Z</time></trkpt>
<trkpt lat="42.260913" lon="3.247213"><ele>50.8</ele><time>2011-04-16T11:26:22Z</time></trkpt>
<trkpt lat="42.260933" lon="3.247363"><ele>51.5</ele><time>2011-04-16T11:26:27Z</time></trkpt>
<trkpt lat="42.260972" lon="3.247500"><ele>52.3</ele><time>2011-04-16T11:26:32Z</time></trkpt>
<trkpt lat="42.261025" lon="3.247628"><ele>53.2</ele><time>2011-04-16T11:26:37Z</time></trkpt>
<trkpt lat="42.261078" lon="3.247752"><ele>54</ele><time>2011-04-16T11:26:42Z</time></trkpt>
<trkpt lat="42.261143" lon="3.247865"><ele>55</ele><time>2011-04-16T11:26:47Z</time></trkpt>
<trkpt lat="42.261212" lon="3.247977"><ele>56</ele><time>2011-04-16T11:26:52Z</time></trkpt>
<trkpt lat="42.261250" lon="3.248110"><ele>56.9</ele><time>2011-04-16T11:26:57Z</time></trkpt>
<trkpt lat="42.261218" lon="3.248243"><ele>57.5</ele><time>2011-04-16T11:27:02Z</time></trkpt>
<trkpt lat="42.261132" lon="3.248325"><ele>58.1</ele><time>2011-04-16T11:27:07Z</time></trkpt>
<trkpt lat="42.261028" lon="3.248382"><ele>58.8</ele><time>2011-04-16T11:27:12Z</time></trkpt>
<trkpt lat="42.260933" lon="3.248452"><ele>59.4</ele><time>2011-04-16T11:27:17Z</time></trkpt>
<trkpt lat="42.260842" lon="3.248535"><ele>59.9</ele><time>2011-04-16T11:27:22Z</time></trkpt>
<trkpt lat="42.260762" lon="3.248623"><ele>60.9</ele><time>2011-04-16T11:27:27Z</time></trkpt>
<trkpt lat="42.260670" lon="3.248737"><ele>61.1</ele><time>2011-04-16T11:27:32Z</time></trkpt>
<trkpt lat="42.260575" lon="3.248830"><ele>61.7</ele><time>2011-04-16T11:27:37Z</time></trkpt>
<trkpt lat="42.260472" lon="3.248895"><ele>62.5</ele><time>2011-04-16T11:27:42Z</time></trkpt>
<trkpt lat="42.260372" lon="3.248953"><ele>63.2</ele><time>2011-04-16T11:27:47Z</time></trkpt>
<trkpt lat="42.260280" lon="3.249017"><ele>64</ele><time>2011-04-16T11:27:52Z</time></trkpt>
<trkpt lat="42.260193" lon="3.249088"><ele>65.1</ele><time>2011-04-16T11:27:57Z</time></trkpt>
<trkpt lat="42.260105" lon="3.249175"><ele>65.8</ele><time>2011-04-16T11:28:02Z</time></trkpt>
<trkpt lat="42.260060" lon="3.249290"><ele>66.7</ele><time>2011-04-16T11:28:07Z</time></trkpt>
<trkpt lat="42.260132" lon="3.249360"><ele>67.8</ele><time>2011-04-16T11:28:12Z</time></trkpt>
<trkpt lat="42.260215" lon="3.249277"><ele>68.8</ele><time>2011-04-16T11:28:17Z</time></trkpt>
<trkpt lat="42.260303" lon="3.249193"><ele>69.6</ele><time>2011-04-16T11:28:22Z</time></trkpt>
<trkpt lat="42.260395" lon="3.249140"><ele>70.4</ele><time>2011-04-16T11:28:27Z</time></trkpt>
<trkpt lat="42.260502" lon="3.249112"><ele>71.1</ele><time>2011-04-16T11:28:32Z</time></trkpt>
<trkpt lat="42.260605" lon="3.249082"><ele>71.7</ele><time>2011-04-16T11:28:37Z</time></trkpt>
<trkpt lat="42.260700" lon="3.249033"><ele>72.5</ele><time>2011-04-16T11:28:42Z</time></trkpt>
<trkpt lat="42.260788" lon="3.248955"><ele>73.2</ele><time>2011-04-16T11:28:47Z</time></trkpt>
<trkpt lat="42.260875" lon="3.248875"><ele>74</ele><time>2011-04-16T11:28:52Z</time></trkpt>
<trkpt lat="42.260960" lon="3.248802"><ele>75</ele><time>2011-04-16T11:28:57Z</time></trkpt>
<trkpt lat="42.261052" lon="3.248745"><ele>75.9</ele><time>2011-04-16T11:29:02Z</time></trkpt>
<trkpt lat="42.261143" lon="3.248715"><ele>76.7</ele><time>2011-04-16T11:29:07Z</time></trkpt>
<trkpt lat="42.261245" lon="3.248697"><ele>77.3</ele><time>2011-04-16T11:29:12Z</time></trkpt>
<trkpt lat="42.261342" lon="3.248668"><ele>77.8</ele><time>2011-04-16T11:29:17Z</time></trkpt>
<trkpt lat="42.261440" lon="3.248628"><ele>78.5</ele><time>2011-04-16T11:29:22Z</time></trkpt>
<trkpt lat="42.261540" lon="3.248593"><ele>79.2</ele><time>2011-04-16T11:29:27Z</time></trkpt>
<trkpt lat="42.261647" lon="3.248582"><ele>79.7</ele><time>2011-04-16T11:29:32Z</time></trkpt>
<trkpt lat="42.261750" lon="3.248595"><ele>80.3</ele><time>2011-04-16T11:29:37Z</time></trkpt>
<trkpt lat="42.261848" lon="3.248537"><ele>80.9</ele><time>2011-04-16T11:29:42Z</time></trkpt>
<trkpt lat="42.261917" lon="3.248438"><ele>81.6</ele><time>2011-04-16T11:29:47Z</time></trkpt>
<trkpt lat="42.261940" lon="3.248295"><ele>82.3</ele><time>2011-04-16T11:29:52Z</time></trkpt>
<trkpt lat="42.261890" lon="3.248158"><ele>83.1</ele><time>2011-04-16T11:29:57Z</time></trkpt>
<trkpt lat="42.261830" lon="3.248035"><ele>84</ele><time>2011-04-16T11:30:02Z</time></trkpt>
<trkpt lat="42.261768" lon="3.247917"><ele>85.1</ele><time>2011-04-16T11:30:07Z</time></trkpt>
<trkpt lat="42.261727" lon="3.247788"><ele>86.3</ele><time>2011-04-16T11:30:12Z</time></trkpt>
<trkpt lat="42.261688" lon="3.247657"><ele>87.5</ele><time>2011-04-16T11:30:17Z</time></trkpt>
<trkpt lat="42.261668" lon="3.247522"><ele>88.8</ele><time>2011-04-16T11:30:22Z</time></trkpt>
<trkpt lat="42.261662" lon="3.247368"><ele>89.7</ele><time>2011-04-16T11:30:27Z</time></trkpt>
<trkpt lat="42.261673" lon="3.247222"><ele>90.9</ele><time>2011-04-16T11:30:32Z</time></trkpt>
<trkpt lat="42.261680" lon="3.247080"><ele>92.1</ele><time>2011-04-16T11:30:37Z</time></trkpt>
<trkpt lat="42.261668" lon="3.246943"><ele>93.2</ele><time>2011-04-16T11:30:42Z</time></trkpt>
<trkpt lat="42.261658" lon="3.246803"><ele>94.2</ele><time>2011-04-16T11:30:47Z</time></trkpt>
<trkpt lat="42.261658" lon="3.246662"><ele>95.1</ele><time>2011-04-16T11:30:52Z</time></trkpt>
<trkpt lat="42.261688" lon="3.246525"><ele>96</ele><time>2011-04-16T11:30:57Z</time></trkpt>
<trkpt lat="42.261697" lon="3.246382"><ele>97</ele><time>2011-04-16T11:31:02Z</time></trkpt>
<trkpt lat="42.261638" lon="3.246260"><ele>97.8</ele><time>2011-04-16T11:31:07Z</time></trkpt>
<trkpt lat="42.261547" lon="3.246182"><ele>98.7</ele><time>2011-04-16T11:31:12Z</time></trkpt>
<trkpt lat="42.261455" lon="3.246103"><ele>99.8</ele><time>2011-04-16T11:31:17Z</time></trkpt>
<trkpt lat="42.261363" lon="3.246022"><ele>100.8</ele><time>2011-04-16T11:31:22Z</time></trkpt>
<trkpt lat="42.261292" lon="3.245923"><ele>101.8</ele><time>2011-04-16T11:31:27Z</time></trkpt>
<trkpt lat="42.261235" lon="3.245803"><ele>102.9</ele><time>2011-04-16T11:31:32Z</time></trkpt>
<trkpt lat="42.261230" lon="3.245658"><ele>103.7</ele><time>2011-04-16T11:31:37Z</time></trkpt>
<trkpt lat="42.261257" lon="3.245517"><ele>104.6</ele><time>2011-04-16T11:31:42Z</time></trkpt>
<trkpt lat="42.261298" lon="3.245387"><ele>105.4</ele><time>2011-04-16T11:31:47Z</time></trkpt>
<trkpt lat="42.261353" lon="3.245262"><ele>106.4</ele><time>2011-04-16T11:31:52Z</time></trkpt>
<trkpt lat="42.261390" lon="3.245133"><ele>107.1</ele><time>2011-04-16T11:31:57Z</time></trkpt>
<trkpt lat="42.261437" lon="3.244998"><ele>108.1</ele><time>2011-04-16T11:32:02Z</time></trkpt>
<trkpt lat="42.261482" lon="3.244880"><ele>109.3</ele><time>2011-04-16T11:32:07Z</time></trkpt>
<trkpt lat="42.261535" lon="3.244762"><ele>110.3</ele><time>2011-04-16T11:32:12Z</time></trkpt>
<trkpt lat="42.261585" lon="3.244640"><ele>111.1</ele><time>2011-04-16T11:32:17Z</time></trkpt>
<trkpt lat="42.261632" lon="3.244515"><ele>112.1</ele><time>2011-04-16T11:32:22Z</time></trkpt>
<trkpt lat="42.261685" lon="3.244395"><ele>113</ele><time>2011-04-16T11:32:27Z</time></trkpt>
<trkpt lat="42.261730" lon="3.244282"><ele>114</ele><time>2011-04-16T11:32:32Z</time></trkpt>
<trkpt lat="42.261803" lon="3.244180"><ele>114.8</ele><time>2011-04-16T11:32:37Z</time></trkpt>
<trkpt lat="42.261890" lon="3.244117"><ele>115.8</ele><time>2011-04-16T11:32:42Z</time></trkpt>
<trkpt lat="42.261982" lon="3.244087"><ele>116.9</ele><time>2011-04-16T11:32:47Z</time></trkpt>
<trkpt lat="42.262067" lon="3.244072"><ele>118</ele><time>2011-04-16T11:32:52Z</time></trkpt>
<trkpt lat="42.262150" lon="3.244028"><ele>118.4</ele><time>2011-04-16T11:32:57Z</time></trkpt>
<trkpt lat="42.262230" lon="3.243962"><ele>119.4</ele><time>2011-04-16T11:33:02Z</time></trkpt>
<trkpt lat="42.262310" lon="3.243907"><ele>120.2</ele><time>2011-04-16T11:33:07Z</time></trkpt>
<trkpt lat="42.262378" lon="3.243843"><ele>121</ele><time>2011-04-16T11:33:12Z</time></trkpt>
<trkpt lat="42.262455" lon="3.243790"><ele>121.7</ele><time>2011-04-16T11:33:17Z</time></trkpt>
<trkpt lat="42.262538" lon="3.243753"><ele>122.3</ele><time>2011-04-16T11:33:22Z</time></trkpt>
<trkpt lat="42.262630" lon="3.243743"><ele>123.1</ele><time>2011-04-16T11:33:27Z</time></trkpt>
<trkpt lat="42.262683" lon="3.243820"><ele>124.6</ele><time>2011-04-16T11:33:32Z</time></trkpt>
<trkpt lat="42.262627" lon="3.243917"><ele>126.3</ele><time>2011-04-16T11:33:37Z</time></trkpt>
<trkpt lat="42.262538" lon="3.243972"><ele>127.5</ele><time>2011-04-16T11:33:42Z</time></trkpt>
<trkpt lat="42.262458" lon="3.244038"><ele>128.6</ele><time>2011-04-16T11:33:47Z</time></trkpt>
<trkpt lat="42.262383" lon="3.244132"><ele>129.5</ele><time>2011-04-16T11:33:52Z</time></trkpt>
<trkpt lat="42.262340" lon="3.244245"><ele>130.4</ele><time>2011-04-16T11:33:57Z</time></trkpt>
<trkpt lat="42.262275" lon="3.244348"><ele>131</ele><time>2011-04-16T11:34:02Z</time></trkpt>
<trkpt lat="42.262200" lon="3.244430"><ele>131.9</ele><time>2011-04-16T11:34:07Z</time></trkpt>
<trkpt lat="42.262127" lon="3.244517"><ele>132.9</ele><time>2011-04-16T11:34:12Z</time></trkpt>
<trkpt lat="42.262058" lon="3.244613"><ele>133.8</ele><time>2011-04-16T11:34:17Z</time></trkpt>
<trkpt lat="42.262017" lon="3.244730"><ele>134.6</ele><time>2011-04-16T11:34:22Z</time></trkpt>
<trkpt lat="42.261990" lon="3.244853"><ele>135.4</ele><time>2011-04-16T11:34:27Z</time></trkpt>
<trkpt lat="42.261990" lon="3.244985"><ele>136.2</ele><time>2011-04-16T11:34:32Z</time></trkpt>
<trkpt lat="42.262017" lon="3.245108"><ele>137</ele><time>2011-04-16T11:34:37Z</time></trkpt>
<trkpt lat="42.262067" lon="3.245218"><ele>137.8</ele><time>2011-04-16T11:34:42Z</time></trkpt>
<trkpt lat="42.262123" lon="3.245322"><ele>138.8</ele><time>2011-04-16T11:34:47Z</time></trkpt>
<trkpt lat="42.262195" lon="3.245405"><ele>139.9</ele><time>2011-04-16T11:34:52Z</time></trkpt>
<trkpt lat="42.262283" lon="3.245482"><ele>140.5</ele><time>2011-04-16T11:34:57Z</time></trkpt>
<trkpt lat="42.262375" lon="3.245533"><ele>141.3</ele><time>2011-04-16T11:35:02Z</time></trkpt>
<trkpt lat="42.262467" lon="3.245575"><ele>142</ele><time>2011-04-16T11:35:07Z</time></trkpt>
<trkpt lat="42.262555" lon="3.245618"><ele>142.7</ele><time>2011-04-16T11:35:12Z</time></trkpt>
<trkpt lat="42.262645" lon="3.245668"><ele>143.3</ele><time>2011-04-16T11:35:17Z</time></trkpt>
<trkpt lat="42.262733" lon="3.245723"><ele>144</ele><time>2011-04-16T11:35:22Z</time></trkpt>
<trkpt lat="42.262807" lon="3.245797"><ele>144.9</ele><time>2011-04-16T11:35:27Z</time></trkpt>
<trkpt lat="42.262867" lon="3.245890"><ele>145.7</ele><time>2011-04-16T11:35:32Z</time></trkpt>
<trkpt lat="42.262908" lon="3.245997"><ele>146.6</ele><time>2011-04-16T11:35:37Z</time></trkpt>
<trkpt lat="42.262952" lon="3.246113"><ele>147.6</ele><time>2011-04-16T11:35:42Z</time></trkpt>
<trkpt lat="42.262962" lon="3.246245"><ele>148.3</ele><time>2011-04-16T11:35:47Z</time></trkpt>
<trkpt lat="42.262952" lon="3.246380"><ele>149.2</ele><time>2011-04-16T11:35:52Z</time></trkpt>
<trkpt lat="42.262925" lon="3.246505"><ele>150.2</ele><time>2011-04-16T11:35:57Z</time></trkpt>
<trkpt lat="42.262905" lon="3.246637"><ele>151</ele><time>2011-04-16T11:36:02Z</time></trkpt>
<trkpt lat="42.262897" lon="3.246768"><ele>151.5</ele><time>2011-04-16T11:36:07Z</time></trkpt>
<trkpt lat="42.262920" lon="3.246902"><ele>152.1</ele><time>2011-04-16T11:36:12Z</time></trkpt>
<trkpt lat="42.262985" lon="3.247002"><ele>152.8</ele><time>2011-04-16T11:36:17Z</time></trkpt>
<trkpt lat="42.263073" lon="3.247068"><ele>153.5</ele><time>2011-04-16T11:36:22Z</time></trkpt>
<trkpt lat="42.263165" lon="3.247123"><ele>154.2</ele><time>2011-04-16T11:36:27Z</time></trkpt>
<trkpt lat="42.263257" lon="3.247178"><ele>155</ele><time>2011-04-16T11:36:32Z</time></trkpt>
<trkpt lat="42.263348" lon="3.247248"><ele>155.6</ele><time>2011-04-16T11:36:37Z</time></trkpt>
<trkpt lat="42.263432" lon="3.247320"><ele>156.5</ele><time>2011-04-16T11:36:42Z</time></trkpt>
<trkpt lat="42.263527" lon="3.247367"><ele>157.4</ele><time>2011-04-16T11:36:47Z</time></trkpt>
<trkpt lat="42.263622" lon="3.247395"><ele>158</ele><time>2011-04-16T11:36:52Z</time></trkpt>
<trkpt lat="42.263710" lon="3.247425"><ele>158.6</ele><time>2011-04-16T11:36:57Z</time></trkpt>
<trkpt lat="42.263805" lon="3.247445"><ele>159.4</ele><time>2011-04-16T11:37:02Z</time></trkpt>
<trkpt lat="42.263897" lon="3.247462"><ele>160</ele><time>2011-04-16T11:37:07Z</time></trkpt>
<trkpt lat="42.263917" lon="3.247463"><ele>160.1</ele><time>2011-04-16T11:37:12Z</time></trkpt>
<trkpt lat="42.263962" lon="3.247465"><ele>160.1</ele><time>2011-04-16T11:37:17Z</time></trkpt>
<trkpt lat="42.264072" lon="3.247497"><ele>160.5</ele><time>2011-04-16T11:37:22Z</time></trkpt>
<trkpt lat="42.264145" lon="3.247590"><ele>161.2</ele><time>2011-04-16T11:37:27Z</time></trkpt>
<trkpt lat="42.264153" lon="3.247737"><ele>162.1</ele><time>2011-04-16T11:37:32Z</time></trkpt>
<trkpt lat="42.264122" lon="3.247893"><ele>163</ele><time>2011-04-16T11:37:37Z</time></trkpt>
<trkpt lat="42.264103" lon="3.248045"><ele>164.1</ele><time>2011-04-16T11:37:42Z</time></trkpt>
<trkpt lat="42.264095" lon="3.248193"><ele>165.3</ele><time>2011-04-16T11:37:47Z</time></trkpt>
<trkpt lat="42.264148" lon="3.248342"><ele>166.1</ele><time>2011-04-16T11:37:52Z</time></trkpt>
<trkpt lat="42.264233" lon="3.248440"><ele>167.1</ele><time>2011-04-16T11:37:57Z</time></trkpt>
<trkpt lat="42.264325" lon="3.248520"><ele>168</ele><time>2011-04-16T11:38:02Z</time></trkpt>
<trkpt lat="42.264412" lon="3.248603"><ele>169.1</ele><time>2011-04-16T11:38:07Z</time></trkpt>
<trkpt lat="42.264492" lon="3.248688"><ele>170.2</ele><time>2011-04-16T11:38:12Z</time></trkpt>
<trkpt lat="42.264568" lon="3.248783"><ele>171.1</ele><time>2011-04-16T11:38:17Z</time></trkpt>
<trkpt lat="42.264645" lon="3.248885"><ele>171.9</ele><time>2011-04-16T11:38:22Z</time></trkpt>
<trkpt lat="42.264722" lon="3.248983"><ele>172.8</ele><time>2011-04-16T11:38:27Z</time></trkpt>
<trkpt lat="42.264793" lon="3.249082"><ele>173.7</ele><time>2011-04-16T11:38:32Z</time></trkpt>
<trkpt lat="42.264870" lon="3.249183"><ele>174.6</ele><time>2011-04-16T11:38:37Z</time></trkpt>
<trkpt lat="42.264950" lon="3.249283"><ele>175.5</ele><time>2011-04-16T11:38:42Z</time></trkpt>
<trkpt lat="42.265033" lon="3.249372"><ele>176.5</ele><time>2011-04-16T11:38:47Z</time></trkpt>
<trkpt lat="42.265128" lon="3.249462"><ele>177.3</ele><time>2011-04-16T11:38:52Z</time></trkpt>
<trkpt lat="42.265240" lon="3.249523"><ele>177.9</ele><time>2011-04-16T11:38:57Z</time></trkpt>
<trkpt lat="42.265353" lon="3.249538"><ele>178.7</ele><time>2011-04-16T11:39:02Z</time></trkpt>
<trkpt lat="42.265472" lon="3.249513"><ele>179.4</ele><time>2011-04-16T11:39:07Z</time></trkpt>
<trkpt lat="42.265583" lon="3.249462"><ele>180.3</ele><time>2011-04-16T11:39:12Z</time></trkpt>
<trkpt lat="42.265702" lon="3.249408"><ele>180.3</ele><time>2011-04-16T11:39:17Z</time></trkpt>
<trkpt lat="42.265832" lon="3.249365"><ele>180.9</ele><time>2011-04-16T11:39:22Z</time></trkpt>
<trkpt lat="42.265960" lon="3.249325"><ele>181.6</ele><time>2011-04-16T11:39:27Z</time></trkpt>
<trkpt lat="42.266090" lon="3.249290"><ele>182.3</ele><time>2011-04-16T11:39:32Z</time></trkpt>
<trkpt lat="42.266220" lon="3.249262"><ele>183.1</ele><time>2011-04-16T11:39:37Z</time></trkpt>
<trkpt lat="42.266353" lon="3.249232"><ele>183.9</ele><time>2011-04-16T11:39:42Z</time></trkpt>
<trkpt lat="42.266487" lon="3.249223"><ele>184.9</ele><time>2011-04-16T11:39:47Z</time></trkpt>
<trkpt lat="42.266613" lon="3.249237"><ele>185.9</ele><time>2011-04-16T11:39:52Z</time></trkpt>
<trkpt lat="42.266743" lon="3.249238"><ele>186.9</ele><time>2011-04-16T11:39:57Z</time></trkpt>
<trkpt lat="42.266877" lon="3.249198"><ele>187.4</ele><time>2011-04-16T11:40:02Z</time></trkpt>
<trkpt lat="42.266998" lon="3.249153"><ele>188.1</ele><time>2011-04-16T11:40:07Z</time></trkpt>
<trkpt lat="42.267120" lon="3.249105"><ele>188.8</ele><time>2011-04-16T11:40:12Z</time></trkpt>
<trkpt lat="42.267247" lon="3.249077"><ele>189.7</ele><time>2011-04-16T11:40:17Z</time></trkpt>
<trkpt lat="42.267368" lon="3.249043"><ele>190.6</ele><time>2011-04-16T11:40:22Z</time></trkpt>
<trkpt lat="42.267495" lon="3.249027"><ele>191.3</ele><time>2011-04-16T11:40:27Z</time></trkpt>
<trkpt lat="42.267597" lon="3.249112"><ele>191.8</ele><time>2011-04-16T11:40:32Z</time></trkpt>
<trkpt lat="42.267558" lon="3.249267"><ele>192.9</ele><time>2011-04-16T11:40:37Z</time></trkpt>
<trkpt lat="42.267472" lon="3.249387"><ele>194.1</ele><time>2011-04-16T11:40:42Z</time></trkpt>
<trkpt lat="42.267387" lon="3.249513"><ele>195.2</ele><time>2011-04-16T11:40:47Z</time></trkpt>
<trkpt lat="42.267315" lon="3.249657"><ele>196.2</ele><time>2011-04-16T11:40:52Z</time></trkpt>
<trkpt lat="42.267258" lon="3.249817"><ele>197.1</ele><time>2011-04-16T11:40:57Z</time></trkpt>
<trkpt lat="42.267208" lon="3.249983"><ele>197.9</ele><time>2011-04-16T11:41:02Z</time></trkpt>
<trkpt lat="42.267170" lon="3.250157"><ele>198.7</ele><time>2011-04-16T11:41:07Z</time></trkpt>
<trkpt lat="42.267155" lon="3.250332"><ele>199.6</ele><time>2011-04-16T11:41:12Z</time></trkpt>
<trkpt lat="42.267200" lon="3.250490"><ele>200.3</ele><time>2011-04-16T11:41:17Z</time></trkpt>
<trkpt lat="42.267292" lon="3.250618"><ele>201</ele><time>2011-04-16T11:41:22Z</time></trkpt>
<trkpt lat="42.267380" lon="3.250733"><ele>202</ele><time>2011-04-16T11:41:27Z</time></trkpt>
<trkpt lat="42.267460" lon="3.250855"><ele>202.8</ele><time>2011-04-16T11:41:32Z</time></trkpt>
<trkpt lat="42.267543" lon="3.250982"><ele>203.6</ele><time>2011-04-16T11:41:37Z</time></trkpt>
<trkpt lat="42.267620" lon="3.251120"><ele>204.4</ele><time>2011-04-16T11:41:42Z</time></trkpt>
<trkpt lat="42.267693" lon="3.251262"><ele>205.1</ele><time>2011-04-16T11:41:47Z</time></trkpt>
<trkpt lat="42.267788" lon="3.251390"><ele>205.7</ele><time>2011-04-16T11:41:52Z</time></trkpt>
<trkpt lat="42.267883" lon="3.251522"><ele>206.3</ele><time>2011-04-16T11:41:57Z</time></trkpt>
<trkpt lat="42.267945" lon="3.251678"><ele>206.9</ele><time>2011-04-16T11:42:02Z</time></trkpt>
<trkpt lat="42.267948" lon="3.251857"><ele>207.8</ele><time>2011-04-16T11:42:07Z</time></trkpt>
<trkpt lat="42.267940" lon="3.252035"><ele>208.7</ele><time>2011-04-16T11:42:12Z</time></trkpt>
<trkpt lat="42.267913" lon="3.252215"><ele>209.5</ele><time>2011-04-16T11:42:17Z</time></trkpt>
<trkpt lat="42.267872" lon="3.252392"><ele>210.3</ele><time>2011-04-16T11:42:22Z</time></trkpt>
<trkpt lat="42.267827" lon="3.252567"><ele>211.1</ele><time>2011-04-16T11:42:27Z</time></trkpt>
<trkpt lat="42.267780" lon="3.252735"><ele>212.2</ele><time>2011-04-16T11:42:32Z</time></trkpt>
<trkpt lat="42.267777" lon="3.252918"><ele>213.1</ele><time>2011-04-16T11:42:37Z</time></trkpt>
<trkpt lat="42.267833" lon="3.253100"><ele>213.8</ele><time>2011-04-16T11:42:42Z</time></trkpt>
<trkpt lat="42.267913" lon="3.253232"><ele>214.6</ele><time>2011-04-16T11:42:47Z</time></trkpt>
<trkpt lat="42.268010" lon="3.253357"><ele>215.4</ele><time>2011-04-16T11:42:52Z</time></trkpt>
<trkpt lat="42.268085" lon="3.253500"><ele>216.3</ele><time>2011-04-16T11:42:57Z</time></trkpt>
<trkpt lat="42.268170" lon="3.253647"><ele>217.2</ele><time>2011-04-16T11:43:02Z</time></trkpt>
<trkpt lat="42.268158" lon="3.253815"><ele>217.9</ele><time>2011-04-16T11:43:07Z</time></trkpt>
<trkpt lat="42.268032" lon="3.253873"><ele>218.2</ele><time>2011-04-16T11:43:12Z</time></trkpt>
<trkpt lat="42.267892" lon="3.253888"><ele>218.3</ele><time>2011-04-16T11:43:17Z</time></trkpt>
<trkpt lat="42.267757" lon="3.253935"><ele>218.3</ele><time>2011-04-16T11:43:22Z</time></trkpt>
<trkpt lat="42.267623" lon="3.253975"><ele>218.4</ele><time>2011-04-16T11:43:27Z</time></trkpt>
<trkpt lat="42.267487" lon="3.254020"><ele>218.8</ele><time>2011-04-16T11:43:32Z</time></trkpt>
<trkpt lat="42.267353" lon="3.254108"><ele>219.2</ele><time>2011-04-16T11:43:37Z</time></trkpt>
<trkpt lat="42.267232" lon="3.254260"><ele>219.4</ele><time>2011-04-16T11:43:42Z</time></trkpt>
<trkpt lat="42.267125" lon="3.254468"><ele>219.7</ele><time>2011-04-16T11:43:47Z</time></trkpt>
<trkpt lat="42.267097" lon="3.254740"><ele>220.1</ele><time>2011-04-16T11:43:52Z</time></trkpt>
<trkpt lat="42.267102" lon="3.255015"><ele>220.5</ele><time>2011-04-16T11:43:57Z</time></trkpt>
<trkpt lat="42.266953" lon="3.255133"><ele>221.4</ele><time>2011-04-16T11:44:02Z</time></trkpt>
<trkpt lat="42.266770" lon="3.255147"><ele>221.9</ele><time>2011-04-16T11:44:07Z</time></trkpt>
<trkpt lat="42.266578" lon="3.255147"><ele>222.5</ele><time>2011-04-16T11:44:12Z</time></trkpt>
<trkpt lat="42.266383" lon="3.255218"><ele>222.8</ele><time>2011-04-16T11:44:17Z</time></trkpt>
<trkpt lat="42.266190" lon="3.255312"><ele>223.4</ele><time>2011-04-16T11:44:22Z</time></trkpt>
<trkpt lat="42.266010" lon="3.255368"><ele>224.1</ele><time>2011-04-16T11:44:27Z</time></trkpt>
<trkpt lat="42.265838" lon="3.255458"><ele>224.8</ele><time>2011-04-16T11:44:32Z</time></trkpt>
<trkpt lat="42.265725" lon="3.255672"><ele>225.1</ele><time>2011-04-16T11:44:37Z</time></trkpt>
<trkpt lat="42.265643" lon="3.255928"><ele>225</ele><time>2011-04-16T11:44:42Z</time></trkpt>
<trkpt lat="42.265572" lon="3.256198"><ele>224.9</ele><time>2011-04-16T11:44:47Z</time></trkpt>
<trkpt lat="42.265503" lon="3.256458"><ele>224.8</ele><time>2011-04-16T11:44:52Z</time></trkpt>
<trkpt lat="42.265427" lon="3.256728"><ele>224.6</ele><time>2011-04-16T11:44:57Z</time></trkpt>
<trkpt lat="42.265353" lon="3.257043"><ele>224.4</ele><time>2011-04-16T11:45:02Z</time></trkpt>
<trkpt lat="42.265320" lon="3.257388"><ele>224.1</ele><time>2011-04-16T11:45:07Z</time></trkpt>
<trkpt lat="42.265300" lon="3.257735"><ele>223.8</ele><time>2011-04-16T11:45:12Z</time></trkpt>
<trkpt lat="42.265305" lon="3.258080"><ele>223.6</ele><time>2011-04-16T11:45:17Z</time></trkpt>
<trkpt lat="42.265297" lon="3.258437"><ele>223.4</ele><time>2011-04-16T11:45:22Z</time></trkpt>
<trkpt lat="42.265178" lon="3.258753"><ele>223.5</ele><time>2011-04-16T11:45:27Z</time></trkpt>
<trkpt lat="42.265038" lon="3.259073"><ele>223.5</ele><time>2011-04-16T11:45:32Z</time></trkpt>
<trkpt lat="42.264885" lon="3.259373"><ele>224</ele><time>2011-04-16T11:45:37Z</time></trkpt>
<trkpt lat="42.264702" lon="3.259595"><ele>224.6</ele><time>2011-04-16T11:45:42Z</time></trkpt>
<trkpt lat="42.264462" lon="3.259700"><ele>225</ele><time>2011-04-16T11:45:47Z</time></trkpt>
<trkpt lat="42.264260" lon="3.259843"><ele>225.5</ele><time>2011-04-16T11:45:52Z</time></trkpt>
<trkpt lat="42.264222" lon="3.259922"><ele>225.6</ele><time>2011-04-16T11:45:57Z</time></trkpt>
<trkpt lat="42.264225" lon="3.259923"><ele>225.5</ele><time>2011-04-16T11:46:02Z</time></trkpt>
<trkpt lat="42.264217" lon="3.259920"><ele>225.4</ele><time>2011-04-16T11:46:07Z</time></trkpt>
<trkpt lat="42.264225" lon="3.259910"><ele>225.1</ele><time>2011-04-16T11:46:12Z</time></trkpt>
<trkpt lat="42.264207" lon="3.259925"><ele>225</ele><time>2011-04-16T11:46:17Z</time></trkpt>
<trkpt lat="42.264202" lon="3.259933"><ele>225.2</ele><time>2011-04-16T11:46:22Z</time></trkpt>
<trkpt lat="42.264187" lon="3.259942"><ele>225.7</ele><time>2011-04-16T11:46:27Z</time></trkpt>
<trkpt lat="42.264153" lon="3.259960"><ele>226.1</ele><time>2011-04-16T11:46:32Z</time></trkpt>
<trkpt lat="42.264095" lon="3.260058"><ele>226.4</ele><time>2011-04-16T11:46:37Z</time></trkpt>
<trkpt lat="42.263973" lon="3.260198"><ele>226.8</ele><time>2011-04-16T11:46:42Z</time></trkpt>
<trkpt lat="42.263847" lon="3.260360"><ele>227.5</ele><time>2011-04-16T11:46:47Z</time></trkpt>
<trkpt lat="42.263728" lon="3.260573"><ele>228.3</ele><time>2011-04-16T11:46:52Z</time></trkpt>
<trkpt lat="42.263638" lon="3.260850"><ele>228.5</ele><time>2011-04-16T11:46:57Z</time></trkpt>
<trkpt lat="42.263600" lon="3.261192"><ele>227.6</ele><time>2011-04-16T11:47:02Z</time></trkpt>
<trkpt lat="42.263615" lon="3.261593"><ele>226</ele><time>2011-04-16T11:47:07Z</time></trkpt>
<trkpt lat="42.263588" lon="3.262000"><ele>224.4</ele><time>2011-04-16T11:47:12Z</time></trkpt>
<trkpt lat="42.263550" lon="3.262390"><ele>223.2</ele><time>2011-04-16T11:47:17Z</time></trkpt>
<trkpt lat="42.263538" lon="3.262763"><ele>222.2</ele><time>2011-04-16T11:47:22Z</time></trkpt>
<trkpt lat="42.263485" lon="3.263095"><ele>221.5</ele><time>2011-04-16T11:47:27Z</time></trkpt>
<trkpt lat="42.263482" lon="3.263478"><ele>220.4</ele><time>2011-04-16T11:47:32Z</time></trkpt>
<trkpt lat="42.263550" lon="3.263865"><ele>219.2</ele><time>2011-04-16T11:47:37Z</time></trkpt>
<trkpt lat="42.263813" lon="3.263993"><ele>218.6</ele><time>2011-04-16T11:47:42Z</time></trkpt>
<trkpt lat="42.264107" lon="3.264077"><ele>218.7</ele><time>2011-04-16T11:47:47Z</time></trkpt>
<trkpt lat="42.264240" lon="3.264433"><ele>218.7</ele><time>2011-04-16T11:47:52Z</time></trkpt>
<trkpt lat="42.264378" lon="3.264810"><ele>218.4</ele><time>2011-04-16T11:47:57Z</time></trkpt>
<trkpt lat="42.264497" lon="3.265185"><ele>218.2</ele><time>2011-04-16T11:48:02Z</time></trkpt>
<trkpt lat="42.264565" lon="3.265577"><ele>217.3</ele><time>2011-04-16T11:48:07Z</time></trkpt>
<trkpt lat="42.264847" lon="3.265787"><ele>215.3</ele><time>2011-04-16T11:48:12Z</time></trkpt>
<trkpt lat="42.265160" lon="3.265642"><ele>214.8</ele><time>2011-04-16T11:48:17Z</time></trkpt>
<trkpt lat="42.265438" lon="3.265415"><ele>215.1</ele><time>2011-04-16T11:48:22Z</time></trkpt>
<trkpt lat="42.265687" lon="3.265177"><ele>215.1</ele><time>2011-04-16T11:48:27Z</time></trkpt>
<trkpt lat="42.265927" lon="3.264930"><ele>215.1</ele><time>2011-04-16T11:48:32Z</time></trkpt>
<trkpt lat="42.266167" lon="3.264665"><ele>215</ele><time>2011-04-16T11:48:37Z</time></trkpt>
<trkpt lat="42.266388" lon="3.264355"><ele>214.6</ele><time>2011-04-16T11:48:42Z</time></trkpt>
<trkpt lat="42.266602" lon="3.264043"><ele>214.8</ele><time>2011-04-16T11:48:47Z</time></trkpt>
<trkpt lat="42.266797" lon="3.263780"><ele>215.4</ele><time>2011-04-16T11:48:52Z</time></trkpt>
<trkpt lat="42.267013" lon="3.263620"><ele>216.2</ele><time>2011-04-16T11:48:57Z</time></trkpt>
<trkpt lat="42.267227" lon="3.263612"><ele>217.3</ele><time>2011-04-16T11:49:02Z</time></trkpt>
<trkpt lat="42.267430" lon="3.263563"><ele>217.8</ele><time>2011-04-16T11:49:07Z</time></trkpt>
<trkpt lat="42.267635" lon="3.263475"><ele>218.4</ele><time>2011-04-16T11:49:12Z</time></trkpt>
<trkpt lat="42.267853" lon="3.263437"><ele>218.8</ele><time>2011-04-16T11:49:17Z</time></trkpt>
<trkpt lat="42.267955" lon="3.263647"><ele>219.5</ele><time>2011-04-16T11:49:22Z</time></trkpt>
<trkpt lat="42.267982" lon="3.263927"><ele>220.4</ele><time>2011-04-16T11:49:27Z</time></trkpt>
<trkpt lat="42.268047" lon="3.264197"><ele>220.9</ele><time>2011-04-16T11:49:32Z</time></trkpt>
<trkpt lat="42.268117" lon="3.264488"><ele>221.2</ele><time>2011-04-16T11:49:37Z</time></trkpt>
<trkpt lat="42.268147" lon="3.264792"><ele>221.6</ele><time>2011-04-16T11:49:42Z</time></trkpt>
<trkpt lat="42.268120" lon="3.265070"><ele>222.6</ele><time>2011-04-16T11:49:47Z</time></trkpt>
<trkpt lat="42.268078" lon="3.265317"><ele>223.6</ele><time>2011-04-16T11:49:52Z</time></trkpt>
<trkpt lat="42.268105" lon="3.265570"><ele>224.5</ele><time>2011-04-16T11:49:57Z</time></trkpt>
<trkpt lat="42.268212" lon="3.265798"><ele>224.6</ele><time>2011-04-16T11:50:02Z</time></trkpt>
<trkpt lat="42.268440" lon="3.265880"><ele>223.6</ele><time>2011-04-16T11:50:07Z</time></trkpt>
<trkpt lat="42.268680" lon="3.265828"><ele>223.6</ele><time>2011-04-16T11:50:12Z</time></trkpt>
<trkpt lat="42.268830" lon="3.265990"><ele>223.9</ele><time>2011-04-16T11:50:17Z</time></trkpt>
<trkpt lat="42.268760" lon="3.266213"><ele>225.1</ele><time>2011-04-16T11:50:22Z</time></trkpt>
<trkpt lat="42.268642" lon="3.266455"><ele>224.5</ele><time>2011-04-16T11:50:27Z</time></trkpt>
<trkpt lat="42.268547" lon="3.266807"><ele>222.2</ele><time>2011-04-16T11:50:32Z</time></trkpt>
<trkpt lat="42.268428" lon="3.267232"><ele>218.9</ele><time>2011-04-16T11:50:37Z</time></trkpt>
<trkpt lat="42.268310" lon="3.267652"><ele>216</ele><time>2011-04-16T11:50:42Z</time></trkpt>
<trkpt lat="42.268547" lon="3.267847"><ele>213.4</ele><time>2011-04-16T11:50:47Z</time></trkpt>
<trkpt lat="42.268895" lon="3.267828"><ele>210.4</ele><time>2011-04-16T11:50:52Z</time></trkpt>
<trkpt lat="42.269253" lon="3.267695"><ele>207</ele><time>2011-04-16T11:50:57Z</time></trkpt>
<trkpt lat="42.269592" lon="3.267635"><ele>204.1</ele><time>2011-04-16T11:51:02Z</time></trkpt>
<trkpt lat="42.269932" lon="3.267637"><ele>201.4</ele><time>2011-04-16T11:51:07Z</time></trkpt>
<trkpt lat="42.270058" lon="3.267940"><ele>200.7</ele><time>2011-04-16T11:51:12Z</time></trkpt>
<trkpt lat="42.269940" lon="3.268197"><ele>201.4</ele><time>2011-04-16T11:51:17Z</time></trkpt>
<trkpt lat="42.270068" lon="3.268402"><ele>201.8</ele><time>2011-04-16T11:51:22Z</time></trkpt>
<trkpt lat="42.270305" lon="3.268337"><ele>201.7</ele><time>2011-04-16T11:51:27Z</time></trkpt>
<trkpt lat="42.270535" lon="3.268218"><ele>201.1</ele><time>2011-04-16T11:51:32Z</time></trkpt>
<trkpt lat="42.270767" lon="3.268132"><ele>200.6</ele><time>2011-04-16T11:51:37Z</time></trkpt>
<trkpt lat="42.270988" lon="3.268067"><ele>200.1</ele><time>2011-04-16T11:51:42Z</time></trkpt>
<trkpt lat="42.271248" lon="3.267962"><ele>199</ele><time>2011-04-16T11:51:47Z</time></trkpt>
<trkpt lat="42.271533" lon="3.267753"><ele>196.9</ele><time>2011-04-16T11:51:52Z</time></trkpt>
<trkpt lat="42.271797" lon="3.267457"><ele>195.3</ele><time>2011-04-16T11:51:57Z</time></trkpt>
<trkpt lat="42.272000" lon="3.267133"><ele>194.7</ele><time>2011-04-16T11:52:02Z</time></trkpt>
<trkpt lat="42.272252" lon="3.266963"><ele>193.5</ele><time>2011-04-16T11:52:07Z</time></trkpt>
<trkpt lat="42.272465" lon="3.266707"><ele>191.4</ele><time>2011-04-16T11:52:12Z</time></trkpt>
<trkpt lat="42.272533" lon="3.266247"><ele>189.5</ele><time>2011-04-16T11:52:17Z</time></trkpt>
<trkpt lat="42.272643" lon="3.265808"><ele>187.4</ele><time>2011-04-16T11:52:22Z</time></trkpt>
<trkpt lat="42.272690" lon="3.265378"><ele>185.6</ele><time>2011-04-16T11:52:27Z</time></trkpt>
<trkpt lat="42.272862" lon="3.265365"><ele>186</ele><time>2011-04-16T11:52:32Z</time></trkpt>
<trkpt lat="42.272977" lon="3.265617"><ele>185.4</ele><time>2011-04-16T11:52:37Z</time></trkpt>
<trkpt lat="42.273193" lon="3.265785"><ele>184.5</ele><time>2011-04-16T11:52:42Z</time></trkpt>
<trkpt lat="42.273427" lon="3.266048"><ele>183.8</ele><time>2011-04-16T11:52:47Z</time></trkpt>
<trkpt lat="42.273678" lon="3.266187"><ele>183.7</ele><time>2011-04-16T11:52:52Z</time></trkpt>
<trkpt lat="42.273930" lon="3.266080"><ele>183.7</ele><time>2011-04-16T11:52:57Z</time></trkpt>
<trkpt lat="42.274128" lon="3.265865"><ele>182.9</ele><time>2011-04-16T11:53:02Z</time></trkpt>
<trkpt lat="42.274307" lon="3.266072"><ele>181.6</ele><time>2011-04-16T11:53:07Z</time></trkpt>
<trkpt lat="42.274570" lon="3.266245"><ele>179.4</ele><time>2011-04-16T11:53:12Z</time></trkpt>
<trkpt lat="42.274880" lon="3.266423"><ele>176.6</ele><time>2011-04-16T11:53:17Z</time></trkpt>
<trkpt lat="42.275135" lon="3.266668"><ele>173</ele><time>2011-04-16T11:53:22Z</time></trkpt>
<trkpt lat="42.275052" lon="3.267105"><ele>169</ele><time>2011-04-16T11:53:27Z</time></trkpt>
<trkpt lat="42.275005" lon="3.267552"><ele>166.1</ele><time>2011-04-16T11:53:32Z</time></trkpt>
<trkpt lat="42.275283" lon="3.267583"><ele>162.7</ele><time>2011-04-16T11:53:37Z</time></trkpt>
<trkpt lat="42.275555" lon="3.267243"><ele>159.7</ele><time>2011-04-16T11:53:42Z</time></trkpt>
<trkpt lat="42.275857" lon="3.267097"><ele>157.1</ele><time>2011-04-16T11:53:47Z</time></trkpt>
<trkpt lat="42.276073" lon="3.266813"><ele>154</ele><time>2011-04-16T11:53:52Z</time></trkpt>
<trkpt lat="42.276038" lon="3.266425"><ele>151.4</ele><time>2011-04-16T11:53:57Z</time></trkpt>
<trkpt lat="42.276295" lon="3.266537"><ele>148.7</ele><time>2011-04-16T11:54:02Z</time></trkpt>
<trkpt lat="42.276405" lon="3.266990"><ele>145.2</ele><time>2011-04-16T11:54:07Z</time></trkpt>
<trkpt lat="42.276417" lon="3.267447"><ele>142</ele><time>2011-04-16T11:54:12Z</time></trkpt>
<trkpt lat="42.276588" lon="3.267582"><ele>139.4</ele><time>2011-04-16T11:54:17Z</time></trkpt>
<trkpt lat="42.276822" lon="3.267320"><ele>137.7</ele><time>2011-04-16T11:54:22Z</time></trkpt>
<trkpt lat="42.276985" lon="3.266963"><ele>135.6</ele><time>2011-04-16T11:54:27Z</time></trkpt>
<trkpt lat="42.277240" lon="3.266928"><ele>132.7</ele><time>2011-04-16T11:54:32Z</time></trkpt>
<trkpt lat="42.277272" lon="3.267355"><ele>129</ele><time>2011-04-16T11:54:37Z</time></trkpt>
<trkpt lat="42.277183" lon="3.267843"><ele>126.6</ele><time>2011-04-16T11:54:42Z</time></trkpt>
<trkpt lat="42.277080" lon="3.268300"><ele>124.6</ele><time>2011-04-16T11:54:47Z</time></trkpt>
<trkpt lat="42.276893" lon="3.268662"><ele>121.2</ele><time>2011-04-16T11:54:52Z</time></trkpt>
<trkpt lat="42.276840" lon="3.269040"><ele>117.6</ele><time>2011-04-16T11:54:57Z</time></trkpt>
<trkpt lat="42.277050" lon="3.269393"><ele>113.9</ele><time>2011-04-16T11:55:02Z</time></trkpt>
<trkpt lat="42.277352" lon="3.269513"><ele>112.3</ele><time>2011-04-16T11:55:07Z</time></trkpt>
<trkpt lat="42.277523" lon="3.269800"><ele>110.5</ele><time>2011-04-16T11:55:12Z</time></trkpt>
<trkpt lat="42.277728" lon="3.270107"><ele>108.9</ele><time>2011-04-16T11:55:17Z</time></trkpt>
<trkpt lat="42.277893" lon="3.270432"><ele>106.3</ele><time>2011-04-16T11:55:22Z</time></trkpt>
<trkpt lat="42.277873" lon="3.270855"><ele>103.6</ele><time>2011-04-16T11:55:27Z</time></trkpt>
<trkpt lat="42.278050" lon="3.270863"><ele>101.5</ele><time>2011-04-16T11:55:32Z</time></trkpt>
<trkpt lat="42.278145" lon="3.270522"><ele>98.5</ele><time>2011-04-16T11:55:37Z</time></trkpt>
<trkpt lat="42.278373" lon="3.270263"><ele>95.6</ele><time>2011-04-16T11:55:42Z</time></trkpt>
<trkpt lat="42.278553" lon="3.270373"><ele>92.7</ele><time>2011-04-16T11:55:47Z</time></trkpt>
<trkpt lat="42.278767" lon="3.270507"><ele>91.7</ele><time>2011-04-16T11:55:52Z</time></trkpt>
<trkpt lat="42.278968" lon="3.270465"><ele>89.4</ele><time>2011-04-16T11:55:57Z</time></trkpt>
<trkpt lat="42.278995" lon="3.270835"><ele>86.1</ele><time>2011-04-16T11:56:02Z</time></trkpt>
<trkpt lat="42.278873" lon="3.271242"><ele>82.6</ele><time>2011-04-16T11:56:07Z</time></trkpt>
<trkpt lat="42.278953" lon="3.271587"><ele>80.3</ele><time>2011-04-16T11:56:12Z</time></trkpt>
<trkpt lat="42.279128" lon="3.271940"><ele>77.2</ele><time>2011-04-16T11:56:17Z</time></trkpt>
<trkpt lat="42.279323" lon="3.272363"><ele>72.6</ele><time>2011-04-16T11:56:22Z</time></trkpt>
<trkpt lat="42.279438" lon="3.272833"><ele>68.4</ele><time>2011-04-16T11:56:27Z</time></trkpt>
<trkpt lat="42.279713" lon="3.273035"><ele>65.7</ele><time>2011-04-16T11:56:32Z</time></trkpt>
<trkpt lat="42.279868" lon="3.273418"><ele>61.9</ele><time>2011-04-16T11:56:37Z</time></trkpt>
<trkpt lat="42.279965" lon="3.273848"><ele>58.9</ele><time>2011-04-16T11:56:42Z</time></trkpt>
<trkpt lat="42.279847" lon="3.274278"><ele>55.9</ele><time>2011-04-16T11:56:47Z</time></trkpt>
<trkpt lat="42.279687" lon="3.274673"><ele>52</ele><time>2011-04-16T11:56:52Z</time></trkpt>
<trkpt lat="42.279873" lon="3.274890"><ele>49.5</ele><time>2011-04-16T11:56:57Z</time></trkpt>
<trkpt lat="42.280175" lon="3.274662"><ele>46.9</ele><time>2011-04-16T11:57:02Z</time></trkpt>
<trkpt lat="42.280528" lon="3.274447"><ele>44</ele><time>2011-04-16T11:57:07Z</time></trkpt>
<trkpt lat="42.280632" lon="3.274058"><ele>41.4</ele><time>2011-04-16T11:57:12Z</time></trkpt>
<trkpt lat="42.280762" lon="3.273927"><ele>38.1</ele><time>2011-04-16T11:57:17Z</time></trkpt>
<trkpt lat="42.281028" lon="3.274067"><ele>34.1</ele><time>2011-04-16T11:57:22Z</time></trkpt>
<trkpt lat="42.281182" lon="3.274422"><ele>29.3</ele><time>2011-04-16T11:57:27Z</time></trkpt>
<trkpt lat="42.281158" lon="3.274915"><ele>25.3</ele><time>2011-04-16T11:57:32Z</time></trkpt>
<trkpt lat="42.281273" lon="3.275307"><ele>21.3</ele><time>2011-04-16T11:57:37Z</time></trkpt>
<trkpt lat="42.281575" lon="3.275490"><ele>17.3</ele><time>2011-04-16T11:57:42Z</time></trkpt>
<trkpt lat="42.281925" lon="3.275623"><ele>14.1</ele><time>2011-04-16T11:57:47Z</time></trkpt>
<trkpt lat="42.282310" lon="3.275642"><ele>10.5</ele><time>2011-04-16T11:57:52Z</time></trkpt>
<trkpt lat="42.282650" lon="3.275517"><ele>7.5</ele><time>2011-04-16T11:57:57Z</time></trkpt>
<trkpt lat="42.282937" lon="3.275592"><ele>6.2</ele><time>2011-04-16T11:58:02Z</time></trkpt>
<trkpt lat="42.283100" lon="3.275762"><ele>5.6</ele><time>2011-04-16T11:58:07Z</time></trkpt>
<trkpt lat="42.283272" lon="3.275873"><ele>5.5</ele><time>2011-04-16T11:58:12Z</time></trkpt>
<trkpt lat="42.283497" lon="3.275817"><ele>5.9</ele><time>2011-04-16T11:58:17Z</time></trkpt>
<trkpt lat="42.283745" lon="3.275655"><ele>5</ele><time>2011-04-16T11:58:22Z</time></trkpt>
<trkpt lat="42.283993" lon="3.275465"><ele>4.9</ele><time>2011-04-16T11:58:27Z</time></trkpt>
<trkpt lat="42.284230" lon="3.275295"><ele>5.3</ele><time>2011-04-16T11:58:32Z</time></trkpt>
<trkpt lat="42.284477" lon="3.275272"><ele>6</ele><time>2011-04-16T11:58:37Z</time></trkpt>
<trkpt lat="42.284702" lon="3.275340"><ele>6.4</ele><time>2011-04-16T11:58:42Z</time></trkpt>
<trkpt lat="42.284870" lon="3.275457"><ele>8.2</ele><time>2011-04-16T11:58:47Z</time></trkpt>
<trkpt lat="42.284950" lon="3.275640"><ele>9.7</ele><time>2011-04-16T11:58:52Z</time></trkpt>
<trkpt lat="42.285118" lon="3.275737"><ele>9.7</ele><time>2011-04-16T11:58:57Z</time></trkpt>
<trkpt lat="42.285267" lon="3.275675"><ele>10.3</ele><time>2011-04-16T11:59:02Z</time></trkpt>
<trkpt lat="42.285328" lon="3.275547"><ele>12.6</ele><time>2011-04-16T11:59:07Z</time></trkpt>
<trkpt lat="42.285362" lon="3.275448"><ele>15.3</ele><time>2011-04-16T11:59:12Z</time></trkpt>
<trkpt lat="42.285358" lon="3.275348"><ele>18.5</ele><time>2011-04-16T11:59:17Z</time></trkpt>
<trkpt lat="42.285358" lon="3.275247"><ele>20.5</ele><time>2011-04-16T11:59:22Z</time></trkpt>
<trkpt lat="42.285393" lon="3.275165"><ele>22.7</ele><time>2011-04-16T11:59:27Z</time></trkpt>
<trkpt lat="42.285450" lon="3.275073"><ele>22.6</ele><time>2011-04-16T11:59:32Z</time></trkpt>
<trkpt lat="42.285500" lon="3.274985"><ele>23.3</ele><time>2011-04-16T11:59:37Z</time></trkpt>
<trkpt lat="42.285553" lon="3.274892"><ele>23.5</ele><time>2011-04-16T11:59:42Z</time></trkpt>
<trkpt lat="42.285598" lon="3.274790"><ele>23.8</ele><time>2011-04-16T11:59:47Z</time></trkpt>
<trkpt lat="42.285687" lon="3.274807"><ele>23.2</ele><time>2011-04-16T11:59:52Z</time></trkpt>
<trkpt lat="42.285832" lon="3.274977"><ele>23.1</ele><time>2011-04-16T11:59:57Z</time></trkpt>
<trkpt lat="42.285973" lon="3.275147"><ele>23.1</ele><time>2011-04-16T12:00:02Z</time></trkpt>
<trkpt lat="42.286098" lon="3.275323"><ele>23.3</ele><time>2011-04-16T12:00:07Z</time></trkpt>
<trkpt lat="42.286232" lon="3.275510"><ele>23.2</ele><time>2011-04-16T12:00:12Z</time></trkpt>
<trkpt lat="42.286338" lon="3.275708"><ele>22.8</ele><time>2011-04-16T12:00:17Z</time></trkpt>
<trkpt lat="42.286412" lon="3.275792"><ele>22.9</ele><time>2011-04-16T12:00:22Z</time></trkpt>
<trkpt lat="42.286415" lon="3.275785"><ele>22.6</ele><time>2011-04-16T12:00:27Z</time></trkpt>
<trkpt lat="42.286445" lon="3.275773"><ele>22.4</ele><time>2011-04-16T12:00:32Z</time></trkpt>
<trkpt lat="42.286560" lon="3.275737"><ele>22.7</ele><time>2011-04-16T12:00:37Z</time></trkpt>
<trkpt lat="42.286693" lon="3.275652"><ele>22.6</ele><time>2011-04-16T12:00:42Z</time></trkpt>
<trkpt lat="42.286873" lon="3.275527"><ele>21.6</ele><time>2011-04-16T12:00:47Z</time></trkpt>
<trkpt lat="42.286957" lon="3.275338"><ele>22.2</ele><time>2011-04-16T12:00:52Z</time></trkpt>
<trkpt lat="42.286998" lon="3.275175"><ele>23.4</ele><time>2011-04-16T12:00:57Z</time></trkpt>
<trkpt lat="42.287087" lon="3.275018"><ele>23.4</ele><time>2011-04-16T12:01:02Z</time></trkpt>
<trkpt lat="42.287250" lon="3.274828"><ele>22.6</ele><time>2011-04-16T12:01:07Z</time></trkpt>
<trkpt lat="42.287437" lon="3.274615"><ele>21.5</ele><time>2011-04-16T12:01:12Z</time></trkpt>
<trkpt lat="42.287620" lon="3.274405"><ele>21.2</ele><time>2011-04-16T12:01:17Z</time></trkpt>
<trkpt lat="42.287773" lon="3.274238"><ele>23.3</ele><time>2011-04-16T12:01:22Z</time></trkpt>
<trkpt lat="42.287952" lon="3.274063"><ele>25</ele><time>2011-04-16T12:01:27Z</time></trkpt>
<trkpt lat="42.288193" lon="3.273917"><ele>23.3</ele><time>2011-04-16T12:01:32Z</time></trkpt>
<trkpt lat="42.288407" lon="3.273793"><ele>21.4</ele><time>2011-04-16T12:01:37Z</time></trkpt>
<trkpt lat="42.288585" lon="3.273810"><ele>18.2</ele><time>2011-04-16T12:01:42Z</time></trkpt>
<trkpt lat="42.288720" lon="3.273973"><ele>18.6</ele><time>2011-04-16T12:01:47Z</time></trkpt>
<trkpt lat="42.288780" lon="3.274152"><ele>17.1</ele><time>2011-04-16T12:01:52Z</time></trkpt>
<trkpt lat="42.288913" lon="3.274275"><ele>16.3</ele><time>2011-04-16T12:01:57Z</time></trkpt>
<trkpt lat="42.289127" lon="3.274240"><ele>15.3</ele><time>2011-04-16T12:02:02Z</time></trkpt>
<trkpt lat="42.289322" lon="3.274265"><ele>14.2</ele><time>2011-04-16T12:02:07Z</time></trkpt>
<trkpt lat="42.289487" lon="3.274272"><ele>11.8</ele><time>2011-04-16T12:02:12Z</time></trkpt>
<trkpt lat="42.289642" lon="3.274275"><ele>10.5</ele><time>2011-04-16T12:02:17Z</time></trkpt>
<trkpt lat="42.289780" lon="3.274270"><ele>11.6</ele><time>2011-04-16T12:02:22Z</time></trkpt>
<trkpt lat="42.289928" lon="3.274272"><ele>12.7</ele><time>2011-04-16T12:02:27Z</time></trkpt>
<trkpt lat="42.289963" lon="3.274408"><ele>12.2</ele><time>2011-04-16T12:02:32Z</time></trkpt>
<trkpt lat="42.289967" lon="3.274450"><ele>11.9</ele><time>2011-04-16T12:02:37Z</time></trkpt>
<trkpt lat="42.289985" lon="3.274590"><ele>11.3</ele><time>2011-04-16T12:02:42Z</time></trkpt>
<trkpt lat="42.290023" lon="3.274837"><ele>11</ele><time>2011-04-16T12:02:47Z</time></trkpt>
<trkpt lat="42.290058" lon="3.275113"><ele>10.8</ele><time>2011-04-16T12:02:52Z</time></trkpt>
<trkpt lat="42.290065" lon="3.275365"><ele>11.2</ele><time>2011-04-16T12:02:57Z</time></trkpt>
<trkpt lat="42.290035" lon="3.275593"><ele>12.7</ele><time>2011-04-16T12:03:02Z</time></trkpt>
<trkpt lat="42.290020" lon="3.275793"><ele>13.5</ele><time>2011-04-16T12:03:07Z</time></trkpt>
<trkpt lat="42.290077" lon="3.275972"><ele>13.7</ele><time>2011-04-16T12:03:12Z</time></trkpt>
<trkpt lat="42.290147" lon="3.276088"><ele>15.3</ele><time>2011-04-16T12:03:17Z</time></trkpt>
<trkpt lat="42.290177" lon="3.276188"><ele>16.3</ele><time>2011-04-16T12:03:22Z</time></trkpt>
<trkpt lat="42.290195" lon="3.276287"><ele>17.2</ele><time>2011-04-16T12:03:27Z</time></trkpt>
<trkpt lat="42.290218" lon="3.276382"><ele>19</ele><time>2011-04-16T12:03:32Z</time></trkpt>
<trkpt lat="42.290248" lon="3.276487"><ele>21.3</ele><time>2011-04-16T12:03:37Z</time></trkpt>
<trkpt lat="42.290245" lon="3.276603"><ele>21.6</ele><time>2011-04-16T12:03:42Z</time></trkpt>
<trkpt lat="42.290222" lon="3.276708"><ele>21.7</ele><time>2011-04-16T12:03:47Z</time></trkpt>
<trkpt lat="42.290210" lon="3.276823"><ele>22.1</ele><time>2011-04-16T12:03:52Z</time></trkpt>
<trkpt lat="42.290207" lon="3.276943"><ele>23.6</ele><time>2011-04-16T12:03:57Z</time></trkpt>
<trkpt lat="42.290248" lon="3.277055"><ele>26.3</ele><time>2011-04-16T12:04:02Z</time></trkpt>
<trkpt lat="42.290280" lon="3.277162"><ele>27.1</ele><time>2011-04-16T12:04:07Z</time></trkpt>
<trkpt lat="42.290298" lon="3.277290"><ele>26.4</ele><time>2011-04-16T12:04:12Z</time></trkpt>
<trkpt lat="42.290325" lon="3.277450"><ele>24.9</ele><time>2011-04-16T12:04:17Z</time></trkpt>
<trkpt lat="42.290382" lon="3.277610"><ele>24.1</ele><time>2011-04-16T12:04:22Z</time></trkpt>
<trkpt lat="42.290447" lon="3.277805"><ele>23.2</ele><time>2011-04-16T12:04:27Z</time></trkpt>
<trkpt lat="42.290558" lon="3.278002"><ele>21.8</ele><time>2011-04-16T12:04:32Z</time></trkpt>
<trkpt lat="42.290707" lon="3.278265"><ele>17.3</ele><time>2011-04-16T12:04:37Z</time></trkpt>
<trkpt lat="42.290860" lon="3.278475"><ele>15.2</ele><time>2011-04-16T12:04:42Z</time></trkpt>
<trkpt lat="42.290855" lon="3.278685"><ele>15</ele><time>2011-04-16T12:04:47Z</time></trkpt>
<trkpt lat="42.290730" lon="3.278768"><ele>15.3</ele><time>2011-04-16T12:04:52Z</time></trkpt>
<trkpt lat="42.290597" lon="3.278848"><ele>17.2</ele><time>2011-04-16T12:04:57Z</time></trkpt>
<trkpt lat="42.290512" lon="3.278922"><ele>22.4</ele><time>2011-04-16T12:05:02Z</time></trkpt>
<trkpt lat="42.290417" lon="3.279008"><ele>24.9</ele><time>2011-04-16T12:05:07Z</time></trkpt>
<trkpt lat="42.290348" lon="3.279090"><ele>28.5</ele><time>2011-04-16T12:05:12Z</time></trkpt>
<trkpt lat="42.290215" lon="3.279147"><ele>29.8</ele><time>2011-04-16T12:05:17Z</time></trkpt>
<trkpt lat="42.290123" lon="3.279212"><ele>30.7</ele><time>2011-04-16T12:05:22Z</time></trkpt>
<trkpt lat="42.290017" lon="3.279293"><ele>30.7</ele><time>2011-04-16T12:05:27Z</time></trkpt>
<trkpt lat="42.289840" lon="3.279372"><ele>26.8</ele><time>2011-04-16T12:05:32Z</time></trkpt>
<trkpt lat="42.289787" lon="3.279413"><ele>23.1</ele><time>2011-04-16T12:05:37Z</time></trkpt>
<trkpt lat="42.289768" lon="3.279395"><ele>21.8</ele><time>2011-04-16T12:05:42Z</time></trkpt>
<trkpt lat="42.289760" lon="3.279395"><ele>20.9</ele><time>2011-04-16T12:05:47Z</time></trkpt>
<trkpt lat="42.289742" lon="3.279407"><ele>23.9</ele><time>2011-04-16T12:05:52Z</time></trkpt>
<trkpt lat="42.289727" lon="3.279422"><ele>26.5</ele><time>2011-04-16T12:05:57Z</time></trkpt>
<trkpt lat="42.289722" lon="3.279455"><ele>27.8</ele><time>2011-04-16T12:06:02Z</time></trkpt>
<trkpt lat="42.289745" lon="3.279463"><ele>21.5</ele><time>2011-04-16T12:06:07Z</time></trkpt>
</trkseg></trk></gpx>